[[{"header":{"parameterUnit":"m.s-1","parameterCategory":1,"la1":31.0,"la2":29.5877,"lo1":-88.7671,"lo2":-86.6584,"dy":0.0162,"dx":0.0185,"nx":115,"ny":88,"refTime":"2023-10-07T12:00:00:Z","depth":0,"parameterNumber":2,"parameterNumberName":"U-component_of_WINDS"},"data":[0.0,0.0,0.0,0.0,0.0,0.0,0.0,0.0,0.0,0.0,0.0,0.0,0.0,0.0,0.0,0.0,0.0,0.0,0.0,0.0,0.0,0.0,0.0,0.0,0.0,0.0,0.0,0.0,0.0,0.0,0.0,0.0,0.0,0.0,0.0,0.0,0.0,0.0,0.0,0.0,0.0,0.0,0.0,0.0,0.0,0.0,0.0,0.0,0.0,0.0,0.0,0.0,0.0,0.0,0.0,0.0,0.0,0.0,0.0,0.0,0.0,0.0,0.0,0.0,0.0,0.0,0.0,0.0,0.0,0.0,0.0,0.0,0.0,0.0,0.0,0.0,0.0,0.0,0.0,0.0,0.0,0.0,0.0,0.0,0.0,0.0,0.0,0.0,0.0,0.0,0.0,0.0,0.0,0.0,0.0,0.0,0.0,0.0,0.0,0.0,0.0,0.0,0.0,0.0,0.0,0.0,0.0,0.0,0.0,0.0,0.0,0.0,0.0,0.0,0.0,0.0,0.0,0.0,0.0,0.0,0.0,0.0,0.0,0.0,0.0,0.0,0.0,0.0,0.0,0.0,0.0,0.0,0.0,0.0,0.0,0.0,0.0,0.0,0.0,0.0,0.0,0.0,0.0,0.0,0.0,0.0,0.0,0.0,0.0,0.0,0.0,0.0,0.0,0.0,0.0,0.0,0.0,0.0,0.0,0.0,0.0,0.0,0.0,0.0,0.0,0.0,0.0,0.0,0.0,0.0,0.0,0.0,0.0,0.0,0.0,0.0,0.0,0.0,0.0,0.0,0.0,0.0,0.0,0.0,0.0,0.0,0.0,0.0,0.0,0.0,0.0,0.0,0.0,0.0,0.0,0.0,0.0,0.0,0.0,0.0,0.0,0.0,0.0,0.0,0.0,0.0,0.0,0.0,0.0,0.0,0.0,0.0,0.0,0.0,0.0,0.0,0.0,0.0,0.0,0.0,0.0,0.0,0.0,0.0,0.0,0.0,0.0,0.0,0.0,0.0,0.0,0.0,0.0,0.0,0.0,0.0,0.0,0.0,0.0,0.0,0.0,0.0,0.0,0.0,0.0,0.0,0.0,0.0,0.0,0.0,0.0,0.0,0.0,0.0,0.0,0.0,0.0,0.0,0.0,0.0,0.0,0.0,0.0,0.0,0.0,0.0,0.0,0.0,0.0,0.0,0.0,0.0,0.0,0.0,0.0,0.0,0.0,0.0,0.0,0.0,0.0,0.0,0.0,0.0,0.0,0.0,0.0,0.0,0.0,0.0,0.0,0.0,0.0,0.0,0.0,0.0,0.0,0.0,0.0,0.0,0.0,0.0,0.0,0.0,0.0,0.0,0.0,0.0,0.0,0.0,0.0,0.0,0.0,0.0,0.0,0.0,0.0,0.0,0.0,0.0,0.0,0.0,0.0,0.0,0.0,0.0,0.0,0.0,0.0,0.0,0.0,0.0,0.0,0.0,0.0,0.0,0.0,0.0,0.0,0.0,0.0,0.0,0.0,0.0,0.0,0.0,0.0,0.0,0.0,0.0,0.0,0.0,0.0,0.0,0.0,0.0,0.0,0.0,0.0,0.0,0.0,0.0,0.0,0.0,0.0,0.0,0.0,0.0,0.0,0.0,0.0,0.0,0.0,0.0,0.0,0.0,0.0,0.0,0.0,0.0,0.0,0.0,0.0,0.0,0.0,0.0,0.0,0.0,0.0,0.0,0.0,0.0,0.0,0.0,0.0,0.0,0.0,0.0,0.0,0.0,0.0,0.0,0.0,0.0,0.0,0.0,0.0,0.0,0.0,0.0,0.0,0.0,0.0,0.0,0.0,0.0,0.0,0.0,0.0,0.0,0.0,0.0,0.0,0.0,0.0,0.0,0.0,0.0,0.0,0.0,0.0,0.0,0.0,0.0,0.0,0.0,0.0,0.0,0.0,0.0,0.0,0.0,0.0,0.0,0.0,0.0,0.0,0.0,0.0,0.0,0.0,0.0,0.0,0.0,0.0,0.0,0.0,0.0,0.0,0.0,0.0,0.0,0.0,0.0,0.0,0.0,0.0,0.0,0.0,0.0,0.0,0.0,0.0,0.0,0.0,0.0,0.0,0.0,0.0,0.0,0.0,0.0,0.0,0.0,0.0,0.0,0.0,0.0,0.0,0.0,0.0,0.0,0.0,0.0,0.0,0.0,0.0,0.0,0.0,0.0,0.0,0.0,0.0,0.0,0.0,0.0,0.0,0.0,0.0,0.0,0.0,0.0,0.0,0.0,0.0,0.0,0.0,0.0,0.0,0.0,0.0,0.0,0.0,0.0,0.0,0.0,0.0,0.0,0.0,0.0,0.0,0.0,0.0,0.0,0.0,0.0,0.0,0.0,0.0,0.0,0.0,0.0,0.0,0.0,0.0,0.0,0.0,0.0,0.0,0.0,0.0,0.0,0.0,0.0,0.0,0.0,0.0,0.0,0.0,0.0,0.0,0.0,0.0,0.0,0.0,0.0,0.0,0.0,0.0,0.0,0.0,0.0,0.0,0.0,0.0,0.0,0.0,0.0,0.0,0.0,0.0,0.0,0.0,0.0,0.0,0.0,0.0,0.0,0.0,0.0,0.0,0.0,0.0,0.0,0.0,0.0,0.0,0.0,0.0,0.0,0.0,0.0,0.0,0.0,0.0,0.0,0.0,0.0,0.0,0.0,0.0,0.0,0.0,0.0,0.0,0.0,0.0,0.0,0.0,0.0,0.0,0.0,0.0,0.0,0.0,0.0,0.0,0.0,0.0,0.0,0.0,0.0,0.0,0.0,0.0,0.0,0.0,0.0,0.0,0.0,0.0,0.0,0.0,0.0,0.0,0.0,0.0,0.0,0.0,0.0,0.0,0.0,0.0,0.0,0.0,0.0,0.0,0.0,0.0,0.0,0.0,0.0,0.0,0.0,0.0,0.0,0.0,0.0,0.0,0.0,0.0,0.0,0.0,0.0,0.0,0.0,0.0,0.0,0.0,0.0,0.0,0.0,0.0,0.0,0.0,0.0,0.0,0.0,0.0,0.0,0.0,0.0,0.0,0.0,0.0,0.0,0.0,0.0,0.0,0.0,0.0,0.0,0.0,0.0,0.0,0.0,0.0,0.0,0.0,0.0,0.0,0.0,0.0,0.0,0.0,0.0,0.0,0.0,0.0,0.0,0.0,0.0,0.0,0.0,0.0,0.0,0.0,0.0,0.0,0.0,0.0,0.0,0.0,0.0,0.0,0.0,0.0,0.0,0.0,0.0,0.0,0.0,0.0,0.0,0.0,0.0,0.0,0.0,0.0,0.0,0.0,0.0,0.0,0.0,0.0,0.0,0.0,0.0,0.0,0.0,0.0,0.0,0.0,0.0,0.0,0.0,0.0,0.0,0.0,0.0,0.0,0.0,0.0,0.0,0.0,0.0,0.0,0.0,0.0,0.0,0.0,0.0,0.0,0.0,0.0,0.0,0.0,0.0,0.0,0.0,0.0,0.0,0.0,0.0,0.0,0.0,0.0,0.0,0.0,0.0,0.0,0.0,0.0,0.0,0.0,0.0,0.0,0.0,0.0,0.0,0.0,0.0,0.0,0.0,0.0,0.0,0.0,0.0,0.0,0.0,0.0,0.0,0.0,0.0,0.0,0.0,0.0,0.0,0.0,0.0,0.0,0.0,0.0,0.0,0.0,0.0,0.0,0.0,0.0,0.0,0.0,0.0,0.0,0.0,0.0,0.0,0.0,0.0,0.0,0.0,0.0,0.0,0.0,0.0,0.0,0.0,0.0,0.0,0.0,0.0,0.0,0.0,0.0,0.0,0.0,0.0,0.0,0.0,0.0,0.0,0.0,0.0,0.0,0.0,0.0,0.0,0.0,0.0,0.0,0.0,0.0,0.0,0.0,0.0,0.0,0.0,0.0,0.0,0.0,0.0,0.0,0.0,0.0,0.0,0.0,0.0,0.0,0.0,0.0,0.0,0.0,0.0,0.0,0.0,0.0,0.0,0.0,0.0,0.0,0.0,0.0,0.0,0.0,0.0,0.0,0.0,0.0,0.0,0.0,0.0,0.0,0.0,0.0,0.0,0.0,0.0,0.0,0.0,0.0,0.0,0.0,0.0,0.0,0.0,0.0,0.0,0.0,0.0,0.0,0.0,0.0,0.0,0.0,0.0,0.0,0.0,0.0,0.0,0.0,0.0,0.0,0.0,0.0,0.0,0.0,0.0,0.0,0.0,0.0,0.0,0.0,0.0,0.0,0.0,0.0,0.0,-1.1315,0.0,0.0,0.0,0.0,0.0,0.0,0.0,0.0,0.0,0.0,0.0,0.0,0.0,0.0,0.0,0.0,0.0,0.0,0.0,0.0,0.0,0.0,0.0,0.0,0.0,0.0,0.0,0.0,0.0,0.0,0.0,0.0,0.0,0.0,0.0,0.0,0.0,0.0,0.0,0.0,0.0,0.0,0.0,0.0,0.0,0.0,0.0,0.0,0.0,0.0,0.0,0.0,0.0,0.0,0.0,0.0,0.0,0.0,0.0,0.0,0.0,0.0,0.0,0.0,0.0,0.0,0.0,0.0,0.0,0.0,0.0,0.0,0.0,0.0,0.0,0.0,0.0,0.0,0.0,0.0,0.0,0.0,0.0,0.0,0.0,0.0,0.0,0.0,0.0,0.0,0.0,0.0,0.0,0.0,0.0,0.0,0.0,0.0,0.0,0.0,0.0,0.0,0.0,0.0,0.0,0.0,0.0,0.0,0.0,0.0,-0.9957,-1.0039,-1.0063,-1.0512,-1.1428,0.0,0.0,0.0,0.0,0.0,0.0,0.0,0.0,0.0,0.0,0.0,0.0,0.0,0.0,0.0,0.0,0.0,0.0,0.0,0.0,0.0,0.0,0.0,0.0,0.0,0.0,0.0,0.0,0.0,0.0,0.0,0.0,0.0,0.0,0.0,0.0,0.0,0.0,0.0,0.0,0.0,0.0,0.0,0.0,0.0,0.0,0.0,0.0,0.0,0.0,0.0,0.0,0.0,0.0,0.0,0.0,0.0,0.0,0.0,0.0,0.0,0.0,0.0,0.0,0.0,0.0,0.0,0.0,0.0,0.0,0.0,0.0,0.0,0.0,0.0,0.0,0.0,0.0,0.0,0.0,0.0,0.0,0.0,0.0,0.0,0.0,0.0,0.0,0.0,0.0,0.0,0.0,0.0,0.0,0.0,0.0,0.0,0.0,0.0,0.0,0.0,0.0,0.0,0.0,0.0,0.0,0.0,0.0,0.0,0.0,0.0,0.0,-1.0421,-1.0876,-1.1984,0.0,0.0,0.0,0.0,0.0,0.0,0.0,0.0,0.0,0.0,0.0,0.0,0.0,0.0,0.0,0.0,0.0,0.0,0.0,0.0,0.0,0.0,0.0,0.0,0.0,0.0,0.0,0.0,0.0,0.0,0.0,0.0,0.0,0.0,0.0,0.0,0.0,0.0,0.0,0.0,0.0,0.0,0.0,0.0,0.0,0.0,0.0,0.0,0.0,0.0,0.0,0.0,0.0,0.0,0.0,0.0,0.0,0.0,0.0,0.0,0.0,0.0,0.0,0.0,0.0,0.0,0.0,0.0,0.0,0.0,0.0,0.0,0.0,0.0,0.0,0.0,0.0,0.0,0.0,0.0,0.0,0.0,0.0,0.0,0.0,0.0,0.0,0.0,0.0,0.0,0.0,0.0,0.0,0.0,0.0,0.0,0.0,0.0,0.0,0.0,0.0,0.0,0.0,0.0,0.0,0.0,0.0,0.0,0.0,0.0,-1.0451,-1.2114,-1.1552,0.0,-1.3659,0.0,0.0,0.0,0.0,0.0,0.0,0.0,0.0,0.0,0.0,0.0,0.0,0.0,0.0,0.0,0.0,0.0,0.0,0.0,0.0,0.0,0.0,0.0,0.0,0.0,0.0,0.0,0.0,0.0,0.0,0.0,0.0,0.0,0.0,0.0,0.0,0.0,0.0,0.0,0.0,0.0,0.0,0.0,0.0,0.0,0.0,0.0,0.0,0.0,0.0,0.0,0.0,0.0,0.0,0.0,0.0,0.0,0.0,0.0,0.0,0.0,0.0,0.0,0.0,0.0,0.0,0.0,0.0,0.0,0.0,0.0,0.0,0.0,0.0,0.0,0.0,0.0,0.0,0.0,0.0,0.0,0.0,0.0,0.0,0.0,0.0,0.0,0.0,0.0,0.0,0.0,0.0,0.0,0.0,0.0,0.0,0.0,0.0,0.0,0.0,0.0,0.0,0.0,0.0,0.0,0.0,0.0,0.0,0.0,0.0,-1.0163,-1.1376,-1.2211,-1.303,0.0,0.0,0.0,0.0,0.0,0.0,0.0,0.0,0.0,0.0,0.0,0.0,0.0,0.0,0.0,0.0,0.0,0.0,0.0,0.0,0.0,0.0,0.0,0.0,0.0,0.0,0.0,0.0,0.0,0.0,0.0,0.0,0.0,0.0,0.0,0.0,0.0,0.0,0.0,0.0,0.0,0.0,0.0,0.0,0.0,0.0,0.0,0.0,0.0,0.0,0.0,0.0,0.0,0.0,0.0,0.0,0.0,0.0,0.0,0.0,0.0,0.0,0.0,0.0,0.0,0.0,0.0,0.0,0.0,0.0,0.0,0.0,0.0,0.0,0.0,0.0,0.0,0.0,0.0,0.0,0.0,0.0,0.0,0.0,0.0,0.0,0.0,0.0,0.0,0.0,0.0,0.0,0.0,0.0,0.0,0.0,0.0,0.0,0.0,0.0,0.0,0.0,0.0,0.0,0.0,0.0,0.0,0.0,0.0,0.0,-0.958,-0.9923,-1.0789,-1.2563,-1.3497,-1.334,0.0,0.0,0.0,0.0,0.0,0.0,0.0,0.0,0.0,0.0,0.0,0.0,0.0,0.0,0.0,0.0,0.0,0.0,0.0,0.0,0.0,0.0,0.0,0.0,0.0,0.0,0.0,0.0,0.0,0.0,0.0,0.0,0.0,0.0,0.0,0.0,0.0,0.0,0.0,0.0,0.0,0.0,0.0,0.0,0.0,0.0,0.0,0.0,0.0,0.0,0.0,0.0,0.0,0.0,0.0,0.0,0.0,0.0,0.0,0.0,0.0,0.0,0.0,0.0,0.0,0.0,0.0,0.0,0.0,0.0,0.0,0.0,0.0,0.0,0.0,0.0,0.0,0.0,0.0,0.0,0.0,0.0,0.0,0.0,0.0,0.0,0.0,0.0,0.0,0.0,0.0,0.0,0.0,0.0,0.0,0.0,0.0,0.0,0.0,0.0,0.0,0.0,0.0,0.0,0.0,0.0,0.0,0.0,-1.0431,-0.9752,-0.9816,-1.0875,-1.252,-1.3113,0.0,0.0,0.0,0.0,0.0,0.0,0.0,0.0,0.0,0.0,0.0,0.0,0.0,0.0,0.0,0.0,0.0,0.0,0.0,0.0,0.0,0.0,0.0,0.0,0.0,0.0,0.0,0.0,0.0,0.0,0.0,0.0,0.0,0.0,0.0,0.0,0.0,0.0,0.0,0.0,0.0,0.0,0.0,0.0,0.0,0.0,0.0,0.0,0.0,0.0,0.0,0.0,0.0,0.0,0.0,0.0,0.0,0.0,0.0,0.0,0.0,0.0,0.0,0.0,0.0,0.0,0.0,0.0,0.0,0.0,0.0,0.0,0.0,0.0,0.0,0.0,0.0,0.0,0.0,0.0,0.0,0.0,0.0,0.0,0.0,0.0,0.0,0.0,0.0,0.0,0.0,0.0,0.0,0.0,0.0,0.0,0.0,0.0,0.0,0.0,0.0,0.0,0.0,0.0,0.0,0.0,0.0,0.0,0.0,-0.9602,-0.9928,-1.0293,-1.0843,-1.1976,-1.2742,0.0,0.0,0.0,0.0,0.0,0.0,0.0,0.0,0.0,0.0,0.0,0.0,0.0,0.0,0.0,0.0,0.0,0.0,0.0,0.0,0.0,0.0,0.0,0.0,0.0,0.0,0.0,0.0,0.0,0.0,0.0,0.0,0.0,0.0,0.0,0.0,0.0,0.0,0.0,0.0,0.0,0.0,0.0,0.0,0.0,0.0,0.0,0.0,0.0,0.0,0.0,0.0,0.0,0.0,0.0,0.0,0.0,0.0,0.0,0.0,0.0,0.0,0.0,0.0,0.0,0.0,0.0,0.0,0.0,0.0,0.0,0.0,0.0,0.0,0.0,0.0,0.0,0.0,0.0,0.0,0.0,0.0,0.0,0.0,0.0,0.0,0.0,0.0,0.0,0.0,0.0,0.0,0.0,0.0,0.0,0.0,0.0,0.0,0.0,0.0,0.0,0.0,0.0,0.0,0.0,0.0,0.0,0.0,0.0,-0.8962,0.0,-1.0087,-1.0178,-1.1048,-1.1755,0.0,0.0,0.0,0.0,0.0,0.0,0.0,0.0,0.0,0.0,0.0,0.0,0.0,0.0,0.0,0.0,0.0,0.0,0.0,0.0,0.0,0.0,0.0,0.0,0.0,0.0,0.0,0.0,0.0,0.0,0.0,0.0,0.0,0.0,0.0,0.0,0.0,0.0,0.0,0.0,0.0,0.0,0.0,0.0,0.0,0.0,0.0,0.0,0.0,0.0,0.0,0.0,0.0,0.0,0.0,0.0,0.0,0.0,0.0,0.0,0.0,0.0,0.0,0.0,0.0,0.0,0.0,0.0,0.0,0.0,0.0,0.0,0.0,0.0,0.0,0.0,0.0,0.0,0.0,0.0,0.0,0.0,0.0,0.0,0.0,0.0,0.0,0.0,0.0,0.0,0.0,0.0,0.0,0.0,0.0,0.0,0.0,0.0,0.0,0.0,0.0,0.0,0.0,0.0,0.0,0.0,0.0,0.0,-0.8114,-0.87,-0.901,-0.9121,-0.8863,-0.9835,-1.0048,0.0,0.0,0.0,0.0,0.0,0.0,0.0,0.0,0.0,0.0,0.0,0.0,0.0,0.0,0.0,0.0,0.0,0.0,0.0,0.0,0.0,0.0,0.0,0.0,0.0,0.0,0.0,0.0,0.0,0.0,0.0,0.0,0.0,0.0,0.0,0.0,0.0,0.0,0.0,0.0,0.0,0.0,0.0,0.0,0.0,0.0,0.0,0.0,0.0,0.0,0.0,0.0,0.0,0.0,0.0,0.0,0.0,0.0,0.0,0.0,0.0,0.0,0.0,0.0,0.0,0.0,0.0,0.0,0.0,0.0,0.0,0.0,0.0,0.0,0.0,0.0,0.0,0.0,0.0,0.0,0.0,0.0,0.0,0.0,0.0,0.0,0.0,0.0,0.0,0.0,0.0,0.0,0.0,0.0,0.0,0.0,0.0,0.0,0.0,0.0,0.0,0.0,0.0,0.0,0.0,0.0,0.0,0.0,0.0,-0.9483,-0.9534,-0.9667,-0.983,-0.9602,-0.9957,0.0,0.0,0.0,0.0,0.0,0.0,0.0,0.0,0.0,0.0,0.0,0.0,0.0,0.0,0.0,0.0,0.0,0.0,0.0,0.0,0.0,0.0,0.0,0.0,0.0,0.0,0.0,0.0,0.0,0.0,0.0,0.0,0.0,0.0,0.0,0.0,0.0,0.0,0.0,0.0,0.0,0.0,0.0,0.0,0.0,0.0,0.0,0.0,0.0,0.0,0.0,0.0,0.0,0.0,0.0,0.0,0.0,0.0,0.0,0.0,0.0,0.0,0.0,0.0,0.0,0.0,0.0,0.0,0.0,0.0,0.0,0.0,0.0,0.0,0.0,0.0,0.0,0.0,0.0,0.0,0.0,0.0,0.0,0.0,0.0,0.0,0.0,0.0,0.0,0.0,0.0,0.0,0.0,0.0,0.0,0.0,0.0,0.0,0.0,0.0,0.0,0.0,0.0,0.0,0.0,0.0,0.0,0.0,0.0,-0.9558,-1.0447,-1.0694,-1.0107,-1.0122,-1.0301,-1.0674,0.0,0.0,0.0,0.0,0.0,0.0,0.0,0.0,0.0,0.0,0.0,0.0,0.0,0.0,0.0,0.0,0.0,0.0,0.0,0.0,0.0,0.0,0.0,0.0,0.0,0.0,0.0,0.0,0.0,0.0,0.0,0.0,0.0,0.0,0.0,0.0,0.0,0.0,0.0,0.0,0.0,0.0,0.0,0.0,0.0,0.0,0.0,0.0,0.0,0.0,0.0,0.0,0.0,0.0,0.0,0.0,0.0,0.0,0.0,0.0,0.0,0.0,0.0,0.0,0.0,0.0,0.0,0.0,0.0,0.0,0.0,0.0,0.0,0.0,0.0,0.0,0.0,0.0,0.0,0.0,0.0,0.0,0.0,0.0,0.0,0.0,0.0,0.0,0.0,0.0,0.0,0.0,0.0,0.0,0.0,0.0,0.0,0.0,0.0,0.0,0.0,0.0,0.0,0.0,0.0,0.0,0.0,0.0,-0.8916,-1.1534,-1.1954,-0.9969,-1.1032,-1.0906,0.0,0.0,0.0,0.0,0.0,0.0,0.0,0.0,0.0,0.0,0.0,0.0,0.0,0.0,0.0,0.0,0.0,0.0,0.0,0.0,0.0,0.0,0.0,0.0,0.0,0.0,0.0,0.0,0.0,0.0,0.0,0.0,0.0,0.0,0.0,0.0,0.0,0.0,0.0,0.0,0.0,0.0,0.0,0.0,0.0,0.0,0.0,0.0,0.0,0.0,0.0,0.0,0.0,0.0,0.0,0.0,0.0,0.0,0.0,0.0,0.0,0.0,0.0,0.0,0.0,0.0,0.0,0.0,0.0,0.0,0.0,0.0,0.0,0.0,0.0,0.0,0.0,0.0,0.0,0.0,0.0,0.0,0.0,0.0,0.0,0.0,0.0,0.0,0.0,0.0,0.0,0.0,0.0,0.0,0.0,0.0,0.0,0.0,0.0,0.0,0.0,0.0,0.0,0.0,0.0,0.0,0.0,0.0,0.0,-0.9057,-1.1949,-1.2673,-1.0893,-1.0037,-0.9807,0.0,0.0,0.0,0.0,0.0,0.0,0.0,0.0,0.0,0.0,0.0,0.0,0.0,0.0,0.0,0.0,0.0,0.0,0.0,0.0,0.0,0.0,0.0,0.0,0.0,0.0,0.0,0.0,0.0,0.0,0.0,0.0,0.0,0.0,0.0,0.0,0.0,0.0,0.0,0.0,0.0,0.0,0.0,0.0,0.0,0.0,0.0,0.0,0.0,0.0,0.0,0.0,0.0,0.0,0.0,0.0,0.0,0.0,0.0,0.0,0.0,0.0,0.0,0.0,0.0,0.0,0.0,0.0,0.0,0.0,0.0,0.0,0.0,0.0,0.0,0.0,0.0,0.0,0.0,0.0,0.0,0.0,0.0,0.0,0.0,0.0,0.0,0.0,0.0,0.0,0.0,0.0,0.0,0.0,0.0,0.0,0.0,0.0,0.0,0.0,0.0,0.0,0.0,0.0,0.0,0.0,0.0,0.0,-0.8307,-0.7413,-1.0043,-1.0965,-0.9995,-1.0168,-1.016,0.0,0.0,0.0,0.0,0.0,0.0,0.0,0.0,0.0,0.0,0.0,0.0,0.0,0.0,0.0,0.0,0.0,0.0,0.0,0.0,0.0,0.0,0.0,0.0,0.0,0.0,0.0,0.0,0.0,0.0,0.0,0.0,0.0,0.0,0.0,0.0,0.0,0.0,0.0,0.0,0.0,0.0,0.0,0.0,0.0,0.0,0.0,0.0,0.0,0.0,0.0,0.0,0.0,0.0,0.0,0.0,0.0,0.0,0.0,0.0,0.0,0.0,0.0,0.0,0.0,0.0,0.0,0.0,0.0,0.0,0.0,0.0,0.0,0.0,0.0,0.0,0.0,0.0,0.0,0.0,0.0,0.0,0.0,0.0,0.0,0.0,0.0,0.0,0.0,0.0,0.0,0.0,0.0,0.0,0.0,0.0,0.0,0.0,0.0,0.0,0.0,0.0,0.0,0.0,0.0,0.0,0.0,0.0,-0.5889,-0.4917,-0.6676,-0.7623,-0.7675,-1.0283,-1.0825,0.0,0.0,0.0,0.0,0.0,0.0,0.0,0.0,0.0,0.0,0.0,0.0,0.0,0.0,0.0,0.0,0.0,0.0,0.0,0.0,0.0,0.0,0.0,0.0,0.0,0.0,0.0,0.0,0.0,0.0,0.0,0.0,0.0,0.0,0.0,0.0,0.0,0.0,0.0,0.0,0.0,0.0,0.0,0.0,0.0,0.0,0.0,0.0,0.0,0.0,0.0,0.0,0.0,0.0,0.0,0.0,0.0,0.0,0.0,0.0,0.0,0.0,0.0,0.0,0.0,0.0,0.0,0.0,0.0,0.0,0.0,0.0,0.0,0.0,0.0,0.0,0.0,0.0,0.0,0.0,0.0,0.0,0.0,0.0,0.0,0.0,0.0,0.0,0.0,0.0,0.0,0.0,0.0,0.0,0.0,0.0,0.0,0.0,0.0,0.0,0.0,0.0,0.0,0.0,0.0,0.0,0.0,0.0,-0.3427,-0.2564,-0.3431,-0.3679,-0.3113,-0.6327,-0.8011,0.0,0.0,0.0,0.0,0.0,0.0,0.0,0.0,0.0,0.0,0.0,0.0,0.0,0.0,0.0,0.0,0.0,0.0,0.0,0.0,0.0,0.0,0.0,0.0,0.0,0.0,0.0,0.0,0.0,0.0,0.0,0.0,0.0,0.0,0.0,0.0,0.0,0.0,0.0,0.0,0.0,0.0,0.0,0.0,0.0,0.0,0.0,0.0,1.1119,0.0,0.0,0.0,0.0,0.0,0.0,0.0,0.0,0.0,0.0,0.0,0.0,0.0,0.0,0.0,0.0,0.0,0.0,0.0,0.0,0.0,0.0,0.0,0.0,0.0,0.0,0.0,0.0,0.0,0.0,0.0,0.0,0.0,0.0,0.0,0.0,0.0,0.0,0.0,0.0,0.0,0.0,0.0,0.0,0.0,0.0,0.0,0.0,0.0,0.0,0.0,0.0,0.0,0.0,0.0,0.0,0.0,0.0,0.0,-0.0967,-0.0148,-0.0785,-0.1081,-0.0972,-0.27,-0.4417,0.0,0.0,0.0,0.0,0.0,0.0,0.0,0.0,0.0,0.0,0.0,0.0,0.0,0.0,0.0,0.0,0.0,0.0,0.0,0.0,0.0,0.0,0.0,0.0,0.0,0.0,0.0,0.0,0.0,0.0,0.0,0.0,0.0,0.0,0.0,0.0,0.0,0.0,0.0,0.0,0.0,0.0,0.0,0.0,0.0,0.0,0.0,0.0,0.0,0.0,0.0,0.0,0.0,0.0,0.0,0.0,0.0,0.0,0.0,0.0,0.0,0.0,0.0,0.0,0.0,0.0,0.0,0.0,0.0,0.0,0.0,0.0,0.0,0.0,0.0,0.0,0.0,0.0,0.0,0.0,0.0,0.0,0.0,0.0,0.0,0.0,0.0,0.0,0.0,0.0,0.0,0.0,0.0,0.0,0.0,0.0,0.0,0.0,0.0,0.0,0.0,0.0,0.0,0.0,0.0,0.0,0.0,0.0666,0.1311,0.2054,0.1763,0.1376,0.0769,0.079,-0.0432,-0.3051,0.0,0.0,0.0,0.0,0.0,0.0,0.0,0.0,0.0,0.0,0.0,0.0,0.0,0.0,0.0,0.0,0.0,0.0,0.0,0.0,0.0,0.0,0.0,0.0,0.0,0.0,0.0,0.0,0.0,0.0,0.0,0.0,0.0,0.0,0.0,0.0,0.0,0.0,1.0405,1.1114,0.0,0.0,0.0,0.0,0.0,0.0,0.0,0.0,1.3048,0.0,0.0,0.0,0.0,0.0,0.0,0.0,0.0,0.0,0.0,0.0,0.0,0.0,0.0,0.0,0.0,0.0,0.0,0.0,0.0,0.0,0.0,0.0,0.0,0.0,0.0,0.0,0.0,0.0,0.0,0.0,0.0,0.0,0.0,0.0,0.0,0.0,0.0,0.0,0.0,0.0,0.0,0.0,0.0,0.0,0.0,0.0,0.0,0.0,0.0,0.0,0.0,0.0,0.0,0.0,0.0,0.0256,0.1672,0.2733,0.3299,0.4931,0.5245,0.42,0.462,0.3684,0.1113,0.0,0.0,0.0,0.0,0.0,0.0,0.0,0.0,0.0,0.0,0.0,0.0,0.0,0.0,0.0,0.0,0.0,0.0,0.0,0.0,0.0,0.0,0.0,0.0,0.0,0.0,0.0,0.0,0.0,0.0,0.0,0.0,0.0,0.0,0.0,0.0,0.0,0.0,0.0,1.1569,1.1857,0.0,0.0,0.0,0.0,0.0,0.0,0.0,0.0,1.3348,0.0,0.0,0.0,0.0,0.0,0.0,0.0,0.0,0.0,0.0,0.0,0.0,0.0,0.0,0.0,0.0,0.0,0.0,0.0,0.0,0.0,0.0,0.0,0.0,0.0,0.0,0.0,0.0,0.0,0.0,0.0,0.0,0.0,0.0,0.0,0.0,0.0,0.0,0.0,0.0,0.0,0.0,0.0,0.0,0.0,0.0,0.0,0.0,0.0,0.0,0.0,0.0,0.0,0.0,0.0,0.3265,0.5145,0.6112,0.6163,0.7074,0.7101,0.6077,0.5921,0.513,0.0,0.0,0.0,0.0,0.0,0.0,0.0,0.0,0.0,0.0,0.0,0.0,0.0,0.0,0.0,0.0,0.0,0.0,0.0,0.0,0.0,0.0,0.0,0.0,0.0,0.0,0.0,0.0,0.0,0.0,0.0,0.0,0.0,0.0,0.0,0.0,0.0,0.0,0.0,0.0,1.3095,1.3284,1.4837,0.0,0.0,0.0,0.0,0.0,0.0,1.4249,1.3966,0.0,0.0,0.0,0.0,0.0,0.0,0.0,0.0,0.0,0.0,0.0,0.0,0.0,0.0,0.0,0.0,0.0,0.0,0.0,0.0,0.0,0.0,0.0,0.0,0.0,0.0,0.0,0.0,0.0,0.0,0.0,0.0,0.0,0.0,0.0,0.0,0.0,0.0,0.0,0.0,0.0,0.0,0.0,0.0,0.0,0.0,0.0,0.0,0.0,0.0,0.0,0.0,0.0,0.0,0.0,0.6056,0.7967,0.8919,0.8878,0.886,0.8502,0.76,0.6766,0.5981,0.0,0.0,0.0,0.0,0.0,0.0,0.0,0.0,0.0,0.0,0.0,0.0,0.0,0.0,0.0,0.0,0.0,0.0,0.0,0.0,0.0,0.0,0.0,0.0,0.0,0.0,0.0,0.0,0.0,0.0,0.0,0.0,0.0,0.0,0.0,0.0,0.0,0.0,0.0,0.0,0.0,1.4736,1.5257,1.4785,0.0,0.0,0.0,0.0,1.4986,1.48,0.0,0.0,0.0,0.0,0.0,0.0,0.0,0.0,0.0,0.0,0.0,0.0,0.0,0.0,0.0,0.0,0.0,0.0,0.0,0.0,0.0,0.0,0.0,0.0,0.0,0.0,0.0,0.0,0.0,0.0,0.0,0.0,0.0,0.0,0.0,0.0,0.0,0.0,0.0,0.0,0.0,0.0,0.0,0.0,0.0,0.0,0.0,0.0,0.0,0.0,0.0,0.0,0.0,0.0,0.0,0.0,0.6202,0.7459,0.8722,1.0092,1.0622,1.0327,0.9241,0.832,0.7338,0.0,0.0,0.0,0.0,0.0,0.0,0.0,0.0,0.0,0.0,0.0,0.0,0.0,0.0,0.0,0.0,0.0,0.0,0.0,0.0,0.0,0.0,0.0,0.0,0.0,0.0,0.0,0.0,0.0,0.0,0.0,0.0,0.0,0.0,0.0,0.0,0.0,0.0,0.0,0.0,0.0,1.4956,1.5438,1.4834,1.4506,0.0,0.0,1.5851,1.5924,1.6155,0.0,0.0,0.0,0.0,0.0,0.0,0.0,0.0,0.0,0.0,0.0,0.0,0.0,0.0,0.0,0.0,0.0,0.0,0.0,0.0,0.0,0.0,0.0,0.0,0.0,0.0,0.0,0.0,0.0,0.0,0.0,0.0,0.0,0.0,0.0,0.0,0.0,0.0,0.0,0.0,0.0,0.0,0.0,0.0,0.0,0.0,0.0,0.0,0.0,0.0,0.0,0.0,0.0,0.0,0.0,0.7258,0.8366,1.0206,1.1342,1.1728,1.1738,1.1399,1.0689,0.9096,0.7963,0.0,0.0,0.0,0.0,0.0,0.0,0.0,0.0,0.0,0.0,0.0,0.0,0.0,0.0,0.0,0.0,0.0,0.0,0.0,0.0,0.0,0.0,0.0,0.0,0.0,0.0,0.0,0.0,0.0,0.0,0.0,0.0,0.0,0.0,0.0,0.0,0.0,0.0,0.0,0.0,0.0,0.0,1.5468,1.525,0.0,0.0,0.0,1.5824,1.5608,0.0,0.0,0.0,0.0,0.0,0.0,0.0,0.0,0.0,0.0,0.0,0.0,0.0,0.0,0.0,0.0,0.0,0.0,0.0,0.0,0.0,0.0,0.0,0.0,0.0,0.0,0.0,0.0,0.0,0.0,0.0,0.0,0.0,0.0,0.0,0.0,0.0,0.0,0.0,0.0,0.0,0.0,0.0,0.0,0.0,0.0,0.0,0.0,0.0,0.0,0.0,0.0,0.0,0.0,0.0,0.0,0.0,1.0359,1.2528,1.3558,1.3301,1.2822,1.2482,1.2308,1.0383,0.0,0.0,0.0,0.0,0.0,0.0,0.0,0.0,0.0,0.0,0.0,0.0,0.0,0.0,0.0,0.0,0.0,0.0,0.0,0.0,0.0,0.0,0.0,0.0,0.0,0.0,0.0,1.1495,0.0,0.0,0.0,0.0,0.0,0.0,0.0,0.0,0.0,0.0,0.0,0.0,0.0,0.0,1.6454,1.5476,1.5627,1.5925,0.0,0.0,1.5765,1.5649,1.6222,1.6402,0.0,0.0,0.0,0.0,0.0,0.0,0.0,0.0,0.0,0.0,0.0,0.0,0.0,0.0,0.0,0.0,0.0,0.0,0.0,0.0,0.0,0.0,0.0,0.0,0.0,0.0,0.0,0.0,0.0,0.0,0.0,0.0,0.0,0.0,0.0,0.0,0.0,0.0,0.0,0.0,0.0,0.0,0.0,0.0,0.0,0.0,0.0,0.0,0.0,0.0,0.0,0.0,0.0,0.0,1.0156,1.1479,1.3065,1.419,1.4709,1.4186,1.3999,1.4283,1.2646,1.1492,0.0,0.0,0.0,0.0,0.0,0.0,0.0,0.0,0.0,0.0,0.0,0.0,0.0,0.0,0.0,0.0,0.0,0.0,0.0,0.0,0.0,0.0,0.0,0.0,0.0,0.0,0.0,0.0,0.0,0.0,0.0,0.0,0.0,0.0,0.0,0.0,0.0,0.0,0.0,0.0,0.0,1.7353,1.5496,1.5711,1.6271,0.0,1.6434,1.6244,1.6797,1.7394,1.7342,1.6147,0.0,0.0,0.0,0.0,0.0,0.0,0.0,0.0,0.0,0.0,0.0,0.0,0.0,0.0,0.0,0.0,0.0,0.0,0.0,0.0,0.0,0.0,0.0,0.0,0.0,0.0,0.0,0.0,0.0,0.0,0.0,0.0,0.0,0.0,0.0,0.0,0.0,0.0,0.0,0.0,0.0,0.0,0.0,0.0,0.0,0.0,0.0,0.0,0.0,0.0,0.0,0.0,0.0,1.1524,1.1557,1.3891,1.5197,1.5433,1.496,1.4869,1.5152,1.3674,1.2397,0.0,0.0,0.0,0.0,0.0,0.0,0.0,0.0,0.0,0.0,0.0,0.0,0.0,0.0,0.0,0.0,0.0,0.0,0.0,0.0,0.0,0.0,0.0,0.0,0.0,0.0,0.0,0.0,1.5956,1.662,1.6268,0.0,0.0,0.0,0.0,0.0,0.0,0.0,0.0,0.0,0.0,1.6736,1.6349,1.6512,0.0,0.0,1.681,1.6607,1.6471,1.6894,1.6829,1.5667,1.5456,0.0,0.0,0.0,0.0,0.0,0.0,0.0,0.0,0.0,0.0,0.0,0.0,0.0,0.0,0.0,0.0,0.0,0.0,0.0,0.0,0.0,0.0,0.0,0.0,0.0,0.0,0.0,0.0,0.0,0.0,0.0,0.0,0.0,0.0,0.0,0.0,0.0,0.0,0.0,0.0,0.0,0.0,0.0,0.0,0.0,0.0,0.0,0.0,0.0,0.0,0.0,0.0,1.2651,1.2187,1.4696,1.582,1.5522,1.5353,1.5297,1.552,1.4653,1.3664,0.0,0.0,0.0,0.0,0.0,0.0,0.0,0.0,0.0,0.0,0.0,0.0,0.0,0.0,0.0,0.0,0.0,0.0,0.0,0.0,0.0,0.0,0.0,0.0,0.0,0.0,0.0,0.0,1.6964,1.7321,1.7192,0.0,0.0,0.0,0.0,0.0,0.0,0.0,0.0,0.0,0.0,1.6729,1.6973,1.7,1.7054,1.7231,1.6959,1.6647,1.6417,1.6677,1.6494,1.5497,0.0,0.0,0.0,0.0,0.0,0.0,0.0,0.0,0.0,0.0,0.0,0.0,0.0,0.0,0.0,0.0,0.0,0.0,0.0,0.0,0.0,0.0,0.0,0.0,0.0,0.0,0.0,1.5207,0.0,0.0,1.5187,0.0,0.0,0.0,0.0,0.0,0.0,0.0,0.0,0.0,0.0,0.0,0.0,0.0,0.0,0.0,0.0,0.0,0.0,0.0,0.0,0.0,0.0,1.3233,1.3655,1.5496,1.5996,1.4994,1.5175,1.5377,1.5466,1.5816,1.5615,1.4684,0.0,0.0,0.0,0.0,0.0,0.0,0.0,0.0,0.0,0.0,0.0,0.0,0.0,0.0,0.0,0.0,0.0,0.0,0.0,0.0,0.0,0.0,0.0,0.0,0.0,0.0,1.4885,1.5855,1.6885,0.0,0.0,0.0,0.0,0.0,0.0,0.0,0.0,0.0,1.5366,1.6729,1.7638,1.7095,1.7014,1.7217,1.7773,1.6905,1.6335,1.6878,1.6973,1.6745,0.0,0.0,0.0,0.0,0.0,0.0,0.0,0.0,0.0,0.0,0.0,0.0,0.0,0.0,0.0,0.0,0.0,0.0,0.0,0.0,0.0,0.0,0.0,0.0,0.0,0.0,0.0,1.605,1.6052,0.0,0.0,0.0,0.0,0.0,0.0,0.0,0.0,0.0,0.0,0.0,1.828,1.8504,0.0,0.0,0.0,0.0,0.0,0.0,0.0,0.0,0.0,0.0,0.0,0.0,1.4188,1.4207,1.6125,1.6879,1.6324,1.6625,1.6697,1.6582,1.6752,1.623,1.4967,0.0,0.0,0.0,0.0,0.0,0.0,0.0,0.0,0.0,0.0,0.0,0.0,0.0,0.0,0.0,0.0,0.0,0.0,0.0,0.0,0.0,0.0,0.0,0.0,0.0,1.6896,0.0,0.0,0.0,0.0,0.0,0.0,0.0,0.0,0.0,0.0,0.0,1.7022,1.7353,1.758,1.7675,1.7596,1.7504,1.7531,0.0,0.0,0.0,0.0,0.0,0.0,0.0,0.0,0.0,0.0,0.0,0.0,0.0,0.0,1.5267,1.4965,1.5154,1.5421,1.56,0.0,0.0,0.0,0.0,0.0,0.0,0.0,0.0,0.0,0.0,0.0,0.0,0.0,0.0,1.7873,0.0,1.7531,0.0,0.0,0.0,0.0,0.0,0.0,0.0,0.0,1.8928,1.9685,2.0084,2.0326,1.9984,0.0,1.847,1.7117,0.0,0.0,0.0,0.0,0.0,0.0,0.0,0.0,1.5098,1.4852,1.6678,1.738,1.6808,1.7115,1.7227,1.6989,1.7115,1.6751,1.5774,1.5038,1.4197,0.0,0.0,0.0,0.0,0.0,0.0,0.0,0.0,0.0,0.0,0.0,0.0,0.0,0.0,0.0,0.0,0.0,0.0,0.0,0.0,0.0,0.0,0.0,1.7748,0.0,0.0,0.0,0.0,0.0,0.0,0.0,0.0,0.0,1.6972,1.7311,1.7809,1.8327,1.8247,1.8115,1.804,0.0,0.0,0.0,0.0,0.0,0.0,0.0,1.6544,1.6144,1.634,1.6483,1.6305,1.6153,1.6118,1.6118,0.0,0.0,1.563,1.5748,1.6012,1.6177,1.6106,1.5962,1.5976,1.5931,1.5798,0.0,0.0,0.0,0.0,0.0,0.0,0.0,0.0,2.0321,2.0308,0.0,1.951,0.0,0.0,0.0,0.0,0.0,1.9685,0.0,0.0,2.2316,2.2928,2.1943,2.1523,2.1413,2.1455,2.0154,1.9411,1.9146,1.7121,0.0,0.0,0.0,0.0,0.0,0.0,1.584,1.5737,1.7231,1.7517,1.6441,1.6808,1.6863,1.6552,1.6989,1.7186,1.7173,1.6663,1.6388,1.6349,1.5288,0.0,0.0,0.0,0.0,0.0,0.0,0.0,0.0,0.0,0.0,0.0,0.0,0.0,0.0,0.0,0.0,0.0,0.0,0.0,0.0,1.8065,0.0,0.0,0.0,0.0,0.0,0.0,0.0,0.0,0.0,0.0,1.7548,1.7905,1.8235,1.8264,0.0,0.0,0.0,0.0,1.8319,1.7842,1.7248,1.6871,1.6846,1.6729,1.6651,1.6638,0.0,0.0,1.7097,1.6552,1.6213,1.6186,1.6623,1.6851,1.6244,1.6016,1.6027,1.6441,1.6188,1.5989,1.6374,1.638,1.6217,2.2684,0.0,0.0,0.0,0.0,2.0053,2.0501,2.1255,2.1124,2.1058,2.1014,2.068,0.0,0.0,0.0,0.0,0.0,0.0,1.9955,2.0813,2.132,2.2033,2.2941,2.267,2.2436,2.2262,2.1746,2.1407,2.1176,2.0358,1.8535,1.574,0.0,0.0,0.0,0.0,1.701,1.7398,1.8332,1.8408,1.7626,1.7706,1.753,1.7018,1.7115,1.7212,1.7212,1.7042,1.6794,1.6402,1.6331,0.0,0.0,0.0,0.0,0.0,0.0,0.0,0.0,0.0,0.0,0.0,0.0,0.0,0.0,0.0,0.0,0.0,0.0,0.0,1.8342,1.8508,1.8559,0.0,0.0,0.0,0.0,0.0,0.0,0.0,0.0,0.0,1.9041,1.9411,1.9567,0.0,0.0,1.9347,1.8936,1.8808,1.8717,1.8514,1.8243,0.0,1.7583,1.7544,1.7504,1.7263,1.7599,1.7747,1.7545,1.7449,1.7327,1.7262,1.7397,1.7397,1.717,1.7195,1.7289,1.745,1.7356,1.7289,1.7424,1.7435,1.7366,2.4311,2.2408,2.2023,2.1852,2.1871,2.1874,2.2315,2.305,2.2882,2.2819,2.2775,2.2305,2.1739,2.1159,2.1223,0.0,0.0,0.0,2.1059,2.2106,2.1766,2.2159,2.3098,2.2712,2.249,2.2409,2.1986,2.1751,2.1705,2.1157,1.97,1.7453,0.0,0.0,1.6396,1.7272,1.7855,1.8057,1.8582,1.8553,1.7948,1.7868,1.7625,1.7253,1.7212,1.7212,1.7212,1.7352,1.7288,1.6957,1.712,1.6904,0.0,0.0,0.0,0.0,0.0,0.0,0.0,0.0,0.0,0.0,0.0,1.6483,1.6533,0.0,0.0,0.0,1.847,1.9065,1.9498,1.9399,0.0,0.0,0.0,0.0,0.0,0.0,0.0,1.9458,1.9621,1.9823,1.9929,2.0166,2.0185,1.9975,1.994,1.9762,1.931,0.0,1.9058,1.886,1.8693,1.8461,1.8147,1.8147,1.8147,1.7962,1.8042,1.8109,1.7922,1.7949,1.7922,1.7706,1.7625,1.7625,1.7584,1.7706,1.7842,1.7842,1.7882,1.7922,1.7922,1.7922,1.7922,2.546,2.5337,2.4571,2.4234,2.4196,2.4174,2.459,2.5252,2.5024,2.4994,2.4987,2.4098,2.3539,2.3265,2.2327,0.0,2.3033,2.2786,2.2989,2.3606,2.3133,2.285,2.2764,2.2186,2.1998,2.222,2.1323,2.1055,2.1308,2.0399,1.9878,1.9909,1.9815,1.9249,1.8267,1.8489,1.8475,1.818,1.8512,1.8372,1.7842,1.7597,1.7432,1.731,1.731,1.7282,1.7282,1.7639,1.7841,1.7747,1.7737,1.7738,1.7675,0.0,0.0,0.0,0.0,0.0,0.0,0.0,0.0,0.0,0.0,0.0,0.0,0.0,0.0,0.0,1.9935,0.0,2.0781,2.0398,0.0,0.0,0.0,1.9704,1.9624,2.0137,2.046,2.0339,0.0,0.0,2.0304,2.0304,2.0304,2.0304,2.0304,2.0115,1.9624,1.9566,1.9369,1.9011,1.8784,1.8655,1.8539,1.8461,1.8422,1.8514,1.8592,1.8528,1.8307,1.8268,1.8055,1.772,1.7598,1.7639,1.7747,1.776,1.772,1.772,1.7801,1.7922,1.7922,1.7922,1.7922,2.546,2.5387,2.5127,2.5024,2.4995,2.4856,2.4897,2.5053,2.4795,2.4716,2.4697,2.4527,2.4364,2.4238,2.3912,2.3639,2.3464,2.334,2.3226,2.3084,2.2902,2.2816,2.279,2.2659,2.2561,2.2517,2.1998,2.1764,2.1794,2.1131,2.0783,2.0799,2.0606,2.0033,1.9055,1.9096,1.9299,1.9612,1.9814,1.9639,1.8997,1.8553,1.8279,1.8187,1.8201,1.8042,1.7666,1.8121,1.8042,1.738,1.8307,1.8461,1.7681,1.8115,0.0,0.0,0.0,0.0,0.0,0.0,0.0,0.0,0.0,1.8682,1.8454,0.0,1.9374,0.0,2.0242,2.0734,2.0763,2.0178,0.0,0.0,1.9987,1.9829,2.0215,2.04,2.0475,2.0373,2.0373,2.0354,2.0304,2.0304,2.0304,2.0304,2.0304,2.027,2.0131,2.003,1.9925,1.9732,1.9369,1.8945,1.8664,1.833,1.8266,1.8461,1.8655,1.8707,1.8514,1.8592,1.8592,1.8514,1.85,1.8383,1.8054,1.8054,1.8002,1.7801,1.7801,1.7922,1.7922,1.7922,1.7922,2.541,2.5367,2.5332,2.5313,2.5303,2.5182,2.5149,2.5126,2.4883,2.4785,2.4818,2.4753,2.465,2.4537,2.4358,2.4135,2.3955,2.3692,2.3495,2.333,2.3102,2.297,2.2919,2.2651,2.2517,2.2446,2.2084,2.1932,2.1893,2.1573,2.1326,2.1199,2.107,2.0654,1.9999,1.9851,1.987,2.0,1.9889,1.9617,1.9147,1.8846,1.8412,1.7876,1.7977,1.7685,1.7016,1.7572,1.7595,1.6975,1.7971,1.832,1.7791,1.8441,1.8721,0.0,0.0,0.0,0.0,0.0,0.0,0.0,0.0,0.0,0.0,0.0,2.0225,2.0208,2.0589,2.0794,2.0695,2.0283,2.0172,2.0563,2.0299,2.0172,2.0429,2.0494,2.046,2.0354,2.0339,2.0354,2.0304,2.0304,2.0304,2.0304,2.0304,2.027,2.022,2.015,2.01,2.0045,1.9711,1.9369,1.9118,1.8907,1.8808,1.8997,1.9161,1.9161,1.8921,1.8822,1.8731,1.8525,1.8319,1.8201,1.8173,1.8159,1.8133,1.8121,1.8095,1.8095,1.7963,1.7922,1.7922,2.5365,2.5313,2.5313,2.5313,2.5303,2.5302,2.5301,2.5241,2.5056,2.5006,2.5057,2.4779,2.4631,2.4497,2.4266,2.421,2.4321,2.3896,2.3732,2.3774,2.3348,2.3119,2.3028,2.251,2.2248,2.2248,2.1969,2.1847,2.1845,2.1817,2.1653,2.136,2.1343,2.1151,2.086,2.0595,2.0277,1.9969,1.9479,1.9124,1.8974,1.8864,1.8323,1.7315,1.7427,1.7174,1.6332,1.6929,1.7165,1.6902,1.7625,1.8071,1.81,1.848,1.9201,0.0,1.9649,0.0,0.0,0.0,0.0,0.0,0.0,0.0,0.0,2.0744,2.0761,2.0677,2.0844,2.0845,2.0579,2.0561,2.0561,2.0613,2.0662,2.066,2.0491,2.046,2.0426,2.0289,2.0304,2.0304,2.0304,2.0304,2.0304,2.0304,2.0304,2.0235,2.015,2.0115,2.008,2.0025,1.9884,1.9654,1.9566,1.9566,1.9581,1.9639,1.969,1.969,1.9332,1.9124,1.8793,1.8472,1.8173,1.8016,1.8344,1.833,1.8291,1.8344,1.8358,1.824,1.8003,1.7922,1.7922,2.5403,2.5293,2.5313,2.5313,2.5303,2.5303,2.5203,2.5053,2.4904,2.4883,2.4915,2.466,2.4596,2.4651,2.4497,2.4303,2.4071,2.3753,2.3482,2.3236,2.2917,2.279,2.2764,2.2659,2.2615,2.2588,2.2281,2.213,2.2116,2.1919,2.1777,2.1694,2.1462,2.1277,2.1183,0.0,0.0,0.0,2.005,1.9854,1.9762,1.9251,1.8802,1.8446,1.8078,0.0,1.7791,1.8234,1.8399,1.8271,1.9087,0.0,0.0,0.0,0.0,0.0,0.0,0.0,0.0,0.0,0.0,0.0,2.0475,2.0577,2.0693,2.0726,2.0726,2.0677,2.0628,2.0679,2.0893,2.0861,2.0926,2.1198,2.1007,2.0827,2.0728,2.0494,2.0339,2.0304,2.0304,2.0304,2.0304,2.0304,2.0304,2.0304,2.0304,2.0235,2.01,2.0115,2.015,2.02,1.9833,1.9442,1.9317,1.9273,1.9435,1.9654,1.9726,1.9726,1.9675,1.9603,1.9566,1.953,1.9581,1.9325,1.9011,1.8936,1.8745,1.8149,1.8029,1.7989,1.7922,1.7922,1.7922,2.5357,2.5313,2.5313,2.5313,0.0,2.5313,2.5234,2.5141,2.5065,2.5216,2.5442,2.4861,2.48,2.5166,2.4558,2.4266,2.4171,2.3777,2.3566,2.3477,2.3067,2.2893,2.2893,2.2764,2.2712,2.2685,2.2517,2.2453,2.2449,2.2287,2.2101,2.1811,2.1648,2.1371,2.1055,2.081,2.0595,2.0494,2.0289,2.015,2.003,1.971,1.9239,1.8668,1.8537,0.0,0.0,0.0,0.0,0.0,0.0,0.0,0.0,1.9209,0.0,2.0273,2.0304,2.0304,2.0304,2.0304,2.0407,2.0628,2.0844,2.0942,2.1006,2.086,2.0893,2.1071,2.0811,2.0712,2.0877,2.0712,2.0679,2.0844,2.0712,2.0628,2.0561,2.0441,2.0339,2.0304,2.0304,2.0304,2.0304,2.0304,2.0304,2.0304,2.0304,2.027,2.022,2.0185,2.0235,2.022,1.994,1.9639,1.9515,1.9457,1.9472,1.9726,1.9848,1.9869,1.994,1.9782,1.9726,1.9812,1.9639,1.9406,1.942,1.9347,1.9199,1.8898,1.8784,1.863,1.8293,1.8029,1.7922,2.5332,2.5313,2.5332,2.5293,2.5313,2.5313,2.537,2.5465,0.0,0.0,0.0,2.5227,2.5174,2.5647,2.4783,2.4395,2.4375,2.3901,2.3756,2.3896,2.3348,2.3102,2.3095,2.2842,2.2712,2.2712,2.2712,2.2712,2.2712,2.2712,2.2466,2.1976,2.1847,2.1462,2.0827,2.0595,2.0494,2.0494,2.0373,2.022,2.01,1.9993,1.9485,1.8634,1.8767,1.8528,1.7832,1.8059,1.812,1.7966,1.8273,1.819,1.7685,1.8785,1.9718,2.0258,2.0304,2.0339,2.0373,2.0373,2.0561,2.0958,2.123,2.1355,2.134,2.1135,2.1087,2.137,2.1039,2.0811,2.081,2.0561,2.0392,2.0475,2.0543,2.0543,2.0509,2.0543,2.0543,2.0392,2.0392,2.0373,2.0304,2.0304,2.0304,2.0304,2.0304,2.0304,2.0304,2.027,2.027,2.0185,2.0061,1.9955,1.9869,1.9762,1.9797,1.9833,1.9955,2.0025,2.003,1.9904,1.9777,1.9797,1.9406,1.9369,1.9603,1.9603,1.9581,1.9566,1.9566,1.9465,1.8912,1.8526,1.8247,2.5437,2.5389,2.5389,2.5351,2.5313,2.5313,2.5625,2.6078,2.5311,2.5384,2.6052,2.5733,2.5596,2.5707,2.5541,2.5133,2.4465,2.4098,2.3979,2.3976,2.3387,2.3098,2.3095,2.2816,2.2712,2.2712,2.2712,2.2712,2.2712,2.2712,2.2632,2.2515,2.2061,2.1479,2.086,2.0595,2.0494,2.0494,2.0254,2.0115,2.01,1.955,1.9165,1.901,1.8572,1.8527,1.8873,1.8921,1.9195,1.971,1.9791,1.9791,1.9856,2.002,2.0212,2.0304,2.0304,2.0407,2.0695,2.0728,2.0925,2.1293,2.1339,2.137,2.1462,2.137,2.1245,2.1023,2.0926,2.0877,2.0794,2.0761,2.0844,2.1087,2.1134,2.1182,2.1119,2.1119,2.1007,2.0728,2.0728,2.0595,2.0373,2.0304,2.0339,2.0304,2.0304,2.0304,2.0304,2.0304,2.0304,2.027,2.0185,2.008,2.0045,1.999,1.9975,2.0045,2.0025,2.0025,2.0115,2.001,1.9975,2.0045,1.9925,1.9854,1.9747,1.9675,1.9596,1.9443,1.9435,1.9418,1.9769,1.9767,1.9333,2.5901,2.5416,2.5379,2.5389,2.537,2.5813,2.6392,2.6937,2.6474,2.6662,2.7196,2.6635,2.6358,2.6303,2.5894,2.5262,2.4482,2.4154,2.3981,2.3958,2.3369,2.3105,2.3077,2.2816,2.2712,2.2712,2.2712,2.2712,2.2712,2.2712,2.2599,2.2417,2.2005,2.1631,2.1355,2.115,2.1039,2.1055,2.0663,2.0392,2.022,2.0082,1.9911,1.9759,1.9451,1.9451,1.9743,1.9759,1.9878,2.022,2.0185,2.0235,2.0304,2.0475,2.0592,2.0642,2.0761,2.0893,2.1055,2.123,2.1355,2.1339,2.1661,2.1781,2.1675,2.1462,2.1276,2.1182,2.115,2.1103,2.1087,2.1055,2.1119,2.1276,2.1308,2.1214,2.1055,2.1039,2.0877,2.0595,2.0695,2.0728,2.061,2.0577,2.0577,2.0561,2.0426,2.0304,2.0304,2.0304,2.0304,2.027,2.0185,2.0115,2.01,2.001,2.0025,2.0115,2.008,2.008,2.0185,2.0166,2.0166,2.0185,2.022,2.015,2.001,2.0025,2.0076,2.033,2.0302,2.052,2.0822,2.0558,1.9915,2.6685,2.603,2.6004,2.5986,2.5996,2.64,2.7102,2.7847,2.7771,2.8077,2.8461,2.7606,2.7176,2.7083,2.6507,2.5801,2.5059,2.4764,2.4647,2.4566,2.4001,2.3713,2.3678,2.3389,2.3229,2.3229,2.3229,2.3126,2.298,2.2953,2.2684,2.2241,2.2,2.1869,2.1781,2.1615,2.1507,2.1493,2.1198,2.086,2.0441,2.0662,2.0644,2.0323,2.0357,2.0407,2.0407,2.0494,2.0527,2.0527,2.0527,2.0462,2.0345,2.0613,2.081,2.0793,2.0958,2.1119,2.1214,2.157,2.1691,2.1462,2.1961,2.2152,2.1827,2.1554,2.1432,2.1479,2.1448,2.137,2.1308,2.1276,2.1308,2.1291,2.137,2.1339,2.1071,2.1071,2.1023,2.0745,2.0844,2.107,2.1101,2.0955,2.0777,2.0644,2.0475,2.0304,2.0304,2.0304,2.0304,2.027,2.022,2.0135,2.015,2.0115,2.0096,2.0135,2.015,2.0185,2.0254,2.0304,2.0304,2.0304,2.0304,2.027,2.027,2.027,2.0454,2.0753,2.0799,2.1069,2.1356,2.0938,2.0435,2.7907,2.784,2.7709,2.773,2.7576,2.6929,2.7466,2.8681,2.8763,2.9136,2.9553,2.8503,2.7994,2.7994,2.7883,2.7362,2.6618,2.6637,2.6523,2.6309,2.5878,2.5589,2.544,2.4993,2.4798,2.4758,2.4741,2.4348,2.3753,2.3698,2.3179,2.2298,2.2175,2.2039,2.184,2.1658,2.1568,2.1524,2.1705,2.1479,2.0794,2.0794,2.0628,2.0304,2.0595,2.0761,2.0761,2.1055,2.1214,2.1197,2.1182,2.0911,2.0426,2.0618,2.0662,2.0407,2.0392,2.0527,2.086,2.1448,2.1781,2.1797,2.2077,2.2152,2.1857,2.1797,2.1751,2.1751,2.1768,2.1584,2.137,2.1339,2.137,2.1401,2.1584,2.1721,2.1708,2.1991,2.202,2.1708,2.162,2.1831,2.2005,2.1405,2.0742,2.0441,2.0339,2.0304,2.0304,2.0304,2.0304,2.0304,2.027,2.027,2.027,2.027,2.027,2.027,2.027,2.027,2.0304,2.0304,2.0304,2.0304,2.0304,2.0304,2.0304,2.0304,2.0335,2.0643,2.0705,2.067,2.1157,2.1237,2.1084,2.8546,2.8113,2.8038,2.8271,2.8578,2.828,2.8717,2.9574,2.9631,2.9736,2.9813,2.9232,2.8746,2.8297,2.8145,2.7678,2.6935,2.6897,2.6822,2.6665,2.6352,2.6149,2.6003,2.5699,2.5535,2.5509,2.5347,2.5066,2.47,2.4115,2.3584,2.3134,2.2713,2.2453,2.2326,2.2243,2.2141,2.2101,2.2147,2.1945,2.1479,2.1386,2.123,2.0974,2.1023,2.1087,2.1087,2.1071,2.1007,2.1007,2.0811,2.0581,2.0317,2.0614,2.0728,2.0628,2.0974,2.1324,2.1678,2.1961,2.202,2.1811,2.2135,2.222,2.1899,2.2049,2.2163,2.2175,2.1974,2.1721,2.1615,2.1751,2.1903,2.1915,2.202,2.202,2.1827,2.1915,2.1886,2.1617,2.2071,2.2401,2.2264,2.1772,2.1101,2.0497,2.0304,2.0304,2.0304,2.0304,2.0304,2.0304,2.0304,2.0304,2.0304,2.0304,2.0304,2.0304,2.0304,2.0304,2.0304,2.0304,2.0304,2.0304,2.0304,2.0304,2.0304,2.0335,2.0381,2.0643,2.1306,2.1563,2.184,2.1563,2.1476,2.9414,2.8818,2.8481,2.883,2.9545,2.9303,2.9561,3.0119,3.0182,3.0128,3.0026,2.9817,2.9394,2.8834,2.8558,2.8104,2.7641,2.7585,2.7507,2.7348,2.7138,2.6977,2.6861,2.6602,2.6494,2.6468,2.6197,2.5882,2.5527,2.4637,2.4018,2.3753,2.3254,2.2919,2.272,2.2659,2.2596,2.2487,2.246,2.2248,2.1974,2.1945,2.1721,2.1339,2.1308,2.1308,2.1308,2.1071,2.0942,2.0958,2.0679,2.0527,2.0441,2.0761,2.1021,2.1245,2.171,2.2079,2.235,2.2466,2.2336,2.1978,2.222,2.2304,2.2163,2.2265,2.2422,2.2415,2.2147,2.1974,2.2003,2.218,2.231,2.231,2.2327,2.2197,2.1974,2.1945,2.1953,2.1958,2.2495,2.2684,2.2295,2.207,2.1717,2.0574,2.0304,2.0304,2.0304,2.0304,2.0304,2.0304,2.0304,2.0304,2.0304,2.0304,2.0304,2.0304,2.0304,2.0304,2.0304,2.0304,2.0304,2.0304,2.0304,2.0304,2.0304,2.035,2.0381,2.0905,2.1399,2.167,2.1507,2.1275,2.1383,3.0665,3.0433,2.9605,2.9726,3.0463,2.9619,2.9679,3.0367,3.0367,3.0367,3.033,3.0136,2.9988,2.9758,2.942,2.9295,2.924,2.9165,2.9066,2.8901,2.8659,2.8543,2.8485,2.8174,2.7969,2.7879,2.7607,2.7035,2.6122,2.5333,2.4546,2.3857,2.3788,2.3392,2.2858,2.2754,2.2649,2.2515,2.2487,2.2405,2.2265,2.2265,2.1945,2.1401,2.1308,2.1339,2.1339,2.1308,2.1276,2.1276,2.1229,2.1087,2.0844,2.1103,2.1616,2.2232,2.2411,2.2524,2.2619,2.2865,2.2778,2.2207,2.2349,2.246,2.2377,2.236,2.2432,2.2405,2.2377,2.2349,2.2349,2.2349,2.2366,2.231,2.2327,2.2282,2.2288,2.2327,2.262,2.3055,2.3098,2.2801,2.2088,2.2441,2.1921,2.0829,2.0304,2.0304,2.0339,2.0339,2.0304,2.0304,2.0304,2.0304,2.0304,2.0304,2.0304,2.0304,2.0304,2.0304,2.0304,2.0304,2.0304,2.0304,2.0304,2.0304,2.0304,2.0304,2.032,2.0505,2.0551,2.069,2.0905,2.0551,2.0674,3.0766,3.0674,3.0346,3.036,3.0556,3.0238,3.0211,3.039,3.0398,3.0398,3.0367,3.0196,3.0022,2.9886,2.9626,2.9472,2.9407,2.9365,2.9283,2.9178,2.9075,2.9003,2.891,2.8845,2.8803,2.8755,2.8482,2.7913,2.7116,2.6177,2.5574,2.5264,2.477,2.4178,2.3557,2.3392,2.3158,2.2603,2.2525,2.246,2.2377,2.231,2.2077,2.1678,2.1631,2.1721,2.1915,2.154,2.1401,2.1615,2.1432,2.1245,2.1183,2.1682,2.2443,2.3341,2.3521,2.3632,2.3866,2.3613,2.3345,2.3056,2.2726,2.2586,2.2542,2.2542,2.2542,2.2586,2.2559,2.2542,2.2515,2.246,2.2394,2.2366,2.2355,2.2513,2.2868,2.3021,2.3291,2.3938,2.4111,2.3884,2.3054,2.2888,2.228,2.0926,2.0441,2.0407,2.0527,2.046,2.0304,2.0304,2.0304,2.0304,2.0304,2.0304,2.0304,2.0304,2.0304,2.0304,2.0304,2.0304,2.0304,2.0304,2.0304,2.0304,2.0304,2.0304,2.0304,2.0304,2.0304,2.0304,2.032,2.0304,2.0412,3.0773,3.074,3.0737,3.0691,3.061,3.0605,3.0518,3.039,3.0398,3.0398,3.0367,3.0273,3.0099,2.9902,2.9769,2.957,2.9407,2.9304,2.9262,2.92,2.9218,2.9175,2.913,2.9156,2.9197,2.9089,2.8725,2.8219,2.766,2.6883,2.6368,2.6074,2.5574,2.4833,2.3977,2.3788,2.3399,2.2743,2.2552,2.2487,2.2432,2.2366,2.2237,2.202,2.1886,2.1857,2.1974,2.1524,2.1401,2.1587,2.1644,2.1809,2.2165,2.2638,2.3472,2.4443,2.4688,2.4831,2.5026,2.447,2.4041,2.4036,2.3429,2.3062,2.3292,2.3361,2.3371,2.3371,2.3371,2.3344,2.3344,2.3294,2.3005,2.262,2.2598,2.2863,2.3371,2.3625,2.4039,2.4557,2.5046,2.4725,2.3746,2.3256,2.2412,2.1166,2.0695,2.0595,2.0695,2.0527,2.0304,2.0304,2.0304,2.0304,2.0304,2.0304,2.0304,2.0304,2.0304,2.0304,2.0304,2.0304,2.0304,2.0304,2.0304,2.0304,2.0304,2.0304,2.0304,2.0304,2.0304,2.0304,2.0304,2.0304,2.0474,3.079,3.0793,3.0798,3.0711,3.0614,3.0613,3.0509,3.0425,3.039,3.0398,3.0398,3.0379,3.0207,2.995,2.9869,2.9717,2.9429,2.9323,2.9262,2.92,2.9218,2.9156,2.9112,2.9197,2.9156,2.9026,2.8438,2.7982,2.7683,2.7348,2.6851,2.6264,2.6178,2.5454,2.3891,2.4012,2.3553,2.2949,2.2767,2.2654,2.2532,2.2466,2.2349,2.2276,2.2003,2.1705,2.1401,2.1402,2.1484,2.1547,2.2117,2.29,2.3752,2.4031,2.4575,2.552,2.5863,2.5956,2.5935,2.5377,2.4976,2.4873,2.4253,2.4035,2.4505,2.466,2.4677,2.4643,2.4694,2.478,2.4787,2.4694,2.4173,2.2925,2.3181,2.3544,2.3735,2.4164,2.4637,2.5096,2.5677,2.5269,2.399,2.3432,2.2815,2.1665,2.0974,2.0745,2.0827,2.0561,2.0339,2.0304,2.0304,2.0304,2.0304,2.0304,2.0304,2.0304,2.0304,2.0304,2.0304,2.0304,2.0304,2.0304,2.0304,2.0304,2.0304,2.0304,2.0304,2.0304,2.0304,2.0397,2.0551,2.0628,2.0628,3.0828,3.0866,3.0821,3.0743,3.0661,3.0626,3.0548,3.0462,3.0425,3.0398,3.0398,3.0398,3.0221,2.995,2.9902,2.9717,2.9407,2.9344,2.9262,2.9218,2.9218,2.9178,2.9178,2.9283,2.9141,2.8808,2.8394,2.801,2.7683,2.7465,2.7189,2.6985,2.6964,2.6415,2.5402,2.5385,2.5011,2.4304,2.368,2.335,2.3254,2.2733,2.2321,2.2089,2.2106,2.1991,2.1694,2.2123,2.251,2.2709,2.3441,2.424,2.4925,2.519,2.5624,2.6465,2.6696,2.6791,2.6802,2.6199,2.5747,2.5626,2.5057,2.4781,2.4925,2.5011,2.5028,2.5011,2.4976,2.4976,2.4976,2.4976,2.4729,2.4207,2.4228,2.4479,2.4924,2.5522,2.5999,2.6152,2.637,2.5698,2.4348,2.3819,2.3243,2.1913,2.1198,2.0909,2.1007,2.0662,2.0304,2.0304,2.0304,2.0304,2.0304,2.0304,2.0304,2.0304,2.0304,2.0304,2.0304,2.0304,2.0304,2.0304,2.0304,2.0304,2.0304,2.0304,2.0304,2.0335,2.035,2.0582,2.0905,2.1044,2.1106,3.0852,3.0856,3.084,3.0774,3.0701,3.0626,3.0554,3.0492,3.0436,3.0398,3.0398,3.0398,3.0221,2.995,2.9902,2.9717,2.9409,2.9304,2.924,2.92,2.9218,2.9218,2.92,2.9265,2.9119,2.87,2.8324,2.801,2.7683,2.7483,2.7345,2.733,2.7362,2.6899,2.6178,2.6074,2.5747,2.5023,2.4448,2.4024,2.3687,2.3192,2.2632,2.2225,2.2265,2.2343,2.2421,2.3106,2.3466,2.36,2.434,2.5236,2.5913,2.6129,2.6447,2.6871,2.7105,2.7184,2.7213,2.6506,2.6281,2.6333,2.585,2.5592,2.5764,2.585,2.5868,2.585,2.5902,2.5833,2.5868,2.5868,2.582,2.579,2.5347,2.5428,2.5993,2.6437,2.664,2.6624,2.6691,2.5831,2.4709,2.4143,2.3591,2.2298,2.1509,2.1119,2.1182,2.0844,2.0561,2.0339,2.0304,2.0304,2.0304,2.0304,2.0304,2.0304,2.0304,2.0304,2.0304,2.0304,2.0304,2.0304,2.0304,2.0304,2.0304,2.0304,2.0304,2.035,2.0443,2.0859,2.1214,2.1547,2.1686,3.0856,3.082,3.0859,3.0834,3.071,3.0637,3.0568,3.0501,3.0417,3.0398,3.0398,3.0398,3.0221,2.995,2.9902,2.9735,2.945,2.9283,2.9225,2.9203,2.92,2.9218,2.92,2.9222,2.903,2.8609,2.8272,2.7954,2.763,2.7438,2.7299,2.7299,2.7296,2.6954,2.6419,2.6195,2.5954,2.5436,2.5143,2.4701,2.4081,2.3807,2.3459,2.276,2.2739,2.2926,2.3431,2.4107,2.4242,2.39,2.5033,2.5964,2.6572,2.6892,2.6923,2.7007,2.7186,2.7267,2.7144,2.6713,2.6523,2.7023,2.6609,2.6454,2.6937,2.6988,2.6988,2.7023,2.7075,2.7126,2.7126,2.7109,2.7109,2.7112,2.6353,2.6194,2.6572,2.6674,2.6691,2.6674,2.6607,2.6099,2.463,2.4411,2.3587,2.2559,2.1857,2.1524,2.1182,2.0844,2.0628,2.0475,2.0304,2.0304,2.0304,2.0304,2.0304,2.0304,2.0304,2.0304,2.0304,2.0304,2.0304,2.0304,2.0304,2.0304,2.0304,2.0304,2.0304,2.032,2.0628,2.1121,2.1563,2.1978,2.244,3.0875,3.088,3.0882,3.0884,3.0836,3.0659,3.0587,3.056,3.0449,3.0398,3.0398,3.0398,3.0221,2.9937,2.9902,2.9769,2.9551,2.9349,2.9291,2.9316,2.9246,2.9218,2.9218,2.924,2.8938,2.842,2.8237,2.7897,2.7452,2.7376,2.7345,2.7299,2.7345,2.7258,2.6988,2.6937,2.6902,2.6626,2.6074,2.573,2.539,2.4832,2.4464,2.4189,2.4091,2.4134,2.4286,2.4915,2.5541,2.5845,2.6133,2.6521,2.6808,2.6959,2.704,2.7087,2.7201,2.7299,2.7264,2.7092,2.7092,2.723,2.7057,2.7075,2.7247,2.7299,2.7299,2.7299,2.7299,2.7299,2.7299,2.7299,2.7267,2.7087,2.68,2.6686,2.6757,2.6742,2.6708,2.6657,2.6268,2.5541,2.4729,2.4052,2.3351,2.2321,2.1721,2.1401,2.115,2.0778,2.0494,2.0392,2.0289,2.0304,2.0304,2.0304,2.0304,2.0304,2.0304,2.0304,2.0304,2.0304,2.0304,2.0304,2.0304,2.0304,2.0304,2.0304,2.0304,2.0304,2.0798,2.1322,2.2009,2.2532,2.3148,3.0918,3.0918,3.0912,3.0872,3.0808,3.0678,3.0587,3.0554,3.043,3.0398,3.0398,3.0398,3.0221,2.9918,2.9902,2.9786,2.9608,2.939,2.9332,2.9358,2.9249,2.9222,2.924,2.928,2.8915,2.8316,2.821,2.784,2.7421,2.7362,2.7345,2.733,2.7393,2.7362,2.7264,2.7299,2.7299,2.7195,2.6799,2.6471,2.6092,2.5652,2.5163,2.4898,2.4799,2.4777,2.5028,2.5659,2.6285,2.659,2.6691,2.6742,2.6893,2.6942,2.7023,2.7085,2.7233,2.7299,2.7299,2.7299,2.7299,2.7299,2.7299,2.7299,2.7299,2.7299,2.7299,2.7299,2.7299,2.7299,2.7299,2.7299,2.7218,2.7087,2.7007,2.6942,2.6825,2.6725,2.6708,2.659,2.6302,2.5609,2.4661,2.4086,2.3253,2.2367,2.1781,2.1524,2.1276,2.0795,2.0494,2.046,2.0323,2.0304,2.0304,2.0304,2.0304,2.0304,2.0304,2.0304,2.0304,2.0304,2.0304,2.0304,2.0304,2.0304,2.0304,2.0304,2.0304,2.0489,2.0983,2.1507,2.2132,2.2978,2.3609,3.0918,3.0918,3.0916,3.082,3.0711,3.0632,3.0568,3.0492,3.0436,3.0398,3.0398,3.0398,3.0234,2.9934,2.9953,2.9836,2.9681,2.9513,2.9415,2.9377,2.9291,2.924,2.9262,2.9302,2.8897,2.835,2.8228,2.7858,2.7452,2.7362,2.7345,2.7313,2.7362,2.7362,2.733,2.7299,2.7299,2.7299,2.723,2.6885,2.6471,2.6203,2.5914,2.5442,2.5265,2.5439,2.5856,2.6368,2.6674,2.6691,2.6708,2.6792,2.6876,2.6975,2.7023,2.712,2.725,2.7299,2.7299,2.7299,2.7299,2.7299,2.7299,2.7299,2.7299,2.7299,2.7299,2.7299,2.7299,2.7299,2.7299,2.7299,2.7218,2.7087,2.704,2.6925,2.6775,2.6708,2.6708,2.664,2.659,2.5744,2.5014,2.4286,2.3714,2.2237,2.1781,2.1631,2.1355,2.0974,2.0761,2.0695,2.0543,2.0304,2.0304,2.0304,2.0304,2.0304,2.0304,2.0304,2.0304,2.0304,2.0304,2.0304,2.0304,2.0304,2.0304,2.0304,2.0304,2.0613,2.1075,2.1532,2.2101,2.3102,2.3871,3.0918,3.0918,3.0916,3.082,3.0711,3.0632,3.0568,3.0482,3.0417,3.0398,3.0398,3.0398,3.0273,3.0071,3.0045,3.003,2.9924,2.9739,2.96,2.9398,2.931,2.9262,2.924,2.9262,2.8892,2.8368,2.821,2.7886,2.7452,2.733,2.733,2.7365,2.7434,2.7348,2.7385,2.7506,2.7316,2.7316,2.7351,2.7351,2.7195,2.706,2.6908,2.657,2.6426,2.6465,2.6635,2.6723,2.6691,2.6708,2.6708,2.6792,2.6942,2.6992,2.7089,2.7218,2.7299,2.7299,2.7299,2.7299,2.7299,2.7299,2.7299,2.7299,2.7299,2.7299,2.7299,2.7299,2.7299,2.7299,2.7299,2.7299,2.7218,2.7072,2.7007,2.6892,2.6742,2.6708,2.6708,2.6454,2.5727,2.4879,2.4506,2.3444,2.2798,2.2057,2.1827,2.1691,2.1448,2.1151,2.0958,2.086,2.0543,2.0304,2.0304,2.0304,2.0304,2.0304,2.0304,2.0304,2.0304,2.0304,2.0304,2.0304,2.0304,2.0304,2.0304,2.0304,2.0304,2.0736,2.109,2.1409,2.1978,2.3055,2.3625,3.0918,3.0918,3.0916,3.0801,3.0652,3.0613,3.0543,3.0451,3.0394,3.0398,3.0398,3.0398,3.0279,3.0109,3.0052,3.0032,3.0047,2.9851,2.9585,2.9336,2.9243,2.9197,2.9156,2.9134,2.8845,2.829,2.8183,2.7858,2.7452,2.7365,2.7503,2.7799,2.7848,2.8142,2.8282,2.8282,2.8385,2.8385,2.8334,2.8334,2.8334,2.8283,2.8027,2.76,2.7212,2.6975,2.7006,2.6791,2.6725,2.6792,2.6792,2.6876,2.6975,2.7023,2.7137,2.7267,2.7299,2.7299,2.7299,2.7299,2.7299,2.7299,2.7299,2.7299,2.7299,2.7299,2.7299,2.7299,2.7299,2.7299,2.7282,2.7233,2.7137,2.7007,2.6959,2.6859,2.6742,2.6708,2.6522,2.6201,2.5541,2.4746,2.3968,2.3088,2.262,2.2269,2.1886,2.1751,2.1768,2.1464,2.1103,2.0909,2.0527,2.0339,2.0304,2.0304,2.0304,2.0304,2.0304,2.0304,2.0304,2.0304,2.0304,2.0304,2.0304,2.0304,2.0304,2.0304,2.0304,2.0489,2.0782,2.1116,2.1547,2.2178,2.2609,3.0918,3.0917,3.0915,3.0778,3.062,3.0613,3.0518,3.0402,3.0398,3.0398,3.0398,3.0398,3.0311,3.015,2.9999,3.0004,2.9969,2.9864,2.9607,2.9293,2.92,2.9134,2.9112,2.9067,2.8863,2.8334,2.8308,2.7971,2.7635,2.7577,2.799,2.8397,2.8606,2.8798,2.9317,2.9472,2.9317,2.9265,2.9248,2.9282,2.9248,2.9111,2.8646,2.7959,2.7653,2.7177,2.7107,2.6908,2.6792,2.6876,2.6926,2.6942,2.7007,2.7055,2.7166,2.7299,2.7299,2.7299,2.7299,2.7299,2.7299,2.7299,2.7299,2.7299,2.7299,2.7299,2.7299,2.7299,2.7299,2.7299,2.7299,2.7184,2.7087,2.7007,2.6959,2.6842,2.6742,2.6691,2.6387,2.5795,2.5287,2.4628,2.3883,2.3088,2.2784,2.2468,2.2086,2.1857,2.1857,2.1678,2.1293,2.0974,2.0628,2.0339,2.0304,2.0304,2.0304,2.0304,2.0304,2.0304,2.0304,2.0304,2.0304,2.0304,2.0304,2.0304,2.0304,2.0304,2.0304,2.0304,2.0566,2.1029,2.1229,2.1301,2.1686,3.0916,3.0925,3.0912,3.079,3.0634,3.061,3.0509,3.0414,3.0398,3.0398,3.0398,3.0398,3.0386,3.0304,3.0151,3.0035,2.9916,2.9829,2.968,2.9377,2.9267,2.9197,2.913,2.9108,2.891,2.8676,2.8605,2.8416,2.8174,2.8358,2.8627,2.8809,2.9173,2.954,2.961,2.9541,2.973,2.9817,2.9782,2.9765,2.9644,2.9059,2.849,2.787,2.7805,2.7583,2.7156,2.7023,2.6942,2.6926,2.7006,2.7023,2.704,2.7087,2.7201,2.7282,2.7299,2.7299,2.7299,2.7299,2.7299,2.7299,2.7299,2.7299,2.7299,2.7299,2.7299,2.7299,2.7299,2.7299,2.7282,2.7184,2.707,2.699,2.6959,2.6842,2.6759,2.664,2.6387,2.5727,2.5101,2.4374,2.3545,2.2919,2.2632,2.2383,2.2157,2.1974,2.1974,2.1691,2.1276,2.0991,2.0679,2.046,2.0304,2.0339,2.0339,2.0304,2.0304,2.0304,2.0304,2.0304,2.0304,2.0304,2.0304,2.0304,2.0304,2.0304,2.0304,2.0304,2.0613,2.0952,2.0952,2.0962,2.1234,3.0914,3.0897,3.0813,3.0728,3.061,3.0563,3.0492,3.0402,3.0398,3.0398,3.0398,3.0398,3.0398,3.0321,3.011,2.9909,2.9789,2.9823,2.966,2.9418,2.931,2.9197,2.913,2.9108,2.904,2.9057,2.918,2.9137,2.8772,2.8923,2.9417,3.0036,3.0277,3.0473,3.0645,3.0765,3.0662,3.0644,3.0644,3.0644,3.0506,2.961,2.8782,2.849,2.7872,2.7446,2.724,2.7023,2.6975,2.6959,2.7023,2.7038,2.7055,2.7137,2.7233,2.7299,2.7299,2.7299,2.7299,2.7299,2.7299,2.7299,2.7299,2.7299,2.7299,2.7299,2.7299,2.7299,2.7299,2.7299,2.7299,2.7184,2.7103,2.7055,2.6975,2.6876,2.6809,2.6759,2.6251,2.5659,2.5,2.4137,2.3004,2.2547,2.2395,2.2254,2.2152,2.2106,2.2106,2.1721,2.1276,2.1103,2.0893,2.0712,2.0494,2.0407,2.0373,2.0304,2.0304,2.0304,2.0304,2.0304,2.0304,2.0304,2.0304,2.0304,2.0304,2.0304,2.0304,2.0304,2.0474,2.0613,2.0597,2.067,2.0911,3.0894,3.084,3.0742,3.0661,3.0585,3.051,3.0462,3.0421,3.0398,3.0398,3.0398,3.0398,3.0398,3.034,3.0136,2.9889,2.9628,2.9725,2.9624,2.9375,2.9246,2.9134,2.9152,2.9108,2.9085,2.92,2.9751,2.9933,2.9647,2.9886,3.0475,3.0932,3.1278,3.1515,3.1649,3.1541,3.18,3.18,3.18,3.1765,3.1282,3.0437,2.9523,2.9282,2.8027,2.7358,2.7186,2.7105,2.704,2.7007,2.7055,2.7103,2.7072,2.7186,2.7299,2.7299,2.7299,2.7299,2.7299,2.7299,2.7299,2.7299,2.7299,2.7299,2.7299,2.7299,2.7299,2.7299,2.7299,2.7299,2.7299,2.7166,2.7103,2.707,2.6957,2.6876,2.6842,2.6656,2.6133,2.5524,2.4913,2.4086,2.3122,2.2767,2.2733,2.2299,2.2225,2.2152,2.2077,2.1661,2.1308,2.126,2.1119,2.0958,2.0745,2.0527,2.0426,2.0289,2.0304,2.0304,2.0304,2.0304,2.0304,2.0304,2.0304,2.0304,2.0304,2.0304,2.0304,2.0304,2.0304,2.0335,2.0412,2.0393,2.0512,3.0823,3.0714,3.0711,3.0645,3.051,3.0501,3.0471,3.041,3.0398,3.0398,3.0398,3.0398,3.0398,3.034,3.0328,2.9972,2.9688,2.9647,2.9607,2.9353,2.9222,2.9175,2.9156,2.9062,2.9108,2.9318,2.9926,3.0131,3.0323,3.1102,3.1541,3.1702,3.191,3.2039,3.1785,3.18,3.18,3.18,3.18,3.1507,3.0989,3.0644,2.9817,2.892,2.8316,2.7836,2.7336,2.7201,2.7186,2.707,2.7201,2.7201,2.7152,2.7201,2.7299,2.7299,2.7299,2.7299,2.7299,2.7299,2.7299,2.7299,2.7299,2.7299,2.7299,2.7299,2.7299,2.7299,2.7299,2.7299,2.7299,2.7201,2.7135,2.7087,2.7007,2.6926,2.6893,2.6775,2.6201,2.5642,2.5084,2.4371,2.3494,2.3291,2.3088,2.262,2.2271,2.2276,2.2111,2.1727,2.1355,2.1308,2.1308,2.115,2.0877,2.0695,2.0494,2.0323,2.0304,2.0304,2.0304,2.0304,2.0304,2.0304,2.0304,2.0304,2.0304,2.0304,2.0304,2.0304,2.0304,2.0304,2.032,2.027,2.02,3.0792,3.0697,3.0668,3.0588,3.0511,3.0462,3.0436,3.041,3.0398,3.0398,3.0398,3.0398,3.0302,3.0182,3.0203,3.0023,2.9742,2.9702,2.9662,2.9474,2.9351,2.928,2.924,2.9175,2.9156,2.9447,3.0249,3.0919,3.1187,3.1592,3.2097,3.2282,3.2258,3.2109,3.1819,3.18,3.18,3.18,3.1783,3.1627,3.1282,3.0834,3.0144,2.9075,2.861,2.7956,2.7422,2.7282,2.7218,2.712,2.7186,2.7233,2.7152,2.7233,2.7299,2.7299,2.7299,2.7299,2.7299,2.7299,2.7299,2.7299,2.7299,2.7299,2.7299,2.7299,2.7299,2.7299,2.7299,2.7299,2.7299,2.725,2.7233,2.7169,2.7057,2.6992,2.6909,2.6758,2.6437,2.5845,2.5287,2.4611,2.3917,2.3393,2.3173,2.2907,2.2651,2.2635,2.2391,2.2043,2.1655,2.1291,2.1339,2.1324,2.1007,2.0728,2.0527,2.0392,2.0304,2.0304,2.0304,2.0304,2.0304,2.0304,2.0304,2.0304,2.0304,2.0304,2.0304,2.0304,2.0304,2.0304,2.027,2.0185,2.0146,3.0709,3.0668,3.0608,3.0557,3.0472,3.0425,3.041,3.0398,3.0398,3.0398,3.0386,3.0343,3.0145,2.9979,3.0021,2.9966,2.977,2.9689,2.9662,2.9589,2.9454,2.9326,2.924,2.9178,2.9156,2.9233,3.063,3.1157,3.1389,3.1918,3.2499,3.2766,3.2401,3.2144,3.191,3.18,3.18,3.18,3.18,3.1765,3.1576,3.0782,3.0127,2.9334,2.8593,2.7751,2.7255,2.7201,2.7137,2.7154,2.7218,2.725,2.7201,2.725,2.7299,2.7299,2.7299,2.7299,2.7299,2.7299,2.7299,2.7299,2.7299,2.7299,2.7299,2.7299,2.7299,2.7299,2.7299,2.7299,2.7299,2.7282,2.7282,2.7218,2.7122,2.7057,2.6992,2.6808,2.6471,2.5879,2.5389,2.5084,2.4357,2.3528,2.319,2.3093,2.3042,2.3059,2.2731,2.2368,2.1856,2.1448,2.1182,2.1198,2.099,2.0695,2.0527,2.0426,2.0339,2.0304,2.0304,2.0304,2.0304,2.0304,2.0304,2.0304,2.0304,2.0304,2.0304,2.0304,2.0304,2.0304,2.027,2.0181,2.0365,3.0608,3.0614,3.0612,3.0532,3.0421,3.041,3.0398,3.0398,3.0398,3.0398,3.0355,3.0209,3.0051,2.9937,2.9961,2.9864,2.9493,2.968,2.9608,2.9433,2.9262,2.9262,2.9218,2.9175,2.9185,2.9439,3.0656,3.1166,3.1338,3.2223,3.2634,3.2749,3.2406,3.2126,3.1893,3.18,3.18,3.18,3.18,3.1731,3.1351,3.0558,2.9644,2.9111,2.808,2.7137,2.7103,2.7152,2.7152,2.7218,2.725,2.7282,2.7282,2.7299,2.7299,2.7299,2.7299,2.7351,2.7454,2.7471,2.7385,2.7333,2.7437,2.7627,2.7696,2.742,2.7333,2.7385,2.7402,2.7299,2.7299,2.7299,2.7299,2.7267,2.7154,2.704,2.6975,2.6825,2.6471,2.5879,2.5507,2.5253,2.4915,2.412,2.3833,2.3769,2.3866,2.3866,2.3187,2.2772,2.2092,2.1573,2.1119,2.0925,2.0794,2.0595,2.0426,2.0373,2.0304,2.0304,2.0304,2.0304,2.0304,2.0304,2.0304,2.0304,2.0304,2.0304,2.0304,2.0304,2.032,2.0347,2.0476,2.0574,2.0916,3.0616,3.0546,3.0505,3.0444,3.0398,3.0398,3.0398,3.0398,3.0398,3.0311,3.0228,3.0122,2.995,2.9823,2.9877,2.9815,2.957,2.9626,2.9589,2.9512,2.939,2.9304,2.9262,2.9289,2.9374,2.9936,3.0895,3.1703,3.2096,3.2535,3.2694,3.2652,3.2265,3.2,3.1819,3.18,3.18,3.1783,3.1731,3.1627,3.1024,3.0644,2.9748,2.8664,2.8406,2.7516,2.7175,2.7087,2.7152,2.7201,2.725,2.7299,2.7299,2.7299,2.7299,2.7299,2.7299,2.7489,2.7833,2.7937,2.8161,2.861,2.8678,2.8523,2.8282,2.8178,2.8006,2.7885,2.7523,2.7316,2.7299,2.7299,2.7299,2.7267,2.7186,2.7055,2.6957,2.6859,2.6674,2.6201,2.5812,2.549,2.5135,2.4729,2.4594,2.4526,2.4611,2.4526,2.3826,2.3006,2.2247,2.1544,2.1055,2.0695,2.0577,2.0441,2.0304,2.0304,2.0304,2.0304,2.0304,2.0304,2.0304,2.0304,2.0304,2.0304,2.0304,2.0304,2.0304,2.032,2.0362,2.0435,2.064,2.0898,2.1394,3.0597,3.0499,3.0458,3.0406,3.041,3.0398,3.0398,3.0398,3.0398,3.0323,3.0182,3.0122,2.9984,2.9826,2.9832,2.9801,2.9643,2.9607,2.9589,2.9512,2.9411,2.9365,2.9357,2.9514,2.9853,3.0446,3.1299,3.2082,3.2119,3.2577,3.2608,3.237,3.2081,3.1834,3.18,3.18,3.18,3.1783,3.1489,3.13,3.0748,3.0093,2.9541,2.8321,2.7962,2.7552,2.711,2.7023,2.707,2.7152,2.7233,2.7299,2.7299,2.7299,2.7299,2.7299,2.7368,2.7575,2.7954,2.8368,2.8592,2.8816,2.8627,2.8661,2.8713,2.8385,2.7885,2.7885,2.7523,2.7299,2.7299,2.7299,2.7299,2.7299,2.7169,2.707,2.699,2.6892,2.6792,2.6589,2.6234,2.5998,2.5879,2.5592,2.5321,2.5067,2.4644,2.4594,2.4228,2.331,2.2274,2.1568,2.0909,2.0628,2.0373,2.04,2.0412,2.0304,2.0304,2.0304,2.0304,2.032,2.032,2.0304,2.0304,2.0304,2.0412,2.0551,2.0458,2.0335,2.0408,2.0496,2.1042,2.1356,2.1825,3.055,3.049,3.0479,3.0447,3.041,3.0398,3.0398,3.0398,3.0398,3.0386,3.0311,3.0182,3.0095,3.0003,2.9915,2.9784,2.9626,2.9608,2.9551,2.9431,2.9409,2.9326,2.9499,2.9806,3.0236,3.0601,3.1499,3.2065,3.1898,3.2411,3.2403,3.2088,3.1923,3.18,3.18,3.18,3.18,3.1696,3.1145,3.0817,3.0334,2.9386,2.8612,2.7996,2.7519,2.7144,2.7026,2.6975,2.7055,2.7103,2.725,2.7299,2.7299,2.7299,2.7299,2.7299,2.7368,2.7437,2.7523,2.8109,2.8678,2.8989,2.9041,2.842,2.7799,2.7523,2.7627,2.7851,2.7437,2.7316,2.7299,2.7299,2.7299,2.7299,2.7184,2.707,2.704,2.6942,2.6859,2.6742,2.6708,2.6657,2.664,2.6505,2.615,2.5659,2.4932,2.458,2.4481,2.3832,2.2834,2.2101,2.1462,2.112,2.0956,2.0613,2.0505,2.0381,2.0412,2.0535,2.0458,2.0381,2.0366,2.035,2.0335,2.035,2.0597,2.0859,2.0921,2.0947,2.0566,2.065,2.1271,2.1834,2.2315,3.0567,3.0479,3.0436,3.0421,3.041,3.0398,3.0398,3.0398,3.0379,3.0323,3.0209,3.0122,3.0018,2.9962,2.9915,2.9803,2.9644,2.9589,2.9531,2.9409,2.9388,2.9304,2.9499,3.0023,3.0604,3.1121,3.1926,3.2602,3.2803,3.2662,3.2388,3.2119,3.1852,3.18,3.18,3.18,3.18,3.1662,3.1093,3.0455,2.9868,2.8937,2.8078,2.7483,2.716,2.6992,2.6959,2.6992,2.7023,2.7103,2.7233,2.7299,2.7299,2.7299,2.7316,2.7471,2.7661,2.8575,2.9179,2.992,3.0179,3.0144,2.9817,2.9317,2.9506,2.8489,2.8196,2.7885,2.7592,2.7489,2.7299,2.7299,2.7299,2.7299,2.725,2.7137,2.704,2.7007,2.6909,2.6775,2.6708,2.6708,2.6708,2.6708,2.6454,2.6387,2.5761,2.5323,2.5124,2.4563,2.3759,2.2996,2.2362,2.1942,2.1599,2.143,2.1034,2.0859,2.0921,2.1044,2.089,2.0489,2.0643,2.0751,2.0566,2.0443,2.0936,2.1362,2.1655,2.1655,2.1414,2.1434,2.2095,2.254,2.2854,3.0537,3.0479,3.0425,3.039,3.041,3.0398,3.0398,3.0398,3.0398,3.033,3.0241,3.0196,3.0169,3.0071,2.9934,2.9834,2.968,2.957,2.9512,2.9407,2.9388,2.9304,2.9555,3.0249,3.0973,3.1536,3.2165,3.2799,3.2929,3.2563,3.2267,3.2067,3.1923,3.1817,3.18,3.18,3.18,3.1507,3.0869,3.0006,2.9368,2.8592,2.7732,2.7274,2.7038,2.704,2.7007,2.704,2.7055,2.712,2.7201,2.7299,2.7299,2.7316,2.7437,2.7764,2.842,2.9248,2.9851,3.0075,3.0437,3.1403,3.1076,3.0748,3.061,2.973,2.9161,2.8713,2.8092,2.7713,2.754,2.7506,2.7454,2.7454,2.7422,2.7341,2.7209,2.7144,2.7265,2.7063,2.681,2.6776,2.6708,2.6708,2.6623,2.664,2.6623,2.6151,2.5647,2.5025,2.4424,2.3726,2.3076,2.2577,2.2368,2.2342,2.1942,2.1368,2.1399,2.1507,2.0859,2.0428,2.0782,2.106,2.0736,2.072,2.146,2.1916,2.2286,2.2501,2.2471,2.2655,2.3,2.3132,2.3232,3.0481,3.0479,3.0409,3.0356,3.039,3.0398,3.0398,3.0398,3.0398,3.0398,3.0398,3.0386,3.033,3.0286,3.0026,2.9869,2.9786,2.955,2.945,2.9407,2.9388,2.9304,2.9721,3.0563,3.1054,3.1686,3.2246,3.2565,3.2723,3.2385,3.2073,3.1891,3.1817,3.18,3.18,3.18,3.18,3.1455,3.0679,2.9937,2.9351,2.8299,2.7629,2.722,2.712,2.7087,2.7072,2.7087,2.712,2.7152,2.7233,2.7282,2.7316,2.7333,2.7799,2.8472,2.923,2.9592,2.9989,3.0144,3.0731,3.1817,3.1524,3.1007,3.0696,3.0524,3.0024,2.9472,2.8885,2.8334,2.7937,2.7851,2.7747,2.7747,2.773,2.7599,2.7432,2.7435,2.7624,2.7487,2.7148,2.6962,2.6759,2.6708,2.6708,2.6708,2.6624,2.6252,2.5782,2.534,2.4759,2.4297,2.3658,2.3163,2.3054,2.3095,2.2456,2.1815,2.1778,2.1747,2.106,2.0643,2.1029,2.1183,2.0798,2.0983,2.1732,2.2409,2.2994,2.3148,2.3255,2.3323,2.3468,2.3325,2.3379,2.9901,3.0351,2.9732,2.9844,3.0371,3.0398,3.0398,3.0398,3.0398,3.0398,3.0398,3.0398,3.0323,3.015,2.9996,2.9836,2.9663,2.9531,2.9429,2.9388,2.9386,2.9304,2.9647,3.03,3.0797,3.1247,3.1755,3.238,3.2343,3.2092,3.1965,3.1837,3.18,3.18,3.18,3.18,3.18,3.1541,3.0713,3.0127,2.9472,2.8541,2.7853,2.7457,2.7169,2.7169,2.7169,2.7188,2.7203,2.725,2.7299,2.7316,2.7299,2.7816,2.8523,2.9868,3.0317,3.0558,3.1093,3.1593,3.2024,3.2455,3.2697,3.2352,3.18,3.1162,3.0782,3.0351,2.9851,2.9334,2.9196,2.911,2.8903,2.8782,2.8696,2.8422,2.8288,2.8237,2.8356,2.7997,2.7639,2.7199,2.6979,2.6708,2.6708,2.6708,2.6573,2.6286,2.5962,2.5587,2.519,2.4707,2.4329,2.3877,2.3752,2.3803,2.2956,2.2293,2.2324,2.2194,2.1732,2.1455,2.1538,2.1553,2.1501,2.1701,2.2086,2.2794,2.3579,2.384,2.3963,2.3912,2.3886,2.3686,2.3557,2.9978,3.0353,2.9888,2.9943,3.0344,3.039,3.0398,3.0398,3.0398,3.0398,3.0398,3.0398,3.0279,3.0109,2.9946,2.9803,2.9608,2.9471,2.9388,2.9388,2.9386,2.9283,2.9514,3.0167,3.065,3.1011,3.1476,3.2204,3.2105,3.1968,3.18,3.18,3.18,3.18,3.18,3.18,3.18,3.1541,3.1076,3.0489,2.9765,2.8954,2.8213,2.773,2.739,2.7267,2.7351,2.7339,2.7508,2.7558,2.7627,2.7989,2.8127,2.8713,2.9437,3.061,3.0989,3.1007,3.1248,3.1869,3.2438,3.3024,3.3662,3.368,3.3128,3.249,3.2024,3.1541,3.0972,3.0524,3.0593,3.0593,3.0334,3.0075,2.9782,2.9455,2.9317,2.923,2.8937,2.854,2.8096,2.7621,2.7266,2.6928,2.6708,2.6708,2.6691,2.6573,2.6301,2.6025,2.5675,2.5277,2.4959,2.4617,2.4507,2.4217,2.3538,2.2933,2.2871,2.2732,2.2378,2.1916,2.1599,2.1963,2.2532,2.2655,2.2732,2.3471,2.4164,2.4302,2.4302,2.4184,2.4055,2.3987,2.3846,3.0414,3.0491,3.049,3.04,3.0406,3.039,3.034,3.0302,3.034,3.0398,3.0398,3.0367,3.0241,3.0052,2.9902,2.9734,2.957,2.9431,2.9388,2.9388,2.9344,2.9262,2.9603,3.0415,3.0338,3.0782,3.134,3.1874,3.1826,3.1758,3.1837,3.1837,3.18,3.18,3.18,3.18,3.18,3.1696,3.1248,3.0713,3.0127,2.9282,2.8403,2.8109,2.7678,2.7316,2.7454,2.7696,2.804,2.8075,2.8282,2.8782,2.9127,2.9661,3.0403,3.1041,3.1541,3.18,3.1921,3.2438,3.2835,3.3335,3.3766,3.418,3.3886,3.3628,3.3231,3.2852,3.2334,3.2093,3.211,3.142,3.0938,3.0817,3.0627,3.0368,3.0246,3.0018,2.9668,2.9236,2.8689,2.8146,2.7368,2.7012,2.6708,2.6708,2.6691,2.6657,2.6505,2.6315,2.6016,2.5656,2.4997,2.4659,2.4705,2.4406,2.3997,2.363,2.3465,2.3163,2.2748,2.2147,2.1501,2.207,2.2701,2.3148,2.3456,2.3994,2.4271,2.4302,2.4302,2.4302,2.4234,2.4124,2.4024,2.996,3.049,3.0439,3.0406,3.0402,3.039,3.0025,2.9486,3.014,3.0359,3.0367,3.0203,3.0056,2.9851,2.9672,2.9495,2.9378,2.9392,2.9388,2.9386,2.9323,2.9262,2.9215,2.9729,2.9734,2.9863,3.0481,3.1505,3.1949,3.195,3.1929,3.2126,3.1965,3.18,3.18,3.18,3.1783,3.1645,3.1558,3.0696,2.9713,2.942,2.8868,2.8058,2.7351,2.7385,2.7471,2.754,2.792,2.8161,2.8385,2.8799,2.9248,3.0231,3.0955,3.1541,3.2265,3.2628,3.3093,3.349,3.4059,3.4369,3.4714,3.4559,3.4507,3.4594,3.4456,3.4093,3.3852,3.3662,3.3266,3.2334,3.1576,3.1524,3.1369,3.1214,3.1022,3.0685,3.033,2.9763,2.9214,2.8416,2.7571,2.7097,2.681,2.6708,2.6708,2.6657,2.6505,2.6315,2.6123,2.5684,2.4665,2.4338,2.4586,2.4595,2.4186,2.3996,2.3844,2.3496,2.3102,2.284,2.2517,2.2424,2.2748,2.3302,2.3748,2.3979,2.4194,2.4271,2.4317,2.4276,2.425,2.4124,2.404,3.0153,3.051,3.0479,3.0417,3.0383,3.039,2.991,2.9275,2.9621,2.9833,2.979,2.964,2.9503,2.9355,2.9152,2.9045,2.9018,2.9277,2.9351,2.9386,2.9323,2.9222,2.9208,2.9255,2.918,2.9341,3.0118,3.1075,3.1967,3.2179,3.2161,3.2179,3.1966,3.1765,3.1783,3.1765,3.1593,3.1317,3.1627,3.08,2.9437,2.9161,2.8954,2.8058,2.7764,2.773,2.8092,2.8282,2.9006,2.9644,3.0179,3.1024,3.1593,3.2162,3.2455,3.28,3.3266,3.3628,3.4197,3.4749,3.5214,3.5283,3.5594,3.5421,3.5352,3.5318,3.4645,3.4318,3.4525,3.4404,3.4059,3.33,3.2593,3.23,3.1593,3.1022,3.095,3.0802,3.0177,2.9403,2.8738,2.796,2.7266,2.6928,2.6708,2.6708,2.6708,2.6708,2.6539,2.635,2.6158,2.5862,2.4984,2.466,2.5045,2.4862,2.4406,2.4262,2.4163,2.3758,2.3409,2.3609,2.3625,2.3255,2.3194,2.3656,2.4025,2.4148,2.4194,2.4287,2.4276,2.4276,2.4239,2.4216,2.4116,3.0569,3.0588,3.0539,3.0458,3.0367,3.0267,2.9698,2.9006,2.8917,2.881,2.8699,2.8651,2.866,2.8806,2.8628,2.8447,2.8554,2.9165,2.937,2.9347,2.9243,2.92,2.9265,2.9345,2.9075,2.9242,2.9911,3.0783,3.1686,3.1969,3.2179,3.2127,3.1898,3.1679,3.1731,3.161,3.1386,3.1334,3.1248,3.061,2.9817,2.911,2.8799,2.8523,2.8265,2.8265,2.8713,2.9351,3.0196,3.1196,3.1783,3.2576,3.3093,3.3335,3.3593,3.3835,3.4042,3.4318,3.4663,3.5163,3.5352,3.5542,3.6042,3.6163,3.6008,3.5645,3.4973,3.4611,3.4818,3.4697,3.4352,3.3783,3.311,3.2352,3.1418,3.0712,3.0653,3.0649,2.9853,2.9011,2.8349,2.7588,2.7232,2.6877,2.6708,2.6708,2.6708,2.6708,2.6624,2.6367,2.6139,2.6068,2.5691,2.5558,2.5503,2.508,2.4619,2.4523,2.4378,2.3993,2.3733,2.3902,2.3933,2.3733,2.3794,2.404,2.4164,2.4241,2.4302,2.4394,2.4317,2.4337,2.4575,2.4521,2.4298,3.0559,3.0519,3.0509,3.0466,3.0306,2.966,2.889,2.8187,2.7992,2.7541,2.7377,2.757,2.818,2.9604,2.9326,2.9055,2.8814,2.9277,2.9328,2.9304,2.9222,2.9178,2.9076,2.8985,2.8838,2.9123,2.9614,3.0198,3.1064,3.1772,3.2002,3.1494,3.1115,3.1162,3.1645,3.1455,3.1179,3.1214,3.1386,3.1076,3.0351,2.9558,2.861,2.8092,2.7506,2.7506,2.7764,2.8385,2.9472,3.0886,3.261,3.3421,3.3852,3.4128,3.4318,3.4542,3.4766,3.5163,3.5508,3.5749,3.587,3.5921,3.6215,3.6042,3.5956,3.5921,3.5163,3.4283,3.4283,3.4059,3.3645,3.2817,3.2076,3.1265,3.0386,3.004,2.9866,2.9674,2.9242,2.8744,2.83,2.7774,2.7486,2.7131,2.6776,2.6759,2.6708,2.6708,2.659,2.6332,2.6104,2.6104,2.6068,2.5835,2.5577,2.5237,2.4879,2.4784,2.4583,2.4209,2.404,2.4164,2.4133,2.3979,2.404,2.4241,2.4317,2.4518,2.4564,2.4641,2.4394,2.4384,2.4729,2.49,2.4722]},{"header":{"parameterUnit":"m.s-1","parameterCategory":1,"la1":31.0,"la2":29.5877,"lo1":-88.7671,"lo2":-86.6584,"dy":0.0162,"dx":0.0185,"nx":115,"ny":88,"refTime":"2023-10-07T12:00:00:Z","depth":0,"parameterNumber":3,"parameterNumberName":"V-component_of_WINDS"},"data":[0.0,0.0,0.0,0.0,0.0,0.0,0.0,0.0,0.0,0.0,0.0,0.0,0.0,0.0,0.0,0.0,0.0,0.0,0.0,0.0,0.0,0.0,0.0,0.0,0.0,0.0,0.0,0.0,0.0,0.0,0.0,0.0,0.0,0.0,0.0,0.0,0.0,0.0,0.0,0.0,0.0,0.0,0.0,0.0,0.0,0.0,0.0,0.0,0.0,0.0,0.0,0.0,0.0,0.0,0.0,0.0,0.0,0.0,0.0,0.0,0.0,0.0,0.0,0.0,0.0,0.0,0.0,0.0,0.0,0.0,0.0,0.0,0.0,0.0,0.0,0.0,0.0,0.0,0.0,0.0,0.0,0.0,0.0,0.0,0.0,0.0,0.0,0.0,0.0,0.0,0.0,0.0,0.0,0.0,0.0,0.0,0.0,0.0,0.0,0.0,0.0,0.0,0.0,0.0,0.0,0.0,0.0,0.0,0.0,0.0,0.0,0.0,0.0,0.0,0.0,0.0,0.0,0.0,0.0,0.0,0.0,0.0,0.0,0.0,0.0,0.0,0.0,0.0,0.0,0.0,0.0,0.0,0.0,0.0,0.0,0.0,0.0,0.0,0.0,0.0,0.0,0.0,0.0,0.0,0.0,0.0,0.0,0.0,0.0,0.0,0.0,0.0,0.0,0.0,0.0,0.0,0.0,0.0,0.0,0.0,0.0,0.0,0.0,0.0,0.0,0.0,0.0,0.0,0.0,0.0,0.0,0.0,0.0,0.0,0.0,0.0,0.0,0.0,0.0,0.0,0.0,0.0,0.0,0.0,0.0,0.0,0.0,0.0,0.0,0.0,0.0,0.0,0.0,0.0,0.0,0.0,0.0,0.0,0.0,0.0,0.0,0.0,0.0,0.0,0.0,0.0,0.0,0.0,0.0,0.0,0.0,0.0,0.0,0.0,0.0,0.0,0.0,0.0,0.0,0.0,0.0,0.0,0.0,0.0,0.0,0.0,0.0,0.0,0.0,0.0,0.0,0.0,0.0,0.0,0.0,0.0,0.0,0.0,0.0,0.0,0.0,0.0,0.0,0.0,0.0,0.0,0.0,0.0,0.0,0.0,0.0,0.0,0.0,0.0,0.0,0.0,0.0,0.0,0.0,0.0,0.0,0.0,0.0,0.0,0.0,0.0,0.0,0.0,0.0,0.0,0.0,0.0,0.0,0.0,0.0,0.0,0.0,0.0,0.0,0.0,0.0,0.0,0.0,0.0,0.0,0.0,0.0,0.0,0.0,0.0,0.0,0.0,0.0,0.0,0.0,0.0,0.0,0.0,0.0,0.0,0.0,0.0,0.0,0.0,0.0,0.0,0.0,0.0,0.0,0.0,0.0,0.0,0.0,0.0,0.0,0.0,0.0,0.0,0.0,0.0,0.0,0.0,0.0,0.0,0.0,0.0,0.0,0.0,0.0,0.0,0.0,0.0,0.0,0.0,0.0,0.0,0.0,0.0,0.0,0.0,0.0,0.0,0.0,0.0,0.0,0.0,0.0,0.0,0.0,0.0,0.0,0.0,0.0,0.0,0.0,0.0,0.0,0.0,0.0,0.0,0.0,0.0,0.0,0.0,0.0,0.0,0.0,0.0,0.0,0.0,0.0,0.0,0.0,0.0,0.0,0.0,0.0,0.0,0.0,0.0,0.0,0.0,0.0,0.0,0.0,0.0,0.0,0.0,0.0,0.0,0.0,0.0,0.0,0.0,0.0,0.0,0.0,0.0,0.0,0.0,0.0,0.0,0.0,0.0,0.0,0.0,0.0,0.0,0.0,0.0,0.0,0.0,0.0,0.0,0.0,0.0,0.0,0.0,0.0,0.0,0.0,0.0,0.0,0.0,0.0,0.0,0.0,0.0,0.0,0.0,0.0,0.0,0.0,0.0,0.0,0.0,0.0,0.0,0.0,0.0,0.0,0.0,0.0,0.0,0.0,0.0,0.0,0.0,0.0,0.0,0.0,0.0,0.0,0.0,0.0,0.0,0.0,0.0,0.0,0.0,0.0,0.0,0.0,0.0,0.0,0.0,0.0,0.0,0.0,0.0,0.0,0.0,0.0,0.0,0.0,0.0,0.0,0.0,0.0,0.0,0.0,0.0,0.0,0.0,0.0,0.0,0.0,0.0,0.0,0.0,0.0,0.0,0.0,0.0,0.0,0.0,0.0,0.0,0.0,0.0,0.0,0.0,0.0,0.0,0.0,0.0,0.0,0.0,0.0,0.0,0.0,0.0,0.0,0.0,0.0,0.0,0.0,0.0,0.0,0.0,0.0,0.0,0.0,0.0,0.0,0.0,0.0,0.0,0.0,0.0,0.0,0.0,0.0,0.0,0.0,0.0,0.0,0.0,0.0,0.0,0.0,0.0,0.0,0.0,0.0,0.0,0.0,0.0,0.0,0.0,0.0,0.0,0.0,0.0,0.0,0.0,0.0,0.0,0.0,0.0,0.0,0.0,0.0,0.0,0.0,0.0,0.0,0.0,0.0,0.0,0.0,0.0,0.0,0.0,0.0,0.0,0.0,0.0,0.0,0.0,0.0,0.0,0.0,0.0,0.0,0.0,0.0,0.0,0.0,0.0,0.0,0.0,0.0,0.0,0.0,0.0,0.0,0.0,0.0,0.0,0.0,0.0,0.0,0.0,0.0,0.0,0.0,0.0,0.0,0.0,0.0,0.0,0.0,0.0,0.0,0.0,0.0,0.0,0.0,0.0,0.0,0.0,0.0,0.0,0.0,0.0,0.0,0.0,0.0,0.0,0.0,0.0,0.0,0.0,0.0,0.0,0.0,0.0,0.0,0.0,0.0,0.0,0.0,0.0,0.0,0.0,0.0,0.0,0.0,0.0,0.0,0.0,0.0,0.0,0.0,0.0,0.0,0.0,0.0,0.0,0.0,0.0,0.0,0.0,0.0,0.0,0.0,0.0,0.0,0.0,0.0,0.0,0.0,0.0,0.0,0.0,0.0,0.0,0.0,0.0,0.0,0.0,0.0,0.0,0.0,0.0,0.0,0.0,0.0,0.0,0.0,0.0,0.0,0.0,0.0,0.0,0.0,0.0,0.0,0.0,0.0,0.0,0.0,0.0,0.0,0.0,0.0,0.0,0.0,0.0,0.0,0.0,0.0,0.0,0.0,0.0,0.0,0.0,0.0,0.0,0.0,0.0,0.0,0.0,0.0,0.0,0.0,0.0,0.0,0.0,0.0,0.0,0.0,0.0,0.0,0.0,0.0,0.0,0.0,0.0,0.0,0.0,0.0,0.0,0.0,0.0,0.0,0.0,0.0,0.0,0.0,0.0,0.0,0.0,0.0,0.0,0.0,0.0,0.0,0.0,0.0,0.0,0.0,0.0,0.0,0.0,0.0,0.0,0.0,0.0,0.0,0.0,0.0,0.0,0.0,0.0,0.0,0.0,0.0,0.0,0.0,0.0,0.0,0.0,0.0,0.0,0.0,0.0,0.0,0.0,0.0,0.0,0.0,0.0,0.0,0.0,0.0,0.0,0.0,0.0,0.0,0.0,0.0,0.0,0.0,0.0,0.0,0.0,0.0,0.0,0.0,0.0,0.0,0.0,0.0,0.0,0.0,0.0,0.0,0.0,0.0,0.0,0.0,0.0,0.0,0.0,0.0,0.0,0.0,0.0,0.0,0.0,0.0,0.0,0.0,0.0,0.0,0.0,0.0,0.0,0.0,0.0,0.0,0.0,0.0,0.0,0.0,0.0,0.0,0.0,0.0,0.0,0.0,0.0,0.0,0.0,0.0,0.0,0.0,0.0,0.0,0.0,0.0,0.0,0.0,0.0,0.0,0.0,0.0,0.0,0.0,0.0,0.0,0.0,0.0,0.0,0.0,0.0,0.0,0.0,0.0,0.0,0.0,0.0,0.0,0.0,0.0,0.0,0.0,0.0,0.0,0.0,0.0,0.0,0.0,0.0,0.0,0.0,0.0,0.0,0.0,0.0,0.0,0.0,0.0,0.0,0.0,0.0,0.0,0.0,0.0,0.0,0.0,0.0,0.0,0.0,0.0,0.0,0.0,0.0,0.0,0.0,0.0,0.0,0.0,0.0,0.0,0.0,0.0,0.0,0.0,0.0,0.0,0.0,0.0,0.0,0.0,0.0,0.0,0.0,0.0,0.0,0.0,0.0,0.0,0.0,0.0,0.0,0.0,0.0,0.0,0.0,0.0,0.0,0.0,0.0,0.0,0.0,0.0,0.0,0.0,0.0,0.0,0.0,0.0,0.0,0.1089,0.0,0.0,0.0,0.0,0.0,0.0,0.0,0.0,0.0,0.0,0.0,0.0,0.0,0.0,0.0,0.0,0.0,0.0,0.0,0.0,0.0,0.0,0.0,0.0,0.0,0.0,0.0,0.0,0.0,0.0,0.0,0.0,0.0,0.0,0.0,0.0,0.0,0.0,0.0,0.0,0.0,0.0,0.0,0.0,0.0,0.0,0.0,0.0,0.0,0.0,0.0,0.0,0.0,0.0,0.0,0.0,0.0,0.0,0.0,0.0,0.0,0.0,0.0,0.0,0.0,0.0,0.0,0.0,0.0,0.0,0.0,0.0,0.0,0.0,0.0,0.0,0.0,0.0,0.0,0.0,0.0,0.0,0.0,0.0,0.0,0.0,0.0,0.0,0.0,0.0,0.0,0.0,0.0,0.0,0.0,0.0,0.0,0.0,0.0,0.0,0.0,0.0,0.0,0.0,0.0,0.0,0.0,0.0,0.0,0.0,0.1555,0.2088,0.1752,0.1548,0.1479,0.0,0.0,0.0,0.0,0.0,0.0,0.0,0.0,0.0,0.0,0.0,0.0,0.0,0.0,0.0,0.0,0.0,0.0,0.0,0.0,0.0,0.0,0.0,0.0,0.0,0.0,0.0,0.0,0.0,0.0,0.0,0.0,0.0,0.0,0.0,0.0,0.0,0.0,0.0,0.0,0.0,0.0,0.0,0.0,0.0,0.0,0.0,0.0,0.0,0.0,0.0,0.0,0.0,0.0,0.0,0.0,0.0,0.0,0.0,0.0,0.0,0.0,0.0,0.0,0.0,0.0,0.0,0.0,0.0,0.0,0.0,0.0,0.0,0.0,0.0,0.0,0.0,0.0,0.0,0.0,0.0,0.0,0.0,0.0,0.0,0.0,0.0,0.0,0.0,0.0,0.0,0.0,0.0,0.0,0.0,0.0,0.0,0.0,0.0,0.0,0.0,0.0,0.0,0.0,0.0,0.0,0.0,0.0,0.0,0.0,0.0,0.0,0.2168,0.1869,0.1738,0.0,0.0,0.0,0.0,0.0,0.0,0.0,0.0,0.0,0.0,0.0,0.0,0.0,0.0,0.0,0.0,0.0,0.0,0.0,0.0,0.0,0.0,0.0,0.0,0.0,0.0,0.0,0.0,0.0,0.0,0.0,0.0,0.0,0.0,0.0,0.0,0.0,0.0,0.0,0.0,0.0,0.0,0.0,0.0,0.0,0.0,0.0,0.0,0.0,0.0,0.0,0.0,0.0,0.0,0.0,0.0,0.0,0.0,0.0,0.0,0.0,0.0,0.0,0.0,0.0,0.0,0.0,0.0,0.0,0.0,0.0,0.0,0.0,0.0,0.0,0.0,0.0,0.0,0.0,0.0,0.0,0.0,0.0,0.0,0.0,0.0,0.0,0.0,0.0,0.0,0.0,0.0,0.0,0.0,0.0,0.0,0.0,0.0,0.0,0.0,0.0,0.0,0.0,0.0,0.0,0.0,0.0,0.0,0.0,0.0,0.1422,0.3161,0.2667,0.0,0.1889,0.0,0.0,0.0,0.0,0.0,0.0,0.0,0.0,0.0,0.0,0.0,0.0,0.0,0.0,0.0,0.0,0.0,0.0,0.0,0.0,0.0,0.0,0.0,0.0,0.0,0.0,0.0,0.0,0.0,0.0,0.0,0.0,0.0,0.0,0.0,0.0,0.0,0.0,0.0,0.0,0.0,0.0,0.0,0.0,0.0,0.0,0.0,0.0,0.0,0.0,0.0,0.0,0.0,0.0,0.0,0.0,0.0,0.0,0.0,0.0,0.0,0.0,0.0,0.0,0.0,0.0,0.0,0.0,0.0,0.0,0.0,0.0,0.0,0.0,0.0,0.0,0.0,0.0,0.0,0.0,0.0,0.0,0.0,0.0,0.0,0.0,0.0,0.0,0.0,0.0,0.0,0.0,0.0,0.0,0.0,0.0,0.0,0.0,0.0,0.0,0.0,0.0,0.0,0.0,0.0,0.0,0.0,0.0,0.0,0.0,0.2747,0.3917,0.3329,0.2859,0.0,0.0,0.0,0.0,0.0,0.0,0.0,0.0,0.0,0.0,0.0,0.0,0.0,0.0,0.0,0.0,0.0,0.0,0.0,0.0,0.0,0.0,0.0,0.0,0.0,0.0,0.0,0.0,0.0,0.0,0.0,0.0,0.0,0.0,0.0,0.0,0.0,0.0,0.0,0.0,0.0,0.0,0.0,0.0,0.0,0.0,0.0,0.0,0.0,0.0,0.0,0.0,0.0,0.0,0.0,0.0,0.0,0.0,0.0,0.0,0.0,0.0,0.0,0.0,0.0,0.0,0.0,0.0,0.0,0.0,0.0,0.0,0.0,0.0,0.0,0.0,0.0,0.0,0.0,0.0,0.0,0.0,0.0,0.0,0.0,0.0,0.0,0.0,0.0,0.0,0.0,0.0,0.0,0.0,0.0,0.0,0.0,0.0,0.0,0.0,0.0,0.0,0.0,0.0,0.0,0.0,0.0,0.0,0.0,0.0,0.3252,0.3959,0.4524,0.3931,0.3428,0.308,0.0,0.0,0.0,0.0,0.0,0.0,0.0,0.0,0.0,0.0,0.0,0.0,0.0,0.0,0.0,0.0,0.0,0.0,0.0,0.0,0.0,0.0,0.0,0.0,0.0,0.0,0.0,0.0,0.0,0.0,0.0,0.0,0.0,0.0,0.0,0.0,0.0,0.0,0.0,0.0,0.0,0.0,0.0,0.0,0.0,0.0,0.0,0.0,0.0,0.0,0.0,0.0,0.0,0.0,0.0,0.0,0.0,0.0,0.0,0.0,0.0,0.0,0.0,0.0,0.0,0.0,0.0,0.0,0.0,0.0,0.0,0.0,0.0,0.0,0.0,0.0,0.0,0.0,0.0,0.0,0.0,0.0,0.0,0.0,0.0,0.0,0.0,0.0,0.0,0.0,0.0,0.0,0.0,0.0,0.0,0.0,0.0,0.0,0.0,0.0,0.0,0.0,0.0,0.0,0.0,0.0,0.0,0.0,0.4109,0.4266,0.4551,0.51,0.4372,0.3729,0.0,0.0,0.0,0.0,0.0,0.0,0.0,0.0,0.0,0.0,0.0,0.0,0.0,0.0,0.0,0.0,0.0,0.0,0.0,0.0,0.0,0.0,0.0,0.0,0.0,0.0,0.0,0.0,0.0,0.0,0.0,0.0,0.0,0.0,0.0,0.0,0.0,0.0,0.0,0.0,0.0,0.0,0.0,0.0,0.0,0.0,0.0,0.0,0.0,0.0,0.0,0.0,0.0,0.0,0.0,0.0,0.0,0.0,0.0,0.0,0.0,0.0,0.0,0.0,0.0,0.0,0.0,0.0,0.0,0.0,0.0,0.0,0.0,0.0,0.0,0.0,0.0,0.0,0.0,0.0,0.0,0.0,0.0,0.0,0.0,0.0,0.0,0.0,0.0,0.0,0.0,0.0,0.0,0.0,0.0,0.0,0.0,0.0,0.0,0.0,0.0,0.0,0.0,0.0,0.0,0.0,0.0,0.0,0.0,0.4503,0.4682,0.4637,0.4547,0.4153,0.3744,0.0,0.0,0.0,0.0,0.0,0.0,0.0,0.0,0.0,0.0,0.0,0.0,0.0,0.0,0.0,0.0,0.0,0.0,0.0,0.0,0.0,0.0,0.0,0.0,0.0,0.0,0.0,0.0,0.0,0.0,0.0,0.0,0.0,0.0,0.0,0.0,0.0,0.0,0.0,0.0,0.0,0.0,0.0,0.0,0.0,0.0,0.0,0.0,0.0,0.0,0.0,0.0,0.0,0.0,0.0,0.0,0.0,0.0,0.0,0.0,0.0,0.0,0.0,0.0,0.0,0.0,0.0,0.0,0.0,0.0,0.0,0.0,0.0,0.0,0.0,0.0,0.0,0.0,0.0,0.0,0.0,0.0,0.0,0.0,0.0,0.0,0.0,0.0,0.0,0.0,0.0,0.0,0.0,0.0,0.0,0.0,0.0,0.0,0.0,0.0,0.0,0.0,0.0,0.0,0.0,0.0,0.0,0.0,0.0,0.4942,0.0,0.4757,0.4558,0.4408,0.4076,0.0,0.0,0.0,0.0,0.0,0.0,0.0,0.0,0.0,0.0,0.0,0.0,0.0,0.0,0.0,0.0,0.0,0.0,0.0,0.0,0.0,0.0,0.0,0.0,0.0,0.0,0.0,0.0,0.0,0.0,0.0,0.0,0.0,0.0,0.0,0.0,0.0,0.0,0.0,0.0,0.0,0.0,0.0,0.0,0.0,0.0,0.0,0.0,0.0,0.0,0.0,0.0,0.0,0.0,0.0,0.0,0.0,0.0,0.0,0.0,0.0,0.0,0.0,0.0,0.0,0.0,0.0,0.0,0.0,0.0,0.0,0.0,0.0,0.0,0.0,0.0,0.0,0.0,0.0,0.0,0.0,0.0,0.0,0.0,0.0,0.0,0.0,0.0,0.0,0.0,0.0,0.0,0.0,0.0,0.0,0.0,0.0,0.0,0.0,0.0,0.0,0.0,0.0,0.0,0.0,0.0,0.0,0.0,0.3115,0.5463,0.5097,0.4978,0.5273,0.5174,0.4793,0.0,0.0,0.0,0.0,0.0,0.0,0.0,0.0,0.0,0.0,0.0,0.0,0.0,0.0,0.0,0.0,0.0,0.0,0.0,0.0,0.0,0.0,0.0,0.0,0.0,0.0,0.0,0.0,0.0,0.0,0.0,0.0,0.0,0.0,0.0,0.0,0.0,0.0,0.0,0.0,0.0,0.0,0.0,0.0,0.0,0.0,0.0,0.0,0.0,0.0,0.0,0.0,0.0,0.0,0.0,0.0,0.0,0.0,0.0,0.0,0.0,0.0,0.0,0.0,0.0,0.0,0.0,0.0,0.0,0.0,0.0,0.0,0.0,0.0,0.0,0.0,0.0,0.0,0.0,0.0,0.0,0.0,0.0,0.0,0.0,0.0,0.0,0.0,0.0,0.0,0.0,0.0,0.0,0.0,0.0,0.0,0.0,0.0,0.0,0.0,0.0,0.0,0.0,0.0,0.0,0.0,0.0,0.0,0.0,0.5869,0.5672,0.5442,0.5227,0.4945,0.4803,0.0,0.0,0.0,0.0,0.0,0.0,0.0,0.0,0.0,0.0,0.0,0.0,0.0,0.0,0.0,0.0,0.0,0.0,0.0,0.0,0.0,0.0,0.0,0.0,0.0,0.0,0.0,0.0,0.0,0.0,0.0,0.0,0.0,0.0,0.0,0.0,0.0,0.0,0.0,0.0,0.0,0.0,0.0,0.0,0.0,0.0,0.0,0.0,0.0,0.0,0.0,0.0,0.0,0.0,0.0,0.0,0.0,0.0,0.0,0.0,0.0,0.0,0.0,0.0,0.0,0.0,0.0,0.0,0.0,0.0,0.0,0.0,0.0,0.0,0.0,0.0,0.0,0.0,0.0,0.0,0.0,0.0,0.0,0.0,0.0,0.0,0.0,0.0,0.0,0.0,0.0,0.0,0.0,0.0,0.0,0.0,0.0,0.0,0.0,0.0,0.0,0.0,0.0,0.0,0.0,0.0,0.0,0.0,0.0,0.8236,0.7349,0.6878,0.6914,0.6172,0.5506,0.4977,0.0,0.0,0.0,0.0,0.0,0.0,0.0,0.0,0.0,0.0,0.0,0.0,0.0,0.0,0.0,0.0,0.0,0.0,0.0,0.0,0.0,0.0,0.0,0.0,0.0,0.0,0.0,0.0,0.0,0.0,0.0,0.0,0.0,0.0,0.0,0.0,0.0,0.0,0.0,0.0,0.0,0.0,0.0,0.0,0.0,0.0,0.0,0.0,0.0,0.0,0.0,0.0,0.0,0.0,0.0,0.0,0.0,0.0,0.0,0.0,0.0,0.0,0.0,0.0,0.0,0.0,0.0,0.0,0.0,0.0,0.0,0.0,0.0,0.0,0.0,0.0,0.0,0.0,0.0,0.0,0.0,0.0,0.0,0.0,0.0,0.0,0.0,0.0,0.0,0.0,0.0,0.0,0.0,0.0,0.0,0.0,0.0,0.0,0.0,0.0,0.0,0.0,0.0,0.0,0.0,0.0,0.0,0.0,1.2329,1.016,0.9381,1.0056,0.8658,0.6981,0.0,0.0,0.0,0.0,0.0,0.0,0.0,0.0,0.0,0.0,0.0,0.0,0.0,0.0,0.0,0.0,0.0,0.0,0.0,0.0,0.0,0.0,0.0,0.0,0.0,0.0,0.0,0.0,0.0,0.0,0.0,0.0,0.0,0.0,0.0,0.0,0.0,0.0,0.0,0.0,0.0,0.0,0.0,0.0,0.0,0.0,0.0,0.0,0.0,0.0,0.0,0.0,0.0,0.0,0.0,0.0,0.0,0.0,0.0,0.0,0.0,0.0,0.0,0.0,0.0,0.0,0.0,0.0,0.0,0.0,0.0,0.0,0.0,0.0,0.0,0.0,0.0,0.0,0.0,0.0,0.0,0.0,0.0,0.0,0.0,0.0,0.0,0.0,0.0,0.0,0.0,0.0,0.0,0.0,0.0,0.0,0.0,0.0,0.0,0.0,0.0,0.0,0.0,0.0,0.0,0.0,0.0,0.0,0.0,1.6172,1.5573,1.4707,1.3572,1.1147,0.9554,0.0,0.0,0.0,0.0,0.0,0.0,0.0,0.0,0.0,0.0,0.0,0.0,0.0,0.0,0.0,0.0,0.0,0.0,0.0,0.0,0.0,0.0,0.0,0.0,0.0,0.0,0.0,0.0,0.0,0.0,0.0,0.0,0.0,0.0,0.0,0.0,0.0,0.0,0.0,0.0,0.0,0.0,0.0,0.0,0.0,0.0,0.0,0.0,0.0,0.0,0.0,0.0,0.0,0.0,0.0,0.0,0.0,0.0,0.0,0.0,0.0,0.0,0.0,0.0,0.0,0.0,0.0,0.0,0.0,0.0,0.0,0.0,0.0,0.0,0.0,0.0,0.0,0.0,0.0,0.0,0.0,0.0,0.0,0.0,0.0,0.0,0.0,0.0,0.0,0.0,0.0,0.0,0.0,0.0,0.0,0.0,0.0,0.0,0.0,0.0,0.0,0.0,0.0,0.0,0.0,0.0,0.0,0.0,1.6043,1.8007,1.9499,1.9781,1.8797,1.4387,1.1534,0.0,0.0,0.0,0.0,0.0,0.0,0.0,0.0,0.0,0.0,0.0,0.0,0.0,0.0,0.0,0.0,0.0,0.0,0.0,0.0,0.0,0.0,0.0,0.0,0.0,0.0,0.0,0.0,0.0,0.0,0.0,0.0,0.0,0.0,0.0,0.0,0.0,0.0,0.0,0.0,0.0,0.0,0.0,0.0,0.0,0.0,0.0,0.0,0.0,0.0,0.0,0.0,0.0,0.0,0.0,0.0,0.0,0.0,0.0,0.0,0.0,0.0,0.0,0.0,0.0,0.0,0.0,0.0,0.0,0.0,0.0,0.0,0.0,0.0,0.0,0.0,0.0,0.0,0.0,0.0,0.0,0.0,0.0,0.0,0.0,0.0,0.0,0.0,0.0,0.0,0.0,0.0,0.0,0.0,0.0,0.0,0.0,0.0,0.0,0.0,0.0,0.0,0.0,0.0,0.0,0.0,0.0,0.0,1.7348,1.8842,2.2181,2.3994,2.3977,1.7721,1.3249,0.0,0.0,0.0,0.0,0.0,0.0,0.0,0.0,0.0,0.0,0.0,0.0,0.0,0.0,0.0,0.0,0.0,0.0,0.0,0.0,0.0,0.0,0.0,0.0,0.0,0.0,0.0,0.0,0.0,0.0,0.0,0.0,0.0,0.0,0.0,0.0,0.0,0.0,0.0,0.0,0.0,0.0,0.0,0.0,0.0,0.0,0.0,0.0,0.0,0.0,0.0,0.0,0.0,0.0,0.0,0.0,0.0,0.0,0.0,0.0,0.0,0.0,0.0,0.0,0.0,0.0,0.0,0.0,0.0,0.0,0.0,0.0,0.0,0.0,0.0,0.0,0.0,0.0,0.0,0.0,0.0,0.0,0.0,0.0,0.0,0.0,0.0,0.0,0.0,0.0,0.0,0.0,0.0,0.0,0.0,0.0,0.0,0.0,0.0,0.0,0.0,0.0,0.0,0.0,0.0,0.0,0.0,0.0,1.9684,2.1665,2.3303,2.4254,2.4471,1.8911,1.5471,0.0,0.0,0.0,0.0,0.0,0.0,0.0,0.0,0.0,0.0,0.0,0.0,0.0,0.0,0.0,0.0,0.0,0.0,0.0,0.0,0.0,0.0,0.0,0.0,0.0,0.0,0.0,0.0,0.0,0.0,0.0,0.0,0.0,0.0,0.0,0.0,0.0,0.0,0.0,0.0,0.0,0.0,0.0,0.0,0.0,0.0,0.0,0.0,1.4041,0.0,0.0,0.0,0.0,0.0,0.0,0.0,0.0,0.0,0.0,0.0,0.0,0.0,0.0,0.0,0.0,0.0,0.0,0.0,0.0,0.0,0.0,0.0,0.0,0.0,0.0,0.0,0.0,0.0,0.0,0.0,0.0,0.0,0.0,0.0,0.0,0.0,0.0,0.0,0.0,0.0,0.0,0.0,0.0,0.0,0.0,0.0,0.0,0.0,0.0,0.0,0.0,0.0,0.0,0.0,0.0,0.0,0.0,0.0,2.0133,2.2539,2.3971,2.4762,2.4746,2.0861,1.7881,0.0,0.0,0.0,0.0,0.0,0.0,0.0,0.0,0.0,0.0,0.0,0.0,0.0,0.0,0.0,0.0,0.0,0.0,0.0,0.0,0.0,0.0,0.0,0.0,0.0,0.0,0.0,0.0,0.0,0.0,0.0,0.0,0.0,0.0,0.0,0.0,0.0,0.0,0.0,0.0,0.0,0.0,0.0,0.0,0.0,0.0,0.0,0.0,0.0,0.0,0.0,0.0,0.0,0.0,0.0,0.0,0.0,0.0,0.0,0.0,0.0,0.0,0.0,0.0,0.0,0.0,0.0,0.0,0.0,0.0,0.0,0.0,0.0,0.0,0.0,0.0,0.0,0.0,0.0,0.0,0.0,0.0,0.0,0.0,0.0,0.0,0.0,0.0,0.0,0.0,0.0,0.0,0.0,0.0,0.0,0.0,0.0,0.0,0.0,0.0,0.0,0.0,0.0,0.0,0.0,0.0,0.0,1.7956,1.9996,2.2896,2.4448,2.5197,2.5164,2.2623,1.9819,1.6875,0.0,0.0,0.0,0.0,0.0,0.0,0.0,0.0,0.0,0.0,0.0,0.0,0.0,0.0,0.0,0.0,0.0,0.0,0.0,0.0,0.0,0.0,0.0,0.0,0.0,0.0,0.0,0.0,0.0,0.0,0.0,0.0,0.0,0.0,0.0,0.0,0.0,0.0,1.1969,1.2673,0.0,0.0,0.0,0.0,0.0,0.0,0.0,0.0,1.5209,0.0,0.0,0.0,0.0,0.0,0.0,0.0,0.0,0.0,0.0,0.0,0.0,0.0,0.0,0.0,0.0,0.0,0.0,0.0,0.0,0.0,0.0,0.0,0.0,0.0,0.0,0.0,0.0,0.0,0.0,0.0,0.0,0.0,0.0,0.0,0.0,0.0,0.0,0.0,0.0,0.0,0.0,0.0,0.0,0.0,0.0,0.0,0.0,0.0,0.0,0.0,0.0,0.0,0.0,0.0,0.0,1.953,1.9107,2.0758,2.4643,2.4788,2.4943,2.51,2.2459,1.9876,1.7562,0.0,0.0,0.0,0.0,0.0,0.0,0.0,0.0,0.0,0.0,0.0,0.0,0.0,0.0,0.0,0.0,0.0,0.0,0.0,0.0,0.0,0.0,0.0,0.0,0.0,0.0,0.0,0.0,0.0,0.0,0.0,0.0,0.0,0.0,0.0,0.0,0.0,0.0,0.0,1.1825,1.2172,0.0,0.0,0.0,0.0,0.0,0.0,0.0,0.0,1.5698,0.0,0.0,0.0,0.0,0.0,0.0,0.0,0.0,0.0,0.0,0.0,0.0,0.0,0.0,0.0,0.0,0.0,0.0,0.0,0.0,0.0,0.0,0.0,0.0,0.0,0.0,0.0,0.0,0.0,0.0,0.0,0.0,0.0,0.0,0.0,0.0,0.0,0.0,0.0,0.0,0.0,0.0,0.0,0.0,0.0,0.0,0.0,0.0,0.0,0.0,0.0,0.0,0.0,0.0,0.0,1.9514,1.9892,2.1492,2.449,2.4467,2.4561,2.4834,2.2293,2.0017,0.0,0.0,0.0,0.0,0.0,0.0,0.0,0.0,0.0,0.0,0.0,0.0,0.0,0.0,0.0,0.0,0.0,0.0,0.0,0.0,0.0,0.0,0.0,0.0,0.0,0.0,0.0,0.0,0.0,0.0,0.0,0.0,0.0,0.0,0.0,0.0,0.0,0.0,0.0,0.0,1.2756,1.3342,1.4773,0.0,0.0,0.0,0.0,0.0,0.0,1.6105,1.6352,0.0,0.0,0.0,0.0,0.0,0.0,0.0,0.0,0.0,0.0,0.0,0.0,0.0,0.0,0.0,0.0,0.0,0.0,0.0,0.0,0.0,0.0,0.0,0.0,0.0,0.0,0.0,0.0,0.0,0.0,0.0,0.0,0.0,0.0,0.0,0.0,0.0,0.0,0.0,0.0,0.0,0.0,0.0,0.0,0.0,0.0,0.0,0.0,0.0,0.0,0.0,0.0,0.0,0.0,0.0,1.9061,2.0226,2.1801,2.3746,2.3857,2.4008,2.4288,2.1459,1.9412,0.0,0.0,0.0,0.0,0.0,0.0,0.0,0.0,0.0,0.0,0.0,0.0,0.0,0.0,0.0,0.0,0.0,0.0,0.0,0.0,0.0,0.0,0.0,0.0,0.0,0.0,0.0,0.0,0.0,0.0,0.0,0.0,0.0,0.0,0.0,0.0,0.0,0.0,0.0,0.0,0.0,1.4736,1.5458,1.5855,0.0,0.0,0.0,0.0,1.6282,1.6582,0.0,0.0,0.0,0.0,0.0,0.0,0.0,0.0,0.0,0.0,0.0,0.0,0.0,0.0,0.0,0.0,0.0,0.0,0.0,0.0,0.0,0.0,0.0,0.0,0.0,0.0,0.0,0.0,0.0,0.0,0.0,0.0,0.0,0.0,0.0,0.0,0.0,0.0,0.0,0.0,0.0,0.0,0.0,0.0,0.0,0.0,0.0,0.0,0.0,0.0,0.0,0.0,0.0,0.0,0.0,0.0,1.8808,1.9689,2.1058,2.2936,2.3041,2.3195,2.346,1.9022,1.6978,0.0,0.0,0.0,0.0,0.0,0.0,0.0,0.0,0.0,0.0,0.0,0.0,0.0,0.0,0.0,0.0,0.0,0.0,0.0,0.0,0.0,0.0,0.0,0.0,0.0,0.0,0.0,0.0,0.0,0.0,0.0,0.0,0.0,0.0,0.0,0.0,0.0,0.0,0.0,0.0,0.0,1.4569,1.5304,1.5161,1.5153,0.0,0.0,1.6703,1.6634,1.7249,0.0,0.0,0.0,0.0,0.0,0.0,0.0,0.0,0.0,0.0,0.0,0.0,0.0,0.0,0.0,0.0,0.0,0.0,0.0,0.0,0.0,0.0,0.0,0.0,0.0,0.0,0.0,0.0,0.0,0.0,0.0,0.0,0.0,0.0,0.0,0.0,0.0,0.0,0.0,0.0,0.0,0.0,0.0,0.0,0.0,0.0,0.0,0.0,0.0,0.0,0.0,0.0,0.0,0.0,0.0,1.7309,1.8252,2.003,2.1443,2.241,2.2669,2.2863,2.3053,1.8445,1.6694,0.0,0.0,0.0,0.0,0.0,0.0,0.0,0.0,0.0,0.0,0.0,0.0,0.0,0.0,0.0,0.0,0.0,0.0,0.0,0.0,0.0,0.0,0.0,0.0,0.0,0.0,0.0,0.0,0.0,0.0,0.0,0.0,0.0,0.0,0.0,0.0,0.0,0.0,0.0,0.0,0.0,0.0,1.5468,1.5792,0.0,0.0,0.0,1.6675,1.6233,0.0,0.0,0.0,0.0,0.0,0.0,0.0,0.0,0.0,0.0,0.0,0.0,0.0,0.0,0.0,0.0,0.0,0.0,0.0,0.0,0.0,0.0,0.0,0.0,0.0,0.0,0.0,0.0,0.0,0.0,0.0,0.0,0.0,0.0,0.0,0.0,0.0,0.0,0.0,0.0,0.0,0.0,0.0,0.0,0.0,0.0,0.0,0.0,0.0,0.0,0.0,0.0,0.0,0.0,0.0,0.0,0.0,1.7586,2.0246,2.1698,2.1811,2.2209,2.2402,2.2319,1.854,0.0,0.0,0.0,0.0,0.0,0.0,0.0,0.0,0.0,0.0,0.0,0.0,0.0,0.0,0.0,0.0,0.0,0.0,0.0,0.0,0.0,0.0,0.0,0.0,0.0,0.0,0.0,0.9818,0.0,0.0,0.0,0.0,0.0,0.0,0.0,0.0,0.0,0.0,0.0,0.0,0.0,0.0,1.6526,1.568,1.6324,1.6929,0.0,0.0,1.6758,1.6275,1.732,1.7978,0.0,0.0,0.0,0.0,0.0,0.0,0.0,0.0,0.0,0.0,0.0,0.0,0.0,0.0,0.0,0.0,0.0,0.0,0.0,0.0,0.0,0.0,0.0,0.0,0.0,0.0,0.0,0.0,0.0,0.0,0.0,0.0,0.0,0.0,0.0,0.0,0.0,0.0,0.0,0.0,0.0,0.0,0.0,0.0,0.0,0.0,0.0,0.0,0.0,0.0,0.0,0.0,0.0,0.0,1.7591,1.7018,1.9927,2.1337,2.1007,2.1433,2.1556,2.1275,1.9197,1.7781,0.0,0.0,0.0,0.0,0.0,0.0,0.0,0.0,0.0,0.0,0.0,0.0,0.0,0.0,0.0,0.0,0.0,0.0,0.0,0.0,0.0,0.0,0.0,0.0,0.0,0.0,0.0,0.0,0.0,0.0,0.0,0.0,0.0,0.0,0.0,0.0,0.0,0.0,0.0,0.0,0.0,1.7505,1.5907,1.6269,1.6923,0.0,1.7092,1.6895,1.7393,1.8012,1.8115,1.7015,0.0,0.0,0.0,0.0,0.0,0.0,0.0,0.0,0.0,0.0,0.0,0.0,0.0,0.0,0.0,0.0,0.0,0.0,0.0,0.0,0.0,0.0,0.0,0.0,0.0,0.0,0.0,0.0,0.0,0.0,0.0,0.0,0.0,0.0,0.0,0.0,0.0,0.0,0.0,0.0,0.0,0.0,0.0,0.0,0.0,0.0,0.0,0.0,0.0,0.0,0.0,0.0,0.0,1.6846,1.6894,1.9384,2.0632,2.0481,2.0781,2.0846,2.0665,1.8649,1.7379,0.0,0.0,0.0,0.0,0.0,0.0,0.0,0.0,0.0,0.0,0.0,0.0,0.0,0.0,0.0,0.0,0.0,0.0,0.0,0.0,0.0,0.0,0.0,0.0,0.0,0.0,0.0,0.0,1.2188,1.2638,1.3056,0.0,0.0,0.0,0.0,0.0,0.0,0.0,0.0,0.0,0.0,1.718,1.693,1.7098,0.0,0.0,1.7407,1.7197,1.7056,1.7571,1.7579,1.6366,1.6216,0.0,0.0,0.0,0.0,0.0,0.0,0.0,0.0,0.0,0.0,0.0,0.0,0.0,0.0,0.0,0.0,0.0,0.0,0.0,0.0,0.0,0.0,0.0,0.0,0.0,0.0,0.0,0.0,0.0,0.0,0.0,0.0,0.0,0.0,0.0,0.0,0.0,0.0,0.0,0.0,0.0,0.0,0.0,0.0,0.0,0.0,0.0,0.0,0.0,0.0,0.0,0.0,1.6265,1.6929,1.898,2.0158,2.0413,2.0467,2.0485,2.0317,1.884,1.7728,0.0,0.0,0.0,0.0,0.0,0.0,0.0,0.0,0.0,0.0,0.0,0.0,0.0,0.0,0.0,0.0,0.0,0.0,0.0,0.0,0.0,0.0,0.0,0.0,0.0,0.0,0.0,0.0,1.2668,1.2875,1.3431,0.0,0.0,0.0,0.0,0.0,0.0,0.0,0.0,0.0,0.0,1.7323,1.7576,1.7604,1.766,1.7843,1.7562,1.7239,1.7,1.7345,1.7305,1.6259,0.0,0.0,0.0,0.0,0.0,0.0,0.0,0.0,0.0,0.0,0.0,0.0,0.0,0.0,0.0,0.0,0.0,0.0,0.0,0.0,0.0,0.0,0.0,0.0,0.0,0.0,0.0,-0.0498,0.0,0.0,0.1797,0.0,0.0,0.0,0.0,0.0,0.0,0.0,0.0,0.0,0.0,0.0,0.0,0.0,0.0,0.0,0.0,0.0,0.0,0.0,0.0,0.0,0.0,1.6124,1.7014,1.8714,2.0019,2.0828,2.0697,2.0499,2.0431,2.0062,1.9197,1.7814,0.0,0.0,0.0,0.0,0.0,0.0,0.0,0.0,0.0,0.0,0.0,0.0,0.0,0.0,0.0,0.0,0.0,0.0,0.0,0.0,0.0,0.0,0.0,0.0,0.0,0.0,1.0914,1.1572,1.2381,0.0,0.0,0.0,0.0,0.0,0.0,0.0,0.0,0.0,1.5843,1.7323,1.8264,1.7702,1.7618,1.7829,1.8405,1.7506,1.6916,1.7478,1.7576,1.7416,0.0,0.0,0.0,0.0,0.0,0.0,0.0,0.0,0.0,0.0,0.0,0.0,0.0,0.0,0.0,0.0,0.0,0.0,0.0,0.0,0.0,0.0,0.0,0.0,0.0,0.0,0.0,0.0876,0.1404,0.0,0.0,0.0,0.0,0.0,0.0,0.0,0.0,0.0,0.0,0.0,0.9925,1.0684,0.0,0.0,0.0,0.0,0.0,0.0,0.0,0.0,0.0,0.0,0.0,0.0,1.6107,1.6634,1.8226,1.9332,1.9803,1.9551,1.9464,1.9588,1.9442,1.8836,1.768,0.0,0.0,0.0,0.0,0.0,0.0,0.0,0.0,0.0,0.0,0.0,0.0,0.0,0.0,0.0,0.0,0.0,0.0,0.0,0.0,0.0,0.0,0.0,0.0,0.0,1.279,0.0,0.0,0.0,0.0,0.0,0.0,0.0,0.0,0.0,0.0,0.0,1.6083,1.6978,1.7276,1.7598,1.8142,1.8285,1.8394,0.0,0.0,0.0,0.0,0.0,0.0,0.0,0.0,0.0,0.0,0.0,0.0,0.0,0.0,1.6018,1.5497,1.583,1.625,1.6511,0.0,0.0,0.0,0.0,0.0,0.0,0.0,0.0,0.0,0.0,0.0,0.0,0.0,0.0,0.2353,0.0,0.2542,0.0,0.0,0.0,0.0,0.0,0.0,0.0,0.0,0.8626,0.9495,1.04,1.1151,1.1713,0.0,1.24,1.2493,0.0,0.0,0.0,0.0,0.0,0.0,0.0,0.0,1.591,1.6641,1.7963,1.8884,1.942,1.9176,1.9049,1.9288,1.9176,1.8768,1.8145,1.6998,1.6047,0.0,0.0,0.0,0.0,0.0,0.0,0.0,0.0,0.0,0.0,0.0,0.0,0.0,0.0,0.0,0.0,0.0,0.0,0.0,0.0,0.0,0.0,0.0,1.2954,0.0,0.0,0.0,0.0,0.0,0.0,0.0,0.0,0.0,1.562,1.5655,1.6036,1.709,1.709,1.7342,1.8198,0.0,0.0,0.0,0.0,0.0,0.0,0.0,1.7741,1.7312,1.737,1.7369,1.7107,1.6874,1.6691,1.6691,0.0,0.0,1.6185,1.6451,1.6873,1.7121,1.6973,1.6894,1.7282,1.7084,1.6941,0.0,0.0,0.0,0.0,0.0,0.0,0.0,0.0,0.2901,0.299,0.0,0.2916,0.0,0.0,0.0,0.0,0.0,0.6349,0.0,0.0,0.9358,1.0208,1.088,1.1565,1.1808,1.1649,1.223,1.2605,1.2793,1.2784,0.0,0.0,0.0,0.0,0.0,0.0,1.5703,1.7024,1.7843,1.8703,1.9681,1.942,1.9398,1.9639,1.9288,1.9087,1.9072,1.8506,1.8201,1.8158,1.6905,0.0,0.0,0.0,0.0,0.0,0.0,0.0,0.0,0.0,0.0,0.0,0.0,0.0,0.0,0.0,0.0,0.0,0.0,0.0,0.0,1.23,0.0,0.0,0.0,0.0,0.0,0.0,0.0,0.0,0.0,0.0,1.5389,1.5841,1.6204,1.623,0.0,0.0,0.0,0.0,1.8002,1.8556,1.8097,1.7701,1.7752,1.7862,1.7934,1.792,0.0,0.0,1.7782,1.714,1.6789,1.6761,1.7289,1.745,1.6895,1.6951,1.7262,1.7863,1.7512,1.7297,1.7791,1.7413,1.6867,0.1189,0.0,0.0,0.0,0.0,0.2551,0.2744,0.3129,0.3582,0.395,0.418,0.4537,0.0,0.0,0.0,0.0,0.0,0.0,0.7961,0.905,0.9829,1.0333,1.0698,1.1303,1.1804,1.2087,1.2492,1.2799,1.3104,1.3475,1.3466,1.3207,0.0,0.0,0.0,0.0,1.5724,1.651,1.717,1.7854,1.8574,1.8496,1.8717,1.9236,1.9176,1.9116,1.9116,1.8927,1.8651,1.8216,1.7512,0.0,0.0,0.0,0.0,0.0,0.0,0.0,0.0,0.0,0.0,0.0,0.0,0.0,0.0,0.0,0.0,0.0,0.0,0.0,1.3266,1.3202,1.3299,0.0,0.0,0.0,0.0,0.0,0.0,0.0,0.0,0.0,1.6048,1.6001,1.6058,0.0,0.0,1.6892,1.7352,1.7462,1.753,1.7801,1.7772,0.0,1.8208,1.8247,1.8285,1.8512,1.8545,1.8539,1.8408,1.8148,1.8021,1.8111,1.8252,1.8333,1.8252,1.812,1.8139,1.8309,1.821,1.8139,1.8281,1.8134,1.7983,0.2448,0.2603,0.3144,0.3363,0.3366,0.322,0.3435,0.3909,0.45,0.4902,0.5101,0.5561,0.5876,0.6067,0.5985,0.0,0.0,0.0,0.8669,0.9554,1.044,1.0928,1.1141,1.195,1.2403,1.255,1.3276,1.3658,1.3695,1.4003,1.3987,1.3636,0.0,0.0,1.4004,1.5081,1.5867,1.6402,1.7102,1.776,1.8344,1.8422,1.8655,1.9078,1.9116,1.9116,1.9116,1.8936,1.8702,1.8344,1.7651,1.6904,0.0,0.0,0.0,0.0,0.0,0.0,0.0,0.0,0.0,0.0,0.0,1.4647,1.3873,0.0,0.0,0.0,1.3053,1.3226,1.4101,1.3837,0.0,0.0,0.0,0.0,0.0,0.0,0.0,1.5478,1.5398,1.5488,1.6139,1.5969,1.5913,1.6175,1.6219,1.6436,1.6934,0.0,1.716,1.7434,1.7585,1.7828,1.8147,1.8147,1.8147,1.8358,1.8279,1.8268,1.8478,1.8425,1.8478,1.8659,1.8736,1.8736,1.8774,1.8659,1.8556,1.8556,1.8517,1.8478,1.8478,1.8478,1.8478,0.307,0.3561,0.3399,0.3676,0.4158,0.3937,0.417,0.4794,0.5605,0.5828,0.5769,0.612,0.6694,0.7336,0.7688,0.0,0.8554,0.9033,0.9522,1.002,1.1158,1.1769,1.1977,1.2939,1.3218,1.2764,1.4247,1.4743,1.4305,1.435,1.4442,1.4399,1.4462,1.4439,1.4465,1.5309,1.599,1.6441,1.7263,1.7975,1.8556,1.8788,1.8941,1.8974,1.8974,1.9026,1.9026,1.8669,1.8475,1.8539,1.7507,1.6832,1.67,0.0,0.0,0.0,0.0,0.0,0.0,0.0,0.0,0.0,0.0,0.0,0.0,0.0,0.0,0.0,1.3195,0.0,1.496,1.4216,0.0,0.0,0.0,1.4514,1.472,1.5175,1.5558,1.5748,0.0,0.0,1.5792,1.5792,1.5792,1.5792,1.5792,1.6001,1.6539,1.6637,1.6837,1.7269,1.7516,1.7625,1.7747,1.7828,1.7868,1.7801,1.772,1.7814,1.8069,1.8109,1.8293,1.8592,1.8707,1.8669,1.862,1.8634,1.8673,1.8673,1.8595,1.8478,1.8478,1.8478,1.8478,0.307,0.3624,0.4036,0.43,0.4464,0.4888,0.5179,0.5382,0.647,0.6912,0.6907,0.686,0.7217,0.7759,0.8001,0.8662,0.9599,0.9847,1.0402,1.1259,1.1669,1.1877,1.1927,1.2175,1.2314,1.2353,1.3218,1.36,1.3552,1.4253,1.462,1.4631,1.4834,1.4891,1.4821,1.5054,1.5489,1.6095,1.6188,1.6552,1.7256,1.776,1.8042,1.8108,1.8121,1.8279,1.8616,1.8201,1.8279,1.8884,1.7678,1.6916,1.6779,1.5957,0.0,0.0,0.0,0.0,0.0,0.0,0.0,0.0,0.0,1.4728,1.4033,0.0,1.4402,0.0,1.4505,1.479,1.5085,1.4593,0.0,0.0,1.4722,1.4673,1.5233,1.5443,1.557,1.5703,1.5703,1.576,1.5792,1.5792,1.5792,1.5792,1.5792,1.5836,1.6013,1.6076,1.6207,1.6411,1.6837,1.7284,1.7558,1.7935,1.8028,1.7828,1.7625,1.7598,1.7801,1.772,1.772,1.7801,1.7787,1.7908,1.8212,1.8212,1.8319,1.8595,1.8595,1.8478,1.8478,1.8478,1.8478,0.3458,0.4018,0.4353,0.4463,0.4519,0.4952,0.5117,0.5226,0.6204,0.6583,0.6534,0.6923,0.7419,0.7913,0.8268,0.8784,0.9316,0.9814,1.0277,1.0694,1.1267,1.1578,1.1678,1.2107,1.2353,1.2442,1.3074,1.344,1.3614,1.401,1.4452,1.4843,1.4822,1.4869,1.5002,1.5164,1.5524,1.6051,1.625,1.6607,1.7089,1.7421,1.7625,1.7644,1.7513,1.7532,1.7697,1.7118,1.7066,1.7655,1.6612,1.6137,1.6374,1.582,1.5364,0.0,0.0,0.0,0.0,0.0,0.0,0.0,0.0,0.0,0.0,0.0,1.4762,1.4817,1.4959,1.5108,1.5244,1.5077,1.5063,1.5355,1.5089,1.5063,1.5534,1.5513,1.5558,1.576,1.5748,1.576,1.5792,1.5792,1.5792,1.5792,1.5792,1.5836,1.5869,1.5957,1.5988,1.6088,1.6466,1.6837,1.7063,1.7325,1.7462,1.7256,1.7102,1.7102,1.7338,1.7475,1.7544,1.7733,1.8002,1.8121,1.8094,1.808,1.8133,1.8201,1.8254,1.8254,1.8439,1.8478,1.8478,0.3904,0.4463,0.4463,0.4463,0.4519,0.4632,0.4746,0.4849,0.5555,0.5773,0.5727,0.6756,0.7413,0.7783,0.8415,0.8633,0.8553,0.9413,0.9769,0.9666,1.0702,1.1276,1.1418,1.2286,1.2716,1.2716,1.3266,1.3652,1.3984,1.3699,1.3994,1.4818,1.4532,1.4605,1.5017,1.5379,1.57,1.6027,1.671,1.7144,1.731,1.7286,1.7237,1.7239,1.6902,1.6658,1.6619,1.5925,1.5729,1.618,1.5389,1.523,1.5944,1.5924,1.604,0.0,1.6782,0.0,0.0,0.0,0.0,0.0,0.0,0.0,0.0,1.521,1.5153,1.53,1.5006,1.4937,1.5367,1.5424,1.5424,1.5322,1.5289,1.5357,1.5582,1.5558,1.5603,1.578,1.5792,1.5792,1.5792,1.5792,1.5792,1.5792,1.5792,1.5881,1.5957,1.6001,1.6044,1.6144,1.6318,1.6565,1.6637,1.6637,1.665,1.6552,1.6522,1.6522,1.6879,1.7144,1.7449,1.776,1.8094,1.8333,1.7948,1.7935,1.7974,1.7948,1.7962,1.8082,1.84,1.8478,1.8478,0.3514,0.446,0.4463,0.4463,0.4519,0.4519,0.4842,0.5382,0.6036,0.6204,0.6154,0.7246,0.7461,0.7069,0.7783,0.8427,0.918,0.9718,1.021,1.0712,1.1551,1.1927,1.1977,1.2175,1.2215,1.2264,1.2735,1.3035,1.3288,1.3498,1.3542,1.349,1.4071,1.4419,1.4558,0.0,0.0,0.0,1.602,1.6293,1.6436,1.6011,1.5847,1.5964,1.5372,0.0,1.6231,1.585,1.6136,1.7263,1.6446,0.0,0.0,0.0,0.0,0.0,0.0,0.0,0.0,0.0,0.0,0.0,1.557,1.5435,1.5312,1.5267,1.5267,1.53,1.5334,1.5232,1.4903,1.4949,1.4858,1.4501,1.4777,1.5062,1.5198,1.5513,1.5748,1.5792,1.5792,1.5792,1.5792,1.5792,1.5792,1.5792,1.5792,1.5881,1.5988,1.6001,1.5957,1.5925,1.6349,1.6752,1.6866,1.6976,1.682,1.6565,1.6479,1.6479,1.6509,1.6595,1.6637,1.668,1.665,1.6947,1.7269,1.7352,1.7557,1.8228,1.8347,1.8386,1.8478,1.8478,1.8478,0.3959,0.4463,0.4463,0.4463,0.0,0.4463,0.4677,0.5058,0.5328,0.5821,0.6462,0.7187,0.7464,0.7395,0.8039,0.8474,0.8798,0.9607,1.0064,1.0269,1.125,1.1728,1.1728,1.1977,1.2076,1.2126,1.2353,1.251,1.2637,1.2803,1.3084,1.3563,1.3858,1.428,1.4743,1.5119,1.5379,1.5513,1.578,1.5957,1.6076,1.5819,1.5719,1.5734,1.5281,0.0,0.0,0.0,0.0,0.0,0.0,0.0,0.0,1.5694,0.0,1.5768,1.5792,1.5792,1.5792,1.5792,1.5659,1.5334,1.5006,1.4869,1.4846,1.5017,1.4971,1.4686,1.5051,1.5187,1.496,1.5187,1.5232,1.5006,1.5187,1.5334,1.5424,1.5614,1.5748,1.5792,1.5792,1.5792,1.5792,1.5792,1.5792,1.5792,1.5792,1.5836,1.5869,1.5913,1.5881,1.5869,1.6219,1.6552,1.6667,1.6765,1.6778,1.6479,1.6362,1.6306,1.6219,1.638,1.6479,1.6405,1.6552,1.6795,1.6808,1.6892,1.706,1.7393,1.7516,1.7679,1.8055,1.8347,1.8478,0.4353,0.4463,0.4467,0.446,0.4463,0.4463,0.4588,0.472,0.0,0.0,0.0,0.7115,0.7576,0.7964,0.8473,0.8519,0.8215,0.9295,0.9658,0.9413,1.0702,1.1267,1.1326,1.1828,1.2076,1.2076,1.2076,1.2076,1.2076,1.2076,1.2646,1.3666,1.3652,1.4071,1.5062,1.5379,1.5513,1.5513,1.5703,1.5869,1.5988,1.5903,1.5849,1.5774,1.5401,1.5138,1.5029,1.4755,1.4804,1.5142,1.4863,1.4995,1.5647,1.5348,1.5336,1.5756,1.5792,1.5748,1.5703,1.5703,1.5424,1.4812,1.4455,1.4269,1.4326,1.4593,1.4628,1.4212,1.4731,1.5051,1.5119,1.5424,1.5647,1.557,1.548,1.548,1.5525,1.548,1.548,1.5647,1.5647,1.5703,1.5792,1.5792,1.5792,1.5792,1.5792,1.5792,1.5792,1.5836,1.5836,1.5913,1.61,1.6231,1.6306,1.6436,1.6392,1.6349,1.6231,1.6144,1.6076,1.6262,1.6448,1.6392,1.6795,1.6837,1.6595,1.6595,1.665,1.6637,1.6637,1.6846,1.7636,1.8126,1.8407,0.3688,0.4249,0.4249,0.4356,0.4463,0.4463,0.4923,0.5543,0.5843,0.6211,0.6677,0.7684,0.8193,0.8229,0.8299,0.8227,0.8008,0.8771,0.9145,0.9263,1.0474,1.1141,1.1326,1.1877,1.2076,1.2076,1.2076,1.2076,1.2076,1.2076,1.2224,1.248,1.319,1.4082,1.5017,1.5379,1.5513,1.5513,1.5824,1.6001,1.5988,1.5551,1.5313,1.5257,1.4773,1.4671,1.5147,1.5118,1.5337,1.5819,1.5813,1.5813,1.5794,1.5712,1.572,1.5792,1.5792,1.5659,1.5244,1.5198,1.4926,1.4362,1.4258,1.4212,1.4071,1.4212,1.4398,1.472,1.4858,1.496,1.5108,1.5153,1.5006,1.4628,1.4525,1.449,1.4582,1.4582,1.4777,1.5198,1.5198,1.5379,1.5703,1.5792,1.5748,1.5792,1.5792,1.5792,1.5792,1.5792,1.5792,1.5836,1.5913,1.6044,1.6088,1.6188,1.6175,1.6088,1.6144,1.6144,1.6001,1.6132,1.6175,1.6088,1.6207,1.6293,1.6423,1.6509,1.6663,1.6901,1.6969,1.7255,1.78,1.8034,1.8187,0.3755,0.4082,0.419,0.4249,0.4359,0.4551,0.507,0.591,0.6356,0.6895,0.7542,0.8207,0.8501,0.8483,0.8351,0.8147,0.7955,0.8672,0.9086,0.9256,1.0466,1.1082,1.1318,1.1877,1.2076,1.2076,1.2076,1.2076,1.2076,1.2076,1.208,1.2171,1.3092,1.3847,1.4269,1.4536,1.4663,1.4674,1.522,1.5647,1.5869,1.5409,1.5278,1.5507,1.5266,1.5266,1.5495,1.5507,1.5671,1.5869,1.5913,1.5881,1.5792,1.557,1.5447,1.5414,1.5153,1.4903,1.4674,1.4455,1.4269,1.4258,1.38,1.361,1.3742,1.4071,1.4351,1.449,1.4536,1.4571,1.4628,1.4674,1.4582,1.4351,1.4305,1.4444,1.4674,1.4731,1.496,1.5379,1.5244,1.5198,1.539,1.5435,1.5435,1.5424,1.5603,1.5792,1.5792,1.5792,1.5792,1.5836,1.5913,1.6001,1.5988,1.6132,1.6144,1.6001,1.6044,1.6044,1.5913,1.5969,1.5969,1.5913,1.5869,1.5957,1.6132,1.6144,1.633,1.6759,1.6885,1.7142,1.7784,1.8029,1.8249,0.3929,0.3948,0.4119,0.4232,0.4292,0.4596,0.5207,0.6046,0.6475,0.7196,0.8094,0.8572,0.8765,0.88,0.8549,0.8321,0.8203,0.8648,0.9032,0.9307,1.0436,1.1121,1.1421,1.2046,1.2351,1.2351,1.2351,1.2296,1.2154,1.2204,1.2252,1.2329,1.3024,1.3467,1.361,1.3836,1.3967,1.4025,1.4501,1.5017,1.5614,1.5289,1.5345,1.5736,1.5691,1.5659,1.5659,1.5513,1.5468,1.5468,1.5468,1.549,1.5611,1.5322,1.5119,1.5176,1.488,1.4582,1.4444,1.3941,1.3752,1.4071,1.3392,1.3113,1.3573,1.3931,1.4118,1.4082,1.4129,1.4212,1.4305,1.4351,1.4305,1.4294,1.4212,1.4258,1.4686,1.4686,1.4789,1.5142,1.5006,1.4822,1.4982,1.5085,1.5165,1.5345,1.557,1.5792,1.5792,1.5792,1.5792,1.5836,1.5869,1.5944,1.5957,1.6001,1.6057,1.5944,1.5957,1.5913,1.5824,1.5792,1.5792,1.5792,1.5792,1.5836,1.5836,1.5836,1.5981,1.636,1.6396,1.6684,1.7449,1.7647,1.808,0.3798,0.3851,0.4079,0.433,0.4553,0.4627,0.5277,0.6162,0.6245,0.6727,0.7574,0.8578,0.9028,0.9028,0.8992,0.8825,0.8649,0.8719,0.8875,0.9317,1.0455,1.1193,1.1527,1.2597,1.3186,1.3095,1.3086,1.2742,1.2234,1.2468,1.2651,1.2745,1.2803,1.3112,1.3515,1.3732,1.3873,1.3978,1.3695,1.4082,1.5108,1.5108,1.5334,1.5792,1.5379,1.5153,1.5153,1.4674,1.4444,1.4433,1.449,1.471,1.5115,1.5118,1.5289,1.5659,1.5647,1.5468,1.5017,1.4129,1.361,1.3621,1.32,1.3113,1.3525,1.3621,1.3658,1.3658,1.3668,1.3884,1.4212,1.4258,1.4212,1.4165,1.3884,1.3705,1.3763,1.3344,1.3296,1.3763,1.3973,1.4042,1.4843,1.5127,1.5278,1.5614,1.5748,1.5792,1.5792,1.5792,1.5792,1.5792,1.5836,1.5836,1.5836,1.5836,1.5836,1.5836,1.5836,1.5836,1.5792,1.5792,1.5792,1.5792,1.5792,1.5792,1.5792,1.5792,1.5816,1.6056,1.6104,1.6149,1.6604,1.6817,1.738,0.3252,0.4014,0.4128,0.4414,0.4718,0.4479,0.5064,0.6286,0.6298,0.6729,0.7502,0.8382,0.8651,0.8516,0.8942,0.8926,0.8687,0.8675,0.8844,0.9247,1.005,1.0565,1.0971,1.1712,1.2111,1.2167,1.25,1.2841,1.2995,1.289,1.2805,1.2692,1.2525,1.251,1.2696,1.2842,1.2977,1.3084,1.3045,1.3382,1.4082,1.4222,1.4455,1.4823,1.472,1.4628,1.4628,1.4686,1.4777,1.4777,1.5051,1.5299,1.552,1.5254,1.5198,1.5334,1.4823,1.4316,1.381,1.3392,1.3296,1.3563,1.3104,1.2958,1.342,1.3248,1.3055,1.2997,1.3334,1.3705,1.3836,1.3658,1.3488,1.343,1.3296,1.3296,1.3573,1.343,1.3478,1.3905,1.3993,1.4202,1.4947,1.5387,1.5614,1.5799,1.5792,1.5792,1.5792,1.5792,1.5792,1.5792,1.5792,1.5792,1.5792,1.5792,1.5792,1.5792,1.5792,1.5792,1.5792,1.5792,1.5792,1.5792,1.5792,1.5792,1.5792,1.5816,1.5852,1.6056,1.6572,1.6846,1.7063,1.6846,1.7083,0.3221,0.405,0.4066,0.4244,0.4481,0.4249,0.488,0.6059,0.6141,0.6404,0.6863,0.7642,0.7945,0.7996,0.8799,0.9132,0.8914,0.8896,0.9137,0.9483,1.0012,1.0491,1.0785,1.136,1.1658,1.1715,1.2355,1.3046,1.3645,1.3238,1.2905,1.2696,1.2429,1.2186,1.2144,1.2175,1.2332,1.2529,1.2578,1.291,1.3334,1.3382,1.3705,1.4258,1.4305,1.4305,1.4305,1.4686,1.4869,1.488,1.5232,1.5468,1.5614,1.5153,1.4925,1.5015,1.437,1.3796,1.3429,1.3234,1.3223,1.3402,1.2958,1.2813,1.3055,1.292,1.2686,1.2618,1.3045,1.3334,1.3286,1.3065,1.2881,1.2881,1.2891,1.3075,1.3334,1.3382,1.3519,1.3989,1.4125,1.4521,1.518,1.5742,1.5997,1.5858,1.5792,1.5792,1.5792,1.5792,1.5792,1.5792,1.5792,1.5792,1.5792,1.5792,1.5792,1.5792,1.5792,1.5792,1.5792,1.5792,1.5792,1.5792,1.5792,1.5792,1.5792,1.5828,1.5852,1.626,1.6644,1.6931,1.6727,1.6548,1.6632,0.4241,0.4209,0.3766,0.3584,0.3673,0.3965,0.4634,0.5491,0.5491,0.5491,0.569,0.6268,0.6854,0.7558,0.8784,0.9448,0.943,0.9406,0.9585,0.9951,1.0573,1.11,1.1509,1.2104,1.2379,1.2195,1.28,1.3405,1.3816,1.347,1.312,1.2752,1.2715,1.2503,1.2218,1.2162,1.2234,1.248,1.2529,1.2676,1.292,1.292,1.3382,1.4165,1.4305,1.4258,1.4258,1.4305,1.4351,1.4351,1.4387,1.4628,1.5006,1.464,1.458,1.4925,1.4833,1.4697,1.4549,1.4012,1.3551,1.3212,1.2774,1.2578,1.2725,1.2715,1.2627,1.2676,1.2725,1.2774,1.2774,1.2774,1.2783,1.2881,1.2891,1.2929,1.2998,1.3086,1.3126,1.3581,1.4154,1.4807,1.5683,1.623,1.6147,1.5911,1.5792,1.5792,1.5748,1.5748,1.5792,1.5792,1.5792,1.5792,1.5792,1.5792,1.5792,1.5792,1.5792,1.5792,1.5792,1.5792,1.5792,1.5792,1.5792,1.5792,1.5792,1.5792,1.5804,1.5948,1.5984,1.6092,1.626,1.5984,1.608,0.3437,0.4175,0.3323,0.3191,0.3549,0.3579,0.4246,0.5359,0.5428,0.5428,0.5491,0.6075,0.6793,0.7451,0.8425,0.9081,0.9484,0.9612,0.9798,1.0047,1.0225,1.0485,1.0737,1.0856,1.0912,1.1038,1.1725,1.2647,1.3593,1.3627,1.3598,1.3433,1.324,1.2855,1.2525,1.2503,1.2443,1.24,1.2421,1.2578,1.2725,1.2881,1.32,1.381,1.3847,1.3705,1.343,1.3988,1.4165,1.3836,1.4118,1.4398,1.4558,1.4693,1.4784,1.4798,1.4769,1.4553,1.4128,1.3633,1.3275,1.3111,1.2662,1.2391,1.2431,1.2431,1.2431,1.2391,1.244,1.2431,1.248,1.2578,1.2735,1.2783,1.2842,1.2998,1.3203,1.3291,1.3447,1.389,1.4631,1.5363,1.5697,1.6176,1.6187,1.5555,1.5614,1.5659,1.5468,1.5558,1.5792,1.5792,1.5792,1.5792,1.5792,1.5792,1.5792,1.5792,1.5792,1.5792,1.5792,1.5792,1.5792,1.5792,1.5792,1.5792,1.5792,1.5792,1.5792,1.5792,1.5792,1.5792,1.5804,1.5792,1.5876,0.2557,0.3979,0.296,0.282,0.342,0.3284,0.4018,0.5359,0.5428,0.5428,0.5491,0.5885,0.6535,0.7386,0.7907,0.8689,0.9484,0.9734,0.9862,0.9983,0.9989,1.0117,1.0244,1.011,1.0053,1.0301,1.117,1.2343,1.3416,1.392,1.402,1.3864,1.3598,1.3204,1.2816,1.2715,1.2573,1.2348,1.2372,1.2529,1.2627,1.2783,1.2968,1.3296,1.3478,1.3525,1.3334,1.3978,1.4165,1.3952,1.4258,1.4504,1.4532,1.4772,1.481,1.4687,1.4542,1.4336,1.3872,1.3424,1.319,1.3118,1.2721,1.2456,1.2647,1.2684,1.2624,1.2624,1.2624,1.2674,1.2674,1.2846,1.2884,1.2733,1.285,1.3134,1.3426,1.3572,1.3949,1.461,1.5348,1.5752,1.5717,1.6058,1.5766,1.4958,1.5244,1.5379,1.5244,1.5468,1.5792,1.5792,1.5792,1.5792,1.5792,1.5792,1.5792,1.5792,1.5792,1.5792,1.5792,1.5792,1.5792,1.5792,1.5792,1.5792,1.5792,1.5792,1.5792,1.5792,1.5792,1.5792,1.5792,1.5792,1.5924,0.1748,0.3713,0.2491,0.235,0.3015,0.3218,0.4084,0.516,0.5359,0.5428,0.5428,0.5425,0.6214,0.719,0.7517,0.8172,0.935,0.974,0.9862,0.9983,0.9989,1.011,1.0238,1.0053,1.011,1.0421,1.1779,1.2826,1.3502,1.4085,1.4277,1.3965,1.3919,1.3534,1.277,1.2834,1.2656,1.246,1.2426,1.2429,1.249,1.2646,1.2774,1.2861,1.3286,1.3695,1.4165,1.4233,1.4287,1.4262,1.4639,1.4942,1.4842,1.4799,1.4693,1.4586,1.4336,1.4166,1.4082,1.3636,1.335,1.3295,1.2963,1.2915,1.3236,1.332,1.3329,1.331,1.3338,1.3385,1.3249,1.3338,1.3193,1.2707,1.3049,1.332,1.3497,1.3811,1.4512,1.5379,1.5889,1.6098,1.5879,1.5731,1.5389,1.4682,1.4823,1.5142,1.5062,1.5424,1.5748,1.5792,1.5792,1.5792,1.5792,1.5792,1.5792,1.5792,1.5792,1.5792,1.5792,1.5792,1.5792,1.5792,1.5792,1.5792,1.5792,1.5792,1.5792,1.5792,1.5792,1.5864,1.5984,1.6044,1.6044,0.2359,0.1415,0.1885,0.188,0.1942,0.3084,0.409,0.4688,0.516,0.5428,0.5428,0.5428,0.6148,0.719,0.7386,0.8172,0.9484,0.9676,0.9862,0.9989,0.9989,1.0047,1.0047,0.9798,1.0034,1.0843,1.1834,1.2765,1.3502,1.407,1.4305,1.4273,1.4187,1.3972,1.3506,1.3497,1.3368,1.2991,1.2791,1.2744,1.2757,1.2731,1.2822,1.3142,1.3152,1.3344,1.3821,1.4094,1.4066,1.378,1.4154,1.4493,1.4755,1.469,1.4719,1.4821,1.4646,1.4471,1.4326,1.4004,1.369,1.3626,1.3323,1.3176,1.3322,1.3368,1.3378,1.3368,1.335,1.335,1.335,1.335,1.3357,1.3212,1.3499,1.3849,1.4173,1.4661,1.5086,1.5405,1.5611,1.5517,1.5288,1.5174,1.4807,1.4095,1.4501,1.4915,1.4777,1.5289,1.5792,1.5792,1.5792,1.5792,1.5792,1.5792,1.5792,1.5792,1.5792,1.5792,1.5792,1.5792,1.5792,1.5792,1.5792,1.5792,1.5792,1.5792,1.5792,1.5816,1.5828,1.6008,1.626,1.6368,1.6416,0.2293,0.1617,0.1549,0.1276,0.1139,0.2882,0.3887,0.4353,0.5093,0.5428,0.5428,0.5428,0.6148,0.719,0.7386,0.8172,0.9414,0.9734,0.9926,0.9983,0.9989,0.9989,0.9983,0.9792,1.0098,1.1017,1.195,1.2765,1.3502,1.4079,1.4387,1.4455,1.4396,1.4227,1.3919,1.3864,1.369,1.3305,1.3136,1.2976,1.2861,1.2789,1.287,1.3027,1.292,1.3096,1.3538,1.3952,1.3961,1.3694,1.4053,1.457,1.4961,1.4859,1.4811,1.4895,1.4793,1.4606,1.4469,1.4093,1.3974,1.4002,1.3745,1.3607,1.3699,1.3745,1.3754,1.3745,1.3772,1.3736,1.3754,1.3754,1.3801,1.3858,1.3978,1.4313,1.4781,1.5186,1.5381,1.5449,1.541,1.514,1.4774,1.4578,1.4245,1.3665,1.4035,1.4582,1.449,1.5006,1.5424,1.5748,1.5792,1.5792,1.5792,1.5792,1.5792,1.5792,1.5792,1.5792,1.5792,1.5792,1.5792,1.5792,1.5792,1.5792,1.5792,1.5792,1.5792,1.5828,1.59,1.6224,1.65,1.6834,1.6943,0.1617,0.3648,0.155,0.0605,0.0871,0.2546,0.3618,0.4287,0.509,0.5428,0.5428,0.5428,0.6148,0.719,0.7386,0.8107,0.9285,0.9798,0.9849,0.9913,0.9983,0.9989,0.9983,0.9919,1.0351,1.1197,1.2074,1.2887,1.37,1.4207,1.4515,1.4515,1.4437,1.4332,1.4047,1.3928,1.38,1.3525,1.3369,1.3203,1.2871,1.2926,1.287,1.2681,1.28,1.3103,1.3596,1.3988,1.4067,1.3799,1.4453,1.499,1.5264,1.5137,1.5001,1.497,1.4684,1.4575,1.4433,1.4203,1.4102,1.4368,1.4148,1.4066,1.4323,1.435,1.435,1.4368,1.4396,1.4423,1.4423,1.4414,1.4414,1.4492,1.4458,1.4744,1.5264,1.54,1.541,1.54,1.5361,1.5068,1.4292,1.4165,1.3755,1.3421,1.3525,1.3978,1.449,1.5006,1.5334,1.557,1.5792,1.5792,1.5792,1.5792,1.5792,1.5792,1.5792,1.5792,1.5792,1.5792,1.5792,1.5792,1.5792,1.5792,1.5792,1.5792,1.5792,1.5804,1.6044,1.6428,1.6846,1.7171,1.7532,0.0472,0.1078,0.1011,0.0944,0.1212,0.2952,0.362,0.3685,0.4891,0.5428,0.5428,0.5428,0.6148,0.7326,0.7386,0.7907,0.8753,0.9536,0.9588,0.9384,0.9786,0.9989,0.9989,0.9926,1.0604,1.1772,1.2205,1.3009,1.4139,1.4327,1.4387,1.4515,1.4387,1.4341,1.435,1.4323,1.4304,1.4157,1.3864,1.3681,1.3571,1.3413,1.3352,1.3408,1.3423,1.3585,1.3951,1.4385,1.4746,1.4922,1.5088,1.5235,1.5245,1.5098,1.4911,1.4784,1.4616,1.4515,1.4497,1.4405,1.4405,1.4478,1.4387,1.4396,1.4488,1.4515,1.4515,1.4515,1.4515,1.4515,1.4515,1.4515,1.4575,1.4784,1.4779,1.4945,1.5216,1.5362,1.542,1.5391,1.5166,1.4746,1.4277,1.3887,1.3618,1.3478,1.3705,1.4165,1.4536,1.5096,1.5513,1.5647,1.578,1.5792,1.5792,1.5792,1.5792,1.5792,1.5792,1.5792,1.5792,1.5792,1.5792,1.5792,1.5792,1.5792,1.5792,1.5792,1.5792,1.5792,1.6176,1.6584,1.7195,1.7604,1.8085,0.0,0.0,0.0607,0.128,0.2087,0.3157,0.362,0.3887,0.4888,0.5428,0.5428,0.5428,0.6148,0.7321,0.7386,0.7842,0.856,0.9408,0.946,0.9186,0.9716,0.9919,0.9926,0.9868,1.0667,1.202,1.2266,1.313,1.4198,1.4396,1.4387,1.4455,1.4336,1.4396,1.4497,1.4515,1.4515,1.446,1.4249,1.4075,1.3873,1.3784,1.3662,1.3659,1.3676,1.3876,1.4305,1.4814,1.5176,1.5352,1.541,1.5362,1.5215,1.5088,1.4902,1.4706,1.4556,1.4515,1.4515,1.4515,1.4515,1.4515,1.4515,1.4515,1.4515,1.4515,1.4515,1.4515,1.4515,1.4515,1.4515,1.4515,1.4625,1.4784,1.497,1.5088,1.5254,1.5352,1.542,1.5352,1.5186,1.4785,1.4238,1.3906,1.3629,1.3439,1.361,1.3978,1.4351,1.504,1.5513,1.5558,1.5736,1.5792,1.5792,1.5792,1.5792,1.5792,1.5792,1.5792,1.5792,1.5792,1.5792,1.5792,1.5792,1.5792,1.5792,1.5792,1.5792,1.5936,1.632,1.6727,1.7291,1.7953,1.8446,0.0,0.0067,0.0337,0.1548,0.3025,0.322,0.3618,0.4353,0.5093,0.5428,0.5428,0.5428,0.6083,0.7256,0.726,0.7647,0.8231,0.8812,0.9134,0.9192,0.9588,0.9926,0.9862,0.9804,1.0661,1.1888,1.2274,1.3139,1.4139,1.4396,1.4387,1.4446,1.4396,1.4396,1.4455,1.4515,1.4515,1.4515,1.4478,1.4295,1.4075,1.4079,1.3997,1.3886,1.4005,1.4174,1.4628,1.5071,1.54,1.541,1.542,1.5313,1.5205,1.5029,1.4902,1.4725,1.4565,1.4515,1.4515,1.4515,1.4515,1.4515,1.4515,1.4515,1.4515,1.4515,1.4515,1.4515,1.4515,1.4515,1.4515,1.4515,1.4625,1.4784,1.4911,1.5079,1.5303,1.542,1.542,1.5381,1.5352,1.4863,1.4369,1.3951,1.3691,1.3427,1.361,1.3847,1.4269,1.4823,1.5153,1.5244,1.548,1.5792,1.5792,1.5792,1.5792,1.5792,1.5792,1.5792,1.5792,1.5792,1.5792,1.5792,1.5792,1.5792,1.5792,1.5792,1.5792,1.6032,1.6392,1.6822,1.7267,1.8049,1.865,0.0,0.0,0.0337,0.1548,0.3025,0.322,0.3618,0.442,0.509,0.5428,0.5428,0.5428,0.5885,0.6666,0.6868,0.6933,0.7046,0.7553,0.7931,0.9058,0.9594,0.9862,0.9926,0.9862,1.073,1.1896,1.2266,1.3078,1.4139,1.4455,1.4455,1.4474,1.451,1.4465,1.4561,1.4625,1.4524,1.4524,1.4543,1.4543,1.446,1.4464,1.4458,1.4427,1.4648,1.4821,1.4916,1.5196,1.541,1.542,1.542,1.5313,1.5088,1.5039,1.4862,1.4625,1.4515,1.4515,1.4515,1.4515,1.4515,1.4515,1.4515,1.4515,1.4515,1.4515,1.4515,1.4515,1.4515,1.4515,1.4515,1.4515,1.4625,1.4852,1.497,1.5137,1.5362,1.542,1.542,1.5273,1.4853,1.4291,1.4077,1.3535,1.3362,1.3385,1.3573,1.3752,1.4129,1.4605,1.488,1.5017,1.548,1.5792,1.5792,1.5792,1.5792,1.5792,1.5792,1.5792,1.5792,1.5792,1.5792,1.5792,1.5792,1.5792,1.5792,1.5792,1.5792,1.6128,1.6404,1.6726,1.7171,1.8013,1.8458,0.0,0.0,0.0337,0.1547,0.3019,0.3218,0.3818,0.4755,0.5223,0.5428,0.5428,0.5428,0.5749,0.64,0.6662,0.6658,0.6593,0.7098,0.8135,0.932,0.9856,1.0053,1.011,1.0174,1.0856,1.2081,1.2328,1.3139,1.4139,1.4474,1.4547,1.4781,1.4729,1.4885,1.5038,1.5038,1.5093,1.5093,1.5065,1.5065,1.5065,1.5118,1.5059,1.4986,1.5084,1.5029,1.4893,1.5235,1.5352,1.5313,1.5313,1.5205,1.5029,1.4902,1.4734,1.4575,1.4515,1.4515,1.4515,1.4515,1.4515,1.4515,1.4515,1.4515,1.4515,1.4515,1.4515,1.4515,1.4515,1.4515,1.4506,1.4556,1.4734,1.497,1.5098,1.5196,1.5362,1.542,1.5312,1.5127,1.4746,1.4287,1.3838,1.333,1.3126,1.3183,1.3478,1.3658,1.3668,1.414,1.464,1.4915,1.5468,1.5748,1.5792,1.5792,1.5792,1.5792,1.5792,1.5792,1.5792,1.5792,1.5792,1.5792,1.5792,1.5792,1.5792,1.5792,1.5792,1.5936,1.6164,1.6498,1.6834,1.7327,1.7664,0.0067,0.0202,0.0405,0.1613,0.3151,0.3218,0.4018,0.5292,0.5428,0.5428,0.5428,0.5428,0.5686,0.6203,0.6445,0.6515,0.685,0.7377,0.842,0.9518,0.9983,1.0174,1.0238,1.0364,1.0863,1.2027,1.2089,1.2895,1.3778,1.4279,1.4416,1.4861,1.5051,1.5232,1.5588,1.567,1.5588,1.556,1.5551,1.557,1.5551,1.5642,1.5392,1.5102,1.5093,1.4987,1.4871,1.5069,1.5313,1.5205,1.5156,1.5088,1.497,1.4843,1.4597,1.4515,1.4515,1.4515,1.4515,1.4515,1.4515,1.4515,1.4515,1.4515,1.4515,1.4515,1.4515,1.4515,1.4515,1.4515,1.4515,1.4606,1.4784,1.497,1.5098,1.5264,1.5362,1.541,1.5234,1.4893,1.46,1.4219,1.3789,1.333,1.3154,1.3037,1.3337,1.3525,1.3525,1.381,1.4362,1.4823,1.5334,1.5748,1.5792,1.5792,1.5792,1.5792,1.5792,1.5792,1.5792,1.5792,1.5792,1.5792,1.5792,1.5792,1.5792,1.5792,1.5792,1.5792,1.5996,1.6356,1.6512,1.6642,1.6943,0.0337,0.0877,0.0607,0.1748,0.3558,0.342,0.4084,0.5226,0.5428,0.5428,0.5428,0.5428,0.5495,0.5617,0.5588,0.6179,0.6907,0.7437,0.8161,0.9192,0.9722,1.0053,1.0244,1.0308,1.0737,1.1296,1.163,1.2135,1.3063,1.3678,1.4195,1.4442,1.5106,1.5542,1.5744,1.5707,1.5808,1.5854,1.5835,1.5826,1.5762,1.5532,1.5228,1.4897,1.5018,1.4976,1.4821,1.4902,1.5088,1.5156,1.4893,1.4902,1.4911,1.4784,1.4616,1.4506,1.4515,1.4515,1.4515,1.4515,1.4515,1.4515,1.4515,1.4515,1.4515,1.4515,1.4515,1.4515,1.4515,1.4515,1.4506,1.4606,1.4775,1.4961,1.5098,1.5264,1.5371,1.5381,1.5234,1.4853,1.4492,1.4072,1.3594,1.3232,1.3066,1.2988,1.3182,1.3334,1.3334,1.3752,1.4351,1.4766,1.5232,1.5558,1.5792,1.5748,1.5748,1.5792,1.5792,1.5792,1.5792,1.5792,1.5792,1.5792,1.5792,1.5792,1.5792,1.5792,1.5792,1.5792,1.6032,1.6296,1.6296,1.6378,1.6664,0.0472,0.1146,0.1682,0.2621,0.3758,0.382,0.4353,0.5292,0.5428,0.5428,0.5428,0.5428,0.5428,0.5415,0.5377,0.5814,0.64,0.7298,0.8086,0.8994,0.9594,1.0053,1.0244,1.0308,1.0498,1.0792,1.1128,1.1772,1.2735,1.3257,1.3953,1.4649,1.5261,1.5695,1.6209,1.6358,1.6303,1.6294,1.6294,1.6294,1.6221,1.5744,1.5304,1.5228,1.4976,1.4902,1.479,1.4902,1.5029,1.5098,1.4902,1.4834,1.4843,1.4734,1.4556,1.4515,1.4515,1.4515,1.4515,1.4515,1.4515,1.4515,1.4515,1.4515,1.4515,1.4515,1.4515,1.4515,1.4515,1.4515,1.4515,1.4606,1.4715,1.4843,1.5029,1.5205,1.5323,1.5371,1.5156,1.4814,1.4434,1.3936,1.3281,1.3018,1.293,1.2978,1.3113,1.3152,1.3152,1.3705,1.4351,1.4571,1.4903,1.5187,1.5513,1.5659,1.5703,1.5792,1.5792,1.5792,1.5792,1.5792,1.5792,1.5792,1.5792,1.5792,1.5792,1.5792,1.5792,1.5792,1.5924,1.6032,1.602,1.6149,1.6411,0.0539,0.1549,0.269,0.3493,0.3959,0.422,0.4688,0.5296,0.5428,0.5428,0.5428,0.5428,0.5428,0.5418,0.545,0.5607,0.5826,0.7205,0.8215,0.9262,0.9786,1.0174,1.018,1.0308,1.0371,1.034,1.0828,1.1565,1.228,1.2918,1.3808,1.4588,1.5087,1.5799,1.6651,1.6771,1.6908,1.6908,1.6908,1.689,1.6633,1.6184,1.5698,1.557,1.5059,1.4777,1.4684,1.4793,1.4911,1.497,1.4843,1.4715,1.4852,1.4684,1.4515,1.4515,1.4515,1.4515,1.4515,1.4515,1.4515,1.4515,1.4515,1.4515,1.4515,1.4515,1.4515,1.4515,1.4515,1.4515,1.4515,1.4597,1.4715,1.4775,1.502,1.5205,1.5264,1.5235,1.5088,1.4736,1.4311,1.3906,1.335,1.3145,1.3125,1.2939,1.3027,1.3113,1.32,1.38,1.4305,1.434,1.4582,1.4812,1.5142,1.5468,1.5603,1.578,1.5792,1.5792,1.5792,1.5792,1.5792,1.5792,1.5792,1.5792,1.5792,1.5792,1.5792,1.5792,1.5792,1.5816,1.5876,1.5933,1.6098,0.1009,0.2552,0.3025,0.3627,0.422,0.4287,0.4758,0.5362,0.5428,0.5428,0.5428,0.5428,0.5428,0.5418,0.5484,0.6098,0.6854,0.7598,0.842,0.9396,0.9919,1.0117,1.011,1.0434,1.0308,1.0238,1.0745,1.1041,1.164,1.2487,1.347,1.4364,1.5306,1.6149,1.6811,1.6908,1.6908,1.6908,1.6908,1.6752,1.6477,1.6294,1.5854,1.5377,1.5056,1.4878,1.4611,1.4616,1.4684,1.4775,1.4616,1.4616,1.4666,1.4616,1.4515,1.4515,1.4515,1.4515,1.4515,1.4515,1.4515,1.4515,1.4515,1.4515,1.4515,1.4515,1.4515,1.4515,1.4515,1.4515,1.4515,1.4616,1.4656,1.4784,1.497,1.5156,1.5215,1.5303,1.5127,1.4805,1.4482,1.4,1.3564,1.3447,1.333,1.3126,1.2988,1.3056,1.322,1.3842,1.4269,1.4305,1.4305,1.4536,1.496,1.5244,1.5513,1.5736,1.5792,1.5792,1.5792,1.5792,1.5792,1.5792,1.5792,1.5792,1.5792,1.5792,1.5792,1.5792,1.5792,1.5792,1.5804,1.5836,1.5925,0.2559,0.2753,0.3766,0.4231,0.4356,0.4688,0.5093,0.5362,0.5428,0.5428,0.5428,0.5428,0.5411,0.5526,0.5734,0.604,0.6526,0.7543,0.8226,0.8941,0.9466,0.9868,0.9926,1.0117,1.011,1.0283,1.0712,1.1101,1.1506,1.2365,1.3459,1.4457,1.53,1.6184,1.683,1.6908,1.6908,1.6908,1.6899,1.6817,1.6633,1.6395,1.6028,1.546,1.5212,1.4943,1.4657,1.4506,1.4625,1.4725,1.4684,1.4556,1.4666,1.4556,1.4515,1.4515,1.4515,1.4515,1.4515,1.4515,1.4515,1.4515,1.4515,1.4515,1.4515,1.4515,1.4515,1.4515,1.4515,1.4515,1.4515,1.4565,1.4556,1.4675,1.4921,1.5039,1.5147,1.5294,1.5264,1.4922,1.46,1.4209,1.3809,1.3506,1.3379,1.3292,1.3343,1.36,1.3587,1.3707,1.4063,1.4294,1.4258,1.4316,1.4777,1.5198,1.5468,1.5647,1.5792,1.5792,1.5792,1.5792,1.5792,1.5792,1.5792,1.5792,1.5792,1.5792,1.5792,1.5792,1.5792,1.5792,1.5836,1.5913,1.6025,0.3907,0.3426,0.4506,0.484,0.4622,0.516,0.5362,0.5428,0.5428,0.5428,0.5495,0.5624,0.5723,0.5759,0.6244,0.6506,0.6668,0.7747,0.8226,0.8554,0.9075,0.967,0.9926,1.0047,1.011,1.0066,1.0922,1.1417,1.197,1.2815,1.3962,1.476,1.5455,1.6202,1.67,1.6908,1.6908,1.6908,1.6908,1.689,1.6789,1.6367,1.6019,1.5679,1.5284,1.4911,1.4721,1.4616,1.4734,1.4743,1.4625,1.4565,1.4616,1.4565,1.4515,1.4515,1.4515,1.4515,1.4515,1.4515,1.4515,1.4515,1.4515,1.4515,1.4515,1.4515,1.4515,1.4515,1.4515,1.4515,1.4515,1.4506,1.4506,1.4625,1.4803,1.4921,1.5039,1.5245,1.5283,1.4941,1.4658,1.4482,1.4062,1.3584,1.3389,1.34,1.3641,1.3993,1.393,1.3775,1.3857,1.4129,1.449,1.4501,1.4834,1.5244,1.5468,1.5603,1.5748,1.5792,1.5792,1.5792,1.5792,1.5792,1.5792,1.5792,1.5792,1.5792,1.5792,1.5792,1.5792,1.5792,1.5836,1.5981,1.6345,0.4506,0.4849,0.4986,0.5109,0.5296,0.5362,0.5428,0.5428,0.5428,0.5428,0.5557,0.6009,0.6388,0.6637,0.6711,0.7377,0.8947,0.8161,0.849,0.921,0.9862,0.9862,0.9989,1.0117,1.0263,1.0425,1.1082,1.173,1.2582,1.3512,1.453,1.5358,1.5805,1.6281,1.6691,1.6908,1.6908,1.6908,1.6908,1.6872,1.667,1.6248,1.5845,1.5724,1.5167,1.4734,1.4715,1.4666,1.4666,1.4625,1.4565,1.4506,1.4506,1.4515,1.4515,1.4515,1.4515,1.4543,1.4598,1.4607,1.4561,1.4533,1.4588,1.4689,1.4726,1.4579,1.4533,1.4561,1.457,1.4515,1.4515,1.4515,1.4515,1.4575,1.4743,1.4911,1.5029,1.5254,1.5206,1.4941,1.4727,1.458,1.4385,1.3926,1.376,1.3792,1.3779,1.4128,1.3932,1.375,1.3738,1.401,1.4651,1.4926,1.5108,1.5379,1.5603,1.5703,1.5792,1.5792,1.5792,1.5792,1.5792,1.5792,1.5792,1.5792,1.5792,1.5792,1.5792,1.5792,1.5804,1.5897,1.6142,1.6365,1.6938,0.4712,0.4906,0.5036,0.5163,0.5428,0.5428,0.5428,0.5428,0.5428,0.5686,0.6013,0.6334,0.6846,0.7298,0.7242,0.7572,0.8549,0.8425,0.8624,0.8952,0.9408,0.9734,0.9862,1.0085,1.0258,1.0601,1.1168,1.1461,1.192,1.3727,1.5246,1.6014,1.6351,1.6569,1.683,1.6908,1.6908,1.6899,1.6872,1.6817,1.6496,1.6294,1.59,1.5482,1.5343,1.5018,1.4909,1.4784,1.4666,1.4616,1.4565,1.4515,1.4515,1.4515,1.4515,1.4515,1.4515,1.4616,1.4799,1.4854,1.4974,1.5212,1.5249,1.5166,1.5038,1.4983,1.4891,1.4827,1.4634,1.4524,1.4515,1.4515,1.4515,1.4575,1.4684,1.4843,1.502,1.5196,1.5323,1.5127,1.4902,1.4717,1.4512,1.4277,1.4199,1.416,1.4209,1.416,1.3965,1.3892,1.3969,1.4125,1.4743,1.5244,1.5435,1.5614,1.5792,1.5792,1.5792,1.5792,1.5792,1.5792,1.5792,1.5792,1.5792,1.5792,1.5792,1.5792,1.5792,1.5804,1.5909,1.6037,1.6345,1.6773,1.7402,0.4709,0.4831,0.496,0.5156,0.5362,0.5428,0.5428,0.5428,0.5428,0.562,0.6141,0.6334,0.6785,0.7367,0.7507,0.7707,0.8221,0.842,0.8624,0.8952,0.9344,0.9612,0.9823,1.0091,1.0425,1.0856,1.1315,1.1677,1.2249,1.3828,1.5292,1.6404,1.6878,1.6927,1.6908,1.6908,1.6908,1.6899,1.6743,1.6642,1.6349,1.6001,1.5873,1.5377,1.5261,1.5115,1.5027,1.4902,1.4775,1.4666,1.4556,1.4515,1.4515,1.4515,1.4515,1.4515,1.4552,1.4662,1.4864,1.5084,1.5203,1.5322,1.5221,1.5239,1.5267,1.5093,1.4827,1.4827,1.4634,1.4515,1.4515,1.4515,1.4515,1.4515,1.4675,1.4775,1.4961,1.5137,1.5313,1.5274,1.5146,1.501,1.4941,1.4775,1.4619,1.4473,1.4228,1.4199,1.4129,1.4145,1.4327,1.4548,1.4915,1.5334,1.5703,1.5796,1.5876,1.5792,1.5792,1.5792,1.5792,1.5804,1.5804,1.5792,1.5792,1.5792,1.5876,1.5984,1.5912,1.5816,1.5945,1.6086,1.6812,1.7294,1.7832,0.4498,0.4761,0.4827,0.5027,0.5362,0.5428,0.5428,0.5428,0.5428,0.5495,0.5686,0.6141,0.6465,0.6789,0.7251,0.7772,0.8355,0.849,0.8753,0.928,0.9414,0.967,1.0014,1.0263,1.0633,1.1062,1.1621,1.2389,1.2969,1.4261,1.5542,1.6526,1.6885,1.6908,1.6908,1.6908,1.6908,1.6853,1.656,1.6386,1.6129,1.5625,1.5374,1.528,1.5175,1.5046,1.5058,1.5029,1.4843,1.4715,1.4565,1.4515,1.4515,1.4515,1.4515,1.4515,1.4552,1.4588,1.4634,1.4946,1.5249,1.5414,1.5441,1.5111,1.4781,1.4634,1.4689,1.4808,1.4588,1.4524,1.4515,1.4515,1.4515,1.4515,1.4606,1.4775,1.4911,1.5088,1.5196,1.5362,1.542,1.5391,1.5381,1.5303,1.5098,1.4814,1.4394,1.4263,1.4277,1.4676,1.4971,1.5119,1.5451,1.5915,1.6226,1.6032,1.5948,1.5852,1.5876,1.5972,1.5912,1.5852,1.584,1.5828,1.5816,1.5828,1.602,1.6224,1.6272,1.6365,1.5996,1.6206,1.6995,1.776,1.8313,0.4773,0.4827,0.5093,0.5296,0.5362,0.5428,0.5428,0.5428,0.5425,0.562,0.6009,0.6334,0.6724,0.7055,0.7251,0.7777,0.8361,0.8554,0.8888,0.9414,0.9478,0.9734,1.0014,1.0411,1.0762,1.1404,1.2096,1.2515,1.2592,1.4371,1.5797,1.672,1.6936,1.6908,1.6908,1.6908,1.6908,1.6835,1.6532,1.6193,1.5881,1.5386,1.5087,1.5078,1.4977,1.5039,1.5098,1.5039,1.4902,1.4715,1.4556,1.4515,1.4515,1.4515,1.4524,1.4607,1.4708,1.5194,1.5515,1.5909,1.6046,1.6028,1.5854,1.5588,1.5689,1.5148,1.4992,1.4827,1.4671,1.4616,1.4515,1.4515,1.4515,1.4515,1.4565,1.4734,1.4911,1.497,1.5147,1.5303,1.542,1.542,1.542,1.542,1.5273,1.5234,1.4873,1.4694,1.4725,1.5423,1.5875,1.5953,1.6173,1.661,1.6799,1.6444,1.6286,1.6224,1.6272,1.6368,1.6248,1.5936,1.6056,1.614,1.5996,1.59,1.6284,1.669,1.6919,1.6919,1.6656,1.6821,1.7654,1.8253,1.8672,0.4837,0.4827,0.516,0.5359,0.5362,0.5428,0.5428,0.5428,0.5428,0.569,0.5947,0.6075,0.6207,0.6666,0.7256,0.7577,0.8161,0.8689,0.8952,0.9484,0.9478,0.9734,1.0032,1.0416,1.0892,1.1634,1.2508,1.3085,1.3388,1.4925,1.6087,1.6693,1.6885,1.6917,1.6908,1.6908,1.6908,1.6752,1.6413,1.5955,1.5615,1.5203,1.4823,1.4809,1.4834,1.4911,1.497,1.4911,1.4843,1.4725,1.4616,1.4515,1.4515,1.4524,1.4588,1.4763,1.5111,1.5551,1.5872,1.5991,1.6184,1.6697,1.6523,1.6349,1.6276,1.5808,1.5505,1.5267,1.4937,1.4735,1.4643,1.4625,1.4598,1.4598,1.4657,1.4768,1.4928,1.5046,1.5269,1.5468,1.5478,1.5459,1.542,1.542,1.5371,1.5381,1.5371,1.5251,1.5107,1.579,1.632,1.6306,1.6384,1.6706,1.6855,1.676,1.661,1.662,1.6644,1.6727,1.6224,1.5888,1.6164,1.638,1.6128,1.6116,1.6691,1.7123,1.7412,1.758,1.7556,1.7859,1.846,1.8732,1.8981,0.4691,0.4827,0.502,0.5216,0.5359,0.5428,0.5428,0.5428,0.5428,0.5428,0.5428,0.5495,0.569,0.5818,0.6863,0.7517,0.7842,0.8894,0.9285,0.9484,0.9478,0.9734,1.0089,1.0524,1.1073,1.1847,1.2783,1.3907,1.4569,1.5534,1.6342,1.6778,1.6917,1.6908,1.6908,1.6908,1.6908,1.6725,1.6312,1.5918,1.5606,1.5047,1.4768,1.4703,1.4725,1.4784,1.4852,1.4784,1.4725,1.4666,1.4556,1.4506,1.4524,1.4533,1.4781,1.5139,1.5542,1.5735,1.5945,1.6028,1.634,1.6917,1.6762,1.6486,1.6321,1.623,1.5964,1.567,1.5359,1.5065,1.4854,1.4808,1.4753,1.4753,1.4744,1.4907,1.505,1.5286,1.5549,1.5631,1.5595,1.5566,1.5449,1.542,1.542,1.542,1.5449,1.5618,1.5568,1.5911,1.631,1.6158,1.6336,1.6598,1.675,1.7089,1.6999,1.6967,1.7015,1.6991,1.638,1.6056,1.6356,1.6476,1.6176,1.632,1.6979,1.7508,1.7965,1.8085,1.8169,1.8304,1.8751,1.8804,1.9017,0.4736,0.5011,0.5042,0.5195,0.5355,0.5428,0.5428,0.5428,0.5428,0.5428,0.5428,0.5428,0.562,0.6203,0.6994,0.7647,0.8366,0.8958,0.935,0.9478,0.9548,0.9734,1.0064,1.0507,1.1209,1.223,1.3316,1.4332,1.5168,1.6088,1.6551,1.6839,1.6908,1.6908,1.6908,1.6908,1.6908,1.6771,1.6331,1.6019,1.567,1.5175,1.4888,1.4676,1.4675,1.4675,1.4675,1.4762,1.4693,1.4565,1.4515,1.4524,1.4515,1.479,1.5166,1.5881,1.612,1.6248,1.6532,1.6798,1.7027,1.7257,1.7385,1.7202,1.6908,1.6569,1.6367,1.6138,1.5872,1.5597,1.5524,1.5478,1.5368,1.5304,1.5258,1.5272,1.5439,1.5652,1.588,1.5921,1.5877,1.5703,1.5576,1.542,1.542,1.542,1.5497,1.5638,1.591,1.6144,1.6437,1.6353,1.6565,1.6875,1.7416,1.7774,1.7535,1.7339,1.7363,1.7339,1.6979,1.6762,1.6751,1.6763,1.6798,1.6955,1.7255,1.7808,1.8422,1.8626,1.8722,1.8851,1.8915,1.901,1.9076,0.4748,0.4875,0.4935,0.5078,0.5282,0.5359,0.5428,0.5428,0.5428,0.5428,0.5428,0.5428,0.5749,0.64,0.712,0.7777,0.849,0.9151,0.9478,0.9478,0.9548,0.9798,1.0091,1.0535,1.1156,1.2294,1.3523,1.4676,1.5486,1.6289,1.6908,1.6908,1.6908,1.6908,1.6908,1.6908,1.6908,1.6771,1.6523,1.6211,1.5826,1.5395,1.5001,1.4744,1.4717,1.4575,1.4543,1.469,1.4703,1.4653,1.4689,1.4882,1.4955,1.5267,1.5652,1.6276,1.6477,1.6486,1.6615,1.6945,1.7248,1.7559,1.7899,1.7908,1.7614,1.7275,1.7027,1.6771,1.6468,1.623,1.6266,1.6266,1.6129,1.5991,1.5835,1.5744,1.5918,1.6036,1.6122,1.623,1.614,1.5947,1.5742,1.5547,1.542,1.542,1.541,1.5497,1.5803,1.6105,1.6514,1.6731,1.6994,1.7317,1.7806,1.8166,1.7899,1.7757,1.7869,1.776,1.7484,1.7123,1.6799,1.7159,1.7604,1.77,1.776,1.8338,1.8879,1.8987,1.8987,1.898,1.9049,1.9165,1.931,0.4613,0.4625,0.4761,0.4951,0.5156,0.5359,0.5418,0.5411,0.5418,0.5428,0.5428,0.5491,0.5947,0.6662,0.7386,0.8037,0.8689,0.928,0.9478,0.9478,0.9676,0.9862,1.0193,1.077,1.1268,1.197,1.3142,1.4694,1.5523,1.6356,1.6839,1.6839,1.6908,1.6908,1.6908,1.6908,1.6908,1.6853,1.6615,1.6331,1.6019,1.557,1.5102,1.4946,1.4717,1.4524,1.4598,1.4726,1.4909,1.4928,1.5038,1.5304,1.5487,1.5771,1.6166,1.6505,1.6771,1.6908,1.6972,1.7248,1.7458,1.7724,1.7954,1.8174,1.8018,1.788,1.7669,1.7468,1.7193,1.7064,1.7073,1.6707,1.645,1.6386,1.6285,1.6232,1.6252,1.6468,1.6615,1.6625,1.648,1.625,1.5801,1.5596,1.542,1.542,1.541,1.5468,1.569,1.5968,1.6415,1.6901,1.718,1.7427,1.7867,1.8142,1.8166,1.8132,1.825,1.8097,1.7772,1.7303,1.6798,1.7243,1.7736,1.8085,1.8326,1.8746,1.8963,1.8987,1.8987,1.8987,1.9105,1.9275,1.9368,0.4478,0.4761,0.4957,0.5156,0.5292,0.5359,0.5294,0.5199,0.5315,0.5422,0.5491,0.5939,0.6457,0.7098,0.7812,0.8458,0.9122,0.9338,0.9478,0.9548,0.974,0.9862,1.006,1.0601,1.1265,1.2523,1.3651,1.4607,1.5583,1.6367,1.6621,1.6193,1.6551,1.6908,1.6908,1.6908,1.6899,1.6826,1.678,1.6321,1.5799,1.5643,1.5349,1.4919,1.4543,1.4561,1.4607,1.4643,1.4845,1.4974,1.5093,1.5313,1.5551,1.6074,1.6459,1.6771,1.7156,1.7348,1.7596,1.7807,1.8109,1.8275,1.8458,1.8375,1.8348,1.8394,1.832,1.8128,1.7999,1.7899,1.7688,1.7193,1.6789,1.6762,1.6679,1.6597,1.6582,1.6835,1.7072,1.6925,1.6782,1.6406,1.5918,1.5644,1.5478,1.542,1.542,1.5468,1.569,1.5968,1.6244,1.668,1.7111,1.744,1.7863,1.8116,1.8143,1.8329,1.8462,1.8274,1.8049,1.7845,1.7592,1.752,1.7772,1.8205,1.8554,1.8734,1.8903,1.8963,1.8999,1.9052,1.9117,1.9275,1.938,0.4372,0.4628,0.4827,0.509,0.5289,0.5359,0.5274,0.5162,0.5223,0.526,0.5387,0.5963,0.6608,0.7319,0.8016,0.8742,0.9289,0.9442,0.9466,0.9548,0.974,0.9919,1.02,1.0648,1.1347,1.2455,1.341,1.4326,1.5591,1.6044,1.6123,1.5956,1.6464,1.689,1.6899,1.689,1.6798,1.6652,1.6817,1.6376,1.5652,1.5505,1.5395,1.4919,1.4763,1.4744,1.4937,1.5038,1.5423,1.5762,1.6046,1.6496,1.6798,1.7101,1.7257,1.744,1.7688,1.788,1.8183,1.8476,1.8724,1.876,1.8926,1.8834,1.8797,1.8779,1.8421,1.8247,1.8357,1.8293,1.8109,1.7706,1.733,1.7174,1.6798,1.6582,1.6717,1.6986,1.6986,1.6805,1.6592,1.6143,1.5742,1.5547,1.542,1.542,1.542,1.542,1.5633,1.5911,1.6187,1.6476,1.6852,1.7187,1.7455,1.7816,1.8142,1.8366,1.8625,1.8478,1.8289,1.8446,1.8458,1.8169,1.8121,1.8482,1.877,1.8867,1.8903,1.8975,1.9052,1.9052,1.9194,1.9348,1.9442,0.4364,0.4367,0.47,0.496,0.515,0.5269,0.5237,0.5114,0.5164,0.521,0.5384,0.6025,0.6617,0.7182,0.8007,0.8561,0.9072,0.9406,0.9472,0.9606,0.9856,0.9983,1.0507,1.1191,1.1821,1.2488,1.3395,1.4354,1.5454,1.5765,1.5956,1.593,1.6341,1.6844,1.6872,1.6807,1.6688,1.6661,1.6615,1.6276,1.5854,1.5478,1.5313,1.5166,1.5029,1.5029,1.5267,1.5606,1.6056,1.6587,1.6899,1.7321,1.7596,1.7724,1.7862,1.799,1.81,1.8247,1.843,1.8696,1.8797,1.8898,1.9164,1.9228,1.9146,1.8953,1.8595,1.8403,1.8513,1.8449,1.8265,1.7963,1.7605,1.7202,1.6793,1.6416,1.673,1.6901,1.6804,1.6665,1.6367,1.5928,1.5723,1.5518,1.542,1.542,1.542,1.542,1.5526,1.5921,1.6255,1.6368,1.6525,1.6837,1.7202,1.7643,1.8051,1.8312,1.8537,1.8494,1.8542,1.8674,1.8698,1.8542,1.859,1.8782,1.8879,1.8939,1.8987,1.9059,1.8999,1.91,1.9461,1.9592,1.9589,0.4431,0.4697,0.4764,0.503,0.5276,0.523,0.5094,0.5034,0.5441,0.5603,0.5819,0.681,0.7419,0.745,0.8756,0.9301,0.9223,0.9442,0.96,0.9734,0.9919,1.0047,1.0511,1.1417,1.239,1.3195,1.3809,1.4404,1.49,1.5411,1.5608,1.5446,1.6111,1.6569,1.6826,1.6725,1.6578,1.6597,1.6688,1.6523,1.6138,1.5716,1.5212,1.4937,1.4625,1.4625,1.4763,1.5093,1.567,1.6422,1.7339,1.777,1.7999,1.8146,1.8247,1.8366,1.8485,1.8696,1.888,1.9008,1.9072,1.91,1.9256,1.9164,1.9118,1.91,1.8696,1.8229,1.8229,1.8109,1.7889,1.7449,1.7055,1.6624,1.6156,1.6141,1.6216,1.6364,1.6376,1.6345,1.6257,1.6035,1.5869,1.5664,1.5459,1.5449,1.542,1.542,1.5584,1.5979,1.6312,1.6312,1.6368,1.6698,1.709,1.7589,1.7993,1.8255,1.8525,1.866,1.8782,1.8879,1.8855,1.8734,1.8782,1.8939,1.8999,1.9155,1.9191,1.9251,1.9059,1.9136,1.9582,1.9806,1.9841]}]]